<?xml version="1.0" encoding="UTF-8" standalone="no" ?>
<gpx xmlns="http://www.topografix.com/GPX/1/1" xmlns:xsi="http://www.w3.org/2001/XMLSchema-instance" xsi:schemaLocation="http://www.topografix.com/GPX/1/1 http://www.topografix.com/GPX/1/1/gpx.xsd" version="1.1" creator="VisuGPX - https://www.visugpx.com">
  <metadata>
    <name>Mont Aucellier</name>
    <desc><![CDATA[Trace AlpineQuest 11/06/2017 10:03:49]]></desc>
  </metadata>
  <trk>
    <name><![CDATA[aucellier 11 juin 2017]]></name>
    <trkseg>
      <trkpt lat="44.08978" lon="7.08671">
        <ele>1052.2299804688</ele>
        <time>2017-06-11T08:03:49Z</time>
      </trkpt>
      <trkpt lat="44.08974" lon="7.08662">
        <ele>1060.8299560547</ele>
        <time>2017-06-11T08:04:52Z</time>
      </trkpt>
      <trkpt lat="44.08967" lon="7.08657">
        <ele>1065.4300537109</ele>
        <time>2017-06-11T08:06:13Z</time>
      </trkpt>
      <trkpt lat="44.08961" lon="7.08649">
        <ele>1067.9300537109</ele>
        <time>2017-06-11T08:06:20Z</time>
      </trkpt>
      <trkpt lat="44.08957" lon="7.08639">
        <ele>1070.5300292969</ele>
        <time>2017-06-11T08:06:26Z</time>
      </trkpt>
      <trkpt lat="44.08956" lon="7.08628">
        <ele>1073.9300537109</ele>
        <time>2017-06-11T08:06:32Z</time>
      </trkpt>
      <trkpt lat="44.08958" lon="7.08618">
        <ele>1076.6300048828</ele>
        <time>2017-06-11T08:06:38Z</time>
      </trkpt>
      <trkpt lat="44.08961" lon="7.08608">
        <ele>1077.5300292969</ele>
        <time>2017-06-11T08:06:45Z</time>
      </trkpt>
      <trkpt lat="44.08963" lon="7.08598">
        <ele>1078.6300048828</ele>
        <time>2017-06-11T08:06:50Z</time>
      </trkpt>
      <trkpt lat="44.08966" lon="7.08588">
        <ele>1078.4300537109</ele>
        <time>2017-06-11T08:06:56Z</time>
      </trkpt>
      <trkpt lat="44.08969" lon="7.08579">
        <ele>1077.6300048828</ele>
        <time>2017-06-11T08:07:02Z</time>
      </trkpt>
      <trkpt lat="44.08972" lon="7.08569">
        <ele>1077.9300537109</ele>
        <time>2017-06-11T08:07:07Z</time>
      </trkpt>
      <trkpt lat="44.08977" lon="7.08559">
        <ele>1078.9300537109</ele>
        <time>2017-06-11T08:07:12Z</time>
      </trkpt>
      <trkpt lat="44.08982" lon="7.0855">
        <ele>1079.6300048828</ele>
        <time>2017-06-11T08:07:17Z</time>
      </trkpt>
      <trkpt lat="44.08985" lon="7.0854">
        <ele>1081.6300048828</ele>
        <time>2017-06-11T08:07:22Z</time>
      </trkpt>
      <trkpt lat="44.0899" lon="7.08531">
        <ele>1083.3299560547</ele>
        <time>2017-06-11T08:07:27Z</time>
      </trkpt>
      <trkpt lat="44.08996" lon="7.08524">
        <ele>1084.8299560547</ele>
        <time>2017-06-11T08:07:33Z</time>
      </trkpt>
      <trkpt lat="44.09005" lon="7.08522">
        <ele>1085.6300048828</ele>
        <time>2017-06-11T08:07:39Z</time>
      </trkpt>
      <trkpt lat="44.09012" lon="7.08524">
        <ele>1086.8299560547</ele>
        <time>2017-06-11T08:07:44Z</time>
      </trkpt>
      <trkpt lat="44.09018" lon="7.0853">
        <ele>1087.7299804688</ele>
        <time>2017-06-11T08:07:50Z</time>
      </trkpt>
      <trkpt lat="44.09025" lon="7.08537">
        <ele>1088.8299560547</ele>
        <time>2017-06-11T08:07:55Z</time>
      </trkpt>
      <trkpt lat="44.0903" lon="7.08545">
        <ele>1088.1300048828</ele>
        <time>2017-06-11T08:08:01Z</time>
      </trkpt>
      <trkpt lat="44.09036" lon="7.08554">
        <ele>1088.3299560547</ele>
        <time>2017-06-11T08:08:06Z</time>
      </trkpt>
      <trkpt lat="44.09042" lon="7.08561">
        <ele>1088.4300537109</ele>
        <time>2017-06-11T08:08:11Z</time>
      </trkpt>
      <trkpt lat="44.09049" lon="7.08566">
        <ele>1089.5300292969</ele>
        <time>2017-06-11T08:08:16Z</time>
      </trkpt>
      <trkpt lat="44.09056" lon="7.08566">
        <ele>1090.4300537109</ele>
        <time>2017-06-11T08:08:21Z</time>
      </trkpt>
      <trkpt lat="44.09065" lon="7.08567">
        <ele>1090.6300048828</ele>
        <time>2017-06-11T08:08:27Z</time>
      </trkpt>
      <trkpt lat="44.09072" lon="7.08566">
        <ele>1090.8299560547</ele>
        <time>2017-06-11T08:08:32Z</time>
      </trkpt>
      <trkpt lat="44.09079" lon="7.0857">
        <ele>1091.4300537109</ele>
        <time>2017-06-11T08:08:37Z</time>
      </trkpt>
      <trkpt lat="44.09086" lon="7.08574">
        <ele>1093.2299804688</ele>
        <time>2017-06-11T08:08:43Z</time>
      </trkpt>
      <trkpt lat="44.09094" lon="7.08575">
        <ele>1094.4300537109</ele>
        <time>2017-06-11T08:08:49Z</time>
      </trkpt>
      <trkpt lat="44.09102" lon="7.08573">
        <ele>1095.8299560547</ele>
        <time>2017-06-11T08:08:54Z</time>
      </trkpt>
      <trkpt lat="44.09109" lon="7.08568">
        <ele>1096.2299804688</ele>
        <time>2017-06-11T08:09:00Z</time>
      </trkpt>
      <trkpt lat="44.09118" lon="7.08566">
        <ele>1096.6300048828</ele>
        <time>2017-06-11T08:09:05Z</time>
      </trkpt>
      <trkpt lat="44.09125" lon="7.08562">
        <ele>1097.6300048828</ele>
        <time>2017-06-11T08:09:10Z</time>
      </trkpt>
      <trkpt lat="44.09132" lon="7.08557">
        <ele>1099.0300292969</ele>
        <time>2017-06-11T08:09:15Z</time>
      </trkpt>
      <trkpt lat="44.09139" lon="7.08556">
        <ele>1100.0300292969</ele>
        <time>2017-06-11T08:09:20Z</time>
      </trkpt>
      <trkpt lat="44.09144" lon="7.08565">
        <ele>1100.9300537109</ele>
        <time>2017-06-11T08:09:26Z</time>
      </trkpt>
      <trkpt lat="44.0914" lon="7.08575">
        <ele>1102.0300292969</ele>
        <time>2017-06-11T08:09:32Z</time>
      </trkpt>
      <trkpt lat="44.09133" lon="7.08583">
        <ele>1099.6300048828</ele>
        <time>2017-06-11T08:09:38Z</time>
      </trkpt>
      <trkpt lat="44.09119" lon="7.08595">
        <ele>1098.5300292969</ele>
        <time>2017-06-11T08:09:46Z</time>
      </trkpt>
      <trkpt lat="44.09106" lon="7.08607">
        <ele>1099.8299560547</ele>
        <time>2017-06-11T08:09:53Z</time>
      </trkpt>
      <trkpt lat="44.09108" lon="7.08628">
        <ele>1103.7309570312</ele>
        <time>2017-06-11T08:09:59Z</time>
      </trkpt>
      <trkpt lat="44.09116" lon="7.08649">
        <ele>1107.1309814453</ele>
        <time>2017-06-11T08:10:07Z</time>
      </trkpt>
      <trkpt lat="44.09122" lon="7.0867">
        <ele>1108.1309814453</ele>
        <time>2017-06-11T08:10:15Z</time>
      </trkpt>
      <trkpt lat="44.09127" lon="7.08691">
        <ele>1107.5310058594</ele>
        <time>2017-06-11T08:10:23Z</time>
      </trkpt>
      <trkpt lat="44.09136" lon="7.0871">
        <ele>1105.6309814453</ele>
        <time>2017-06-11T08:10:31Z</time>
      </trkpt>
      <trkpt lat="44.09151" lon="7.08724">
        <ele>1107.9310302734</ele>
        <time>2017-06-11T08:10:39Z</time>
      </trkpt>
      <trkpt lat="44.09164" lon="7.08739">
        <ele>1109.9310302734</ele>
        <time>2017-06-11T08:10:47Z</time>
      </trkpt>
      <trkpt lat="44.09173" lon="7.0876">
        <ele>1112.1309814453</ele>
        <time>2017-06-11T08:10:55Z</time>
      </trkpt>
      <trkpt lat="44.09177" lon="7.08785">
        <ele>1112.4310302734</ele>
        <time>2017-06-11T08:11:03Z</time>
      </trkpt>
      <trkpt lat="44.0918" lon="7.08806">
        <ele>1113.9310302734</ele>
        <time>2017-06-11T08:11:10Z</time>
      </trkpt>
      <trkpt lat="44.09186" lon="7.08827">
        <ele>1113.6309814453</ele>
        <time>2017-06-11T08:11:17Z</time>
      </trkpt>
      <trkpt lat="44.09191" lon="7.08847">
        <ele>1115.1309814453</ele>
        <time>2017-06-11T08:11:25Z</time>
      </trkpt>
      <trkpt lat="44.09197" lon="7.08868">
        <ele>1115.6309814453</ele>
        <time>2017-06-11T08:11:33Z</time>
      </trkpt>
      <trkpt lat="44.09208" lon="7.08887">
        <ele>1117.3310546875</ele>
        <time>2017-06-11T08:11:41Z</time>
      </trkpt>
      <trkpt lat="44.0922" lon="7.08906">
        <ele>1119.2309570312</ele>
        <time>2017-06-11T08:11:49Z</time>
      </trkpt>
      <trkpt lat="44.09234" lon="7.08917">
        <ele>1120.1309814453</ele>
        <time>2017-06-11T08:11:57Z</time>
      </trkpt>
      <trkpt lat="44.09249" lon="7.08928">
        <ele>1119.0310058594</ele>
        <time>2017-06-11T08:12:05Z</time>
      </trkpt>
      <trkpt lat="44.09264" lon="7.08934">
        <ele>1118.9310302734</ele>
        <time>2017-06-11T08:12:12Z</time>
      </trkpt>
      <trkpt lat="44.0928" lon="7.08942">
        <ele>1118.1309814453</ele>
        <time>2017-06-11T08:12:20Z</time>
      </trkpt>
      <trkpt lat="44.09295" lon="7.08954">
        <ele>1120.8310546875</ele>
        <time>2017-06-11T08:12:28Z</time>
      </trkpt>
      <trkpt lat="44.0931" lon="7.08962">
        <ele>1119.5310058594</ele>
        <time>2017-06-11T08:12:36Z</time>
      </trkpt>
      <trkpt lat="44.09327" lon="7.08968">
        <ele>1122.1319580078</ele>
        <time>2017-06-11T08:12:43Z</time>
      </trkpt>
      <trkpt lat="44.09344" lon="7.08973">
        <ele>1124.2320556641</ele>
        <time>2017-06-11T08:12:51Z</time>
      </trkpt>
      <trkpt lat="44.09359" lon="7.08983">
        <ele>1125.33203125</ele>
        <time>2017-06-11T08:12:59Z</time>
      </trkpt>
      <trkpt lat="44.09373" lon="7.08997">
        <ele>1127.0319824219</ele>
        <time>2017-06-11T08:13:07Z</time>
      </trkpt>
      <trkpt lat="44.09385" lon="7.09015">
        <ele>1130.5319824219</ele>
        <time>2017-06-11T08:13:15Z</time>
      </trkpt>
      <trkpt lat="44.09397" lon="7.09032">
        <ele>1132.4320068359</ele>
        <time>2017-06-11T08:13:23Z</time>
      </trkpt>
      <trkpt lat="44.09409" lon="7.09045">
        <ele>1132.1319580078</ele>
        <time>2017-06-11T08:13:31Z</time>
      </trkpt>
      <trkpt lat="44.09416" lon="7.09053">
        <ele>1132.7320556641</ele>
        <time>2017-06-11T08:13:36Z</time>
      </trkpt>
      <trkpt lat="44.09424" lon="7.09059">
        <ele>1133.6319580078</ele>
        <time>2017-06-11T08:13:41Z</time>
      </trkpt>
      <trkpt lat="44.09438" lon="7.09072">
        <ele>1134.9320068359</ele>
        <time>2017-06-11T08:13:49Z</time>
      </trkpt>
      <trkpt lat="44.09451" lon="7.09084">
        <ele>1137.4320068359</ele>
        <time>2017-06-11T08:13:57Z</time>
      </trkpt>
      <trkpt lat="44.09463" lon="7.091">
        <ele>1138.83203125</ele>
        <time>2017-06-11T08:14:05Z</time>
      </trkpt>
      <trkpt lat="44.09475" lon="7.09119">
        <ele>1140.7320556641</ele>
        <time>2017-06-11T08:14:13Z</time>
      </trkpt>
      <trkpt lat="44.09484" lon="7.09136">
        <ele>1143.83203125</ele>
        <time>2017-06-11T08:14:21Z</time>
      </trkpt>
      <trkpt lat="44.09499" lon="7.09147">
        <ele>1145.5319824219</ele>
        <time>2017-06-11T08:14:30Z</time>
      </trkpt>
      <trkpt lat="44.09507" lon="7.09152">
        <ele>1146.2320556641</ele>
        <time>2017-06-11T08:14:35Z</time>
      </trkpt>
      <trkpt lat="44.09513" lon="7.09159">
        <ele>1146.1319580078</ele>
        <time>2017-06-11T08:14:40Z</time>
      </trkpt>
      <trkpt lat="44.09517" lon="7.09169">
        <ele>1146.4320068359</ele>
        <time>2017-06-11T08:14:45Z</time>
      </trkpt>
      <trkpt lat="44.09522" lon="7.09176">
        <ele>1147.2320556641</ele>
        <time>2017-06-11T08:14:50Z</time>
      </trkpt>
      <trkpt lat="44.0953" lon="7.0918">
        <ele>1147.9320068359</ele>
        <time>2017-06-11T08:14:55Z</time>
      </trkpt>
      <trkpt lat="44.09537" lon="7.09179">
        <ele>1146.7320556641</ele>
        <time>2017-06-11T08:15:01Z</time>
      </trkpt>
      <trkpt lat="44.09544" lon="7.09183">
        <ele>1146.7320556641</ele>
        <time>2017-06-11T08:15:07Z</time>
      </trkpt>
      <trkpt lat="44.09546" lon="7.09194">
        <ele>1147.9320068359</ele>
        <time>2017-06-11T08:15:12Z</time>
      </trkpt>
      <trkpt lat="44.09549" lon="7.09204">
        <ele>1149.1319580078</ele>
        <time>2017-06-11T08:15:17Z</time>
      </trkpt>
      <trkpt lat="44.09557" lon="7.09207">
        <ele>1150.5319824219</ele>
        <time>2017-06-11T08:15:22Z</time>
      </trkpt>
      <trkpt lat="44.09564" lon="7.09206">
        <ele>1151.1319580078</ele>
        <time>2017-06-11T08:15:27Z</time>
      </trkpt>
      <trkpt lat="44.09573" lon="7.09204">
        <ele>1151.9320068359</ele>
        <time>2017-06-11T08:15:32Z</time>
      </trkpt>
      <trkpt lat="44.0958" lon="7.09202">
        <ele>1152.6319580078</ele>
        <time>2017-06-11T08:15:37Z</time>
      </trkpt>
      <trkpt lat="44.09587" lon="7.09199">
        <ele>1153.5319824219</ele>
        <time>2017-06-11T08:15:42Z</time>
      </trkpt>
      <trkpt lat="44.09602" lon="7.09194">
        <ele>1154.9320068359</ele>
        <time>2017-06-11T08:15:51Z</time>
      </trkpt>
      <trkpt lat="44.0961" lon="7.09191">
        <ele>1155.5319824219</ele>
        <time>2017-06-11T08:15:56Z</time>
      </trkpt>
      <trkpt lat="44.09617" lon="7.09187">
        <ele>1156.33203125</ele>
        <time>2017-06-11T08:16:01Z</time>
      </trkpt>
      <trkpt lat="44.09625" lon="7.09186">
        <ele>1156.4320068359</ele>
        <time>2017-06-11T08:16:06Z</time>
      </trkpt>
      <trkpt lat="44.09632" lon="7.09182">
        <ele>1157.5319824219</ele>
        <time>2017-06-11T08:16:11Z</time>
      </trkpt>
      <trkpt lat="44.09639" lon="7.09178">
        <ele>1158.7320556641</ele>
        <time>2017-06-11T08:16:16Z</time>
      </trkpt>
      <trkpt lat="44.09647" lon="7.09173">
        <ele>1160.1319580078</ele>
        <time>2017-06-11T08:16:22Z</time>
      </trkpt>
      <trkpt lat="44.09654" lon="7.09168">
        <ele>1160.83203125</ele>
        <time>2017-06-11T08:16:27Z</time>
      </trkpt>
      <trkpt lat="44.09662" lon="7.09162">
        <ele>1161.5319824219</ele>
        <time>2017-06-11T08:16:32Z</time>
      </trkpt>
      <trkpt lat="44.09668" lon="7.09156">
        <ele>1162.4320068359</ele>
        <time>2017-06-11T08:16:37Z</time>
      </trkpt>
      <trkpt lat="44.09682" lon="7.09145">
        <ele>1164.83203125</ele>
        <time>2017-06-11T08:16:46Z</time>
      </trkpt>
      <trkpt lat="44.09689" lon="7.09138">
        <ele>1165.9320068359</ele>
        <time>2017-06-11T08:16:51Z</time>
      </trkpt>
      <trkpt lat="44.09696" lon="7.09131">
        <ele>1166.9320068359</ele>
        <time>2017-06-11T08:16:56Z</time>
      </trkpt>
      <trkpt lat="44.09703" lon="7.09125">
        <ele>1167.4320068359</ele>
        <time>2017-06-11T08:17:01Z</time>
      </trkpt>
      <trkpt lat="44.09717" lon="7.09116">
        <ele>1168.5319824219</ele>
        <time>2017-06-11T08:17:09Z</time>
      </trkpt>
      <trkpt lat="44.0973" lon="7.09104">
        <ele>1170.1319580078</ele>
        <time>2017-06-11T08:17:18Z</time>
      </trkpt>
      <trkpt lat="44.09731" lon="7.09091">
        <ele>1173.1319580078</ele>
        <time>2017-06-11T08:17:30Z</time>
      </trkpt>
      <trkpt lat="44.09717" lon="7.09102">
        <ele>1175.2320556641</ele>
        <time>2017-06-11T08:17:37Z</time>
      </trkpt>
      <trkpt lat="44.09708" lon="7.09105">
        <ele>1175.9320068359</ele>
        <time>2017-06-11T08:17:42Z</time>
      </trkpt>
      <trkpt lat="44.0969" lon="7.09108">
        <ele>1178.83203125</ele>
        <time>2017-06-11T08:17:50Z</time>
      </trkpt>
      <trkpt lat="44.09675" lon="7.09117">
        <ele>1182.2320556641</ele>
        <time>2017-06-11T08:17:58Z</time>
      </trkpt>
      <trkpt lat="44.09658" lon="7.09125">
        <ele>1181.9320068359</ele>
        <time>2017-06-11T08:18:06Z</time>
      </trkpt>
      <trkpt lat="44.09642" lon="7.09132">
        <ele>1182.5319824219</ele>
        <time>2017-06-11T08:18:13Z</time>
      </trkpt>
      <trkpt lat="44.09625" lon="7.09139">
        <ele>1183.7320556641</ele>
        <time>2017-06-11T08:18:20Z</time>
      </trkpt>
      <trkpt lat="44.0961" lon="7.09133">
        <ele>1186.4320068359</ele>
        <time>2017-06-11T08:18:29Z</time>
      </trkpt>
      <trkpt lat="44.09619" lon="7.09128">
        <ele>1183.9320068359</ele>
        <time>2017-06-11T08:18:34Z</time>
      </trkpt>
      <trkpt lat="44.09635" lon="7.09123">
        <ele>1179.9320068359</ele>
        <time>2017-06-11T08:18:42Z</time>
      </trkpt>
      <trkpt lat="44.0965" lon="7.09112">
        <ele>1179.2320556641</ele>
        <time>2017-06-11T08:18:49Z</time>
      </trkpt>
      <trkpt lat="44.09665" lon="7.09099">
        <ele>1181.1319580078</ele>
        <time>2017-06-11T08:18:56Z</time>
      </trkpt>
      <trkpt lat="44.09678" lon="7.09085">
        <ele>1182.6319580078</ele>
        <time>2017-06-11T08:19:03Z</time>
      </trkpt>
      <trkpt lat="44.0969" lon="7.09071">
        <ele>1184.33203125</ele>
        <time>2017-06-11T08:19:11Z</time>
      </trkpt>
      <trkpt lat="44.09698" lon="7.09066">
        <ele>1185.1319580078</ele>
        <time>2017-06-11T08:19:16Z</time>
      </trkpt>
      <trkpt lat="44.09713" lon="7.09058">
        <ele>1185.6319580078</ele>
        <time>2017-06-11T08:19:25Z</time>
      </trkpt>
      <trkpt lat="44.0972" lon="7.09054">
        <ele>1185.9320068359</ele>
        <time>2017-06-11T08:19:30Z</time>
      </trkpt>
      <trkpt lat="44.09733" lon="7.09042">
        <ele>1188.0319824219</ele>
        <time>2017-06-11T08:19:38Z</time>
      </trkpt>
      <trkpt lat="44.09746" lon="7.0903">
        <ele>1190.4320068359</ele>
        <time>2017-06-11T08:19:46Z</time>
      </trkpt>
      <trkpt lat="44.09759" lon="7.09017">
        <ele>1191.5319824219</ele>
        <time>2017-06-11T08:19:54Z</time>
      </trkpt>
      <trkpt lat="44.09772" lon="7.09004">
        <ele>1191.0319824219</ele>
        <time>2017-06-11T08:20:01Z</time>
      </trkpt>
      <trkpt lat="44.09764" lon="7.09006">
        <ele>1193.2320556641</ele>
        <time>2017-06-11T08:20:06Z</time>
      </trkpt>
      <trkpt lat="44.09751" lon="7.0902">
        <ele>1195.2320556641</ele>
        <time>2017-06-11T08:20:13Z</time>
      </trkpt>
      <trkpt lat="44.09735" lon="7.09028">
        <ele>1198.4320068359</ele>
        <time>2017-06-11T08:20:21Z</time>
      </trkpt>
      <trkpt lat="44.09718" lon="7.09029">
        <ele>1199.9320068359</ele>
        <time>2017-06-11T08:20:30Z</time>
      </trkpt>
      <trkpt lat="44.09702" lon="7.09034">
        <ele>1200.1319580078</ele>
        <time>2017-06-11T08:20:38Z</time>
      </trkpt>
      <trkpt lat="44.09694" lon="7.09034">
        <ele>1200.7320556641</ele>
        <time>2017-06-11T08:20:44Z</time>
      </trkpt>
      <trkpt lat="44.09685" lon="7.09037">
        <ele>1201.4320068359</ele>
        <time>2017-06-11T08:20:49Z</time>
      </trkpt>
      <trkpt lat="44.0967" lon="7.09044">
        <ele>1203.83203125</ele>
        <time>2017-06-11T08:20:58Z</time>
      </trkpt>
      <trkpt lat="44.09662" lon="7.09045">
        <ele>1204.33203125</ele>
        <time>2017-06-11T08:21:03Z</time>
      </trkpt>
      <trkpt lat="44.09656" lon="7.09039">
        <ele>1204.2320556641</ele>
        <time>2017-06-11T08:21:08Z</time>
      </trkpt>
      <trkpt lat="44.09652" lon="7.09029">
        <ele>1203.5319824219</ele>
        <time>2017-06-11T08:21:13Z</time>
      </trkpt>
      <trkpt lat="44.09636" lon="7.09024">
        <ele>1205.2320556641</ele>
        <time>2017-06-11T08:21:22Z</time>
      </trkpt>
      <trkpt lat="44.09628" lon="7.09023">
        <ele>1206.5319824219</ele>
        <time>2017-06-11T08:21:27Z</time>
      </trkpt>
      <trkpt lat="44.09613" lon="7.09017">
        <ele>1207.0319824219</ele>
        <time>2017-06-11T08:21:35Z</time>
      </trkpt>
      <trkpt lat="44.09606" lon="7.09013">
        <ele>1208.5319824219</ele>
        <time>2017-06-11T08:21:40Z</time>
      </trkpt>
      <trkpt lat="44.09598" lon="7.09008">
        <ele>1209.5319824219</ele>
        <time>2017-06-11T08:21:45Z</time>
      </trkpt>
      <trkpt lat="44.09591" lon="7.09">
        <ele>1209.33203125</ele>
        <time>2017-06-11T08:21:50Z</time>
      </trkpt>
      <trkpt lat="44.09584" lon="7.08993">
        <ele>1209.9320068359</ele>
        <time>2017-06-11T08:21:55Z</time>
      </trkpt>
      <trkpt lat="44.09578" lon="7.08985">
        <ele>1210.0319824219</ele>
        <time>2017-06-11T08:22:01Z</time>
      </trkpt>
      <trkpt lat="44.09571" lon="7.08979">
        <ele>1211.33203125</ele>
        <time>2017-06-11T08:22:06Z</time>
      </trkpt>
      <trkpt lat="44.09556" lon="7.08971">
        <ele>1212.5319824219</ele>
        <time>2017-06-11T08:22:14Z</time>
      </trkpt>
      <trkpt lat="44.09548" lon="7.08958">
        <ele>1215.2320556641</ele>
        <time>2017-06-11T08:22:23Z</time>
      </trkpt>
      <trkpt lat="44.09556" lon="7.08959">
        <ele>1216.7320556641</ele>
        <time>2017-06-11T08:22:29Z</time>
      </trkpt>
      <trkpt lat="44.09572" lon="7.08961">
        <ele>1216.4320068359</ele>
        <time>2017-06-11T08:22:38Z</time>
      </trkpt>
      <trkpt lat="44.0958" lon="7.08961">
        <ele>1216.1319580078</ele>
        <time>2017-06-11T08:22:43Z</time>
      </trkpt>
      <trkpt lat="44.09587" lon="7.08956">
        <ele>1215.33203125</ele>
        <time>2017-06-11T08:22:48Z</time>
      </trkpt>
      <trkpt lat="44.09602" lon="7.0895">
        <ele>1214.0319824219</ele>
        <time>2017-06-11T08:22:58Z</time>
      </trkpt>
      <trkpt lat="44.0961" lon="7.08947">
        <ele>1213.1319580078</ele>
        <time>2017-06-11T08:23:04Z</time>
      </trkpt>
      <trkpt lat="44.09625" lon="7.08937">
        <ele>1212.6319580078</ele>
        <time>2017-06-11T08:23:11Z</time>
      </trkpt>
      <trkpt lat="44.09642" lon="7.0893">
        <ele>1213.0319824219</ele>
        <time>2017-06-11T08:23:20Z</time>
      </trkpt>
      <trkpt lat="44.0965" lon="7.0893">
        <ele>1214.6319580078</ele>
        <time>2017-06-11T08:23:26Z</time>
      </trkpt>
      <trkpt lat="44.09659" lon="7.08926">
        <ele>1216.7320556641</ele>
        <time>2017-06-11T08:23:32Z</time>
      </trkpt>
      <trkpt lat="44.09673" lon="7.08917">
        <ele>1219.1319580078</ele>
        <time>2017-06-11T08:23:41Z</time>
      </trkpt>
      <trkpt lat="44.09682" lon="7.08915">
        <ele>1220.5319824219</ele>
        <time>2017-06-11T08:23:46Z</time>
      </trkpt>
      <trkpt lat="44.09691" lon="7.08915">
        <ele>1221.5319824219</ele>
        <time>2017-06-11T08:23:51Z</time>
      </trkpt>
      <trkpt lat="44.09706" lon="7.08911">
        <ele>1223.4320068359</ele>
        <time>2017-06-11T08:24:00Z</time>
      </trkpt>
      <trkpt lat="44.09714" lon="7.08906">
        <ele>1224.9320068359</ele>
        <time>2017-06-11T08:24:05Z</time>
      </trkpt>
      <trkpt lat="44.09729" lon="7.08898">
        <ele>1227.9320068359</ele>
        <time>2017-06-11T08:24:14Z</time>
      </trkpt>
      <trkpt lat="44.09744" lon="7.08888">
        <ele>1230.4320068359</ele>
        <time>2017-06-11T08:24:23Z</time>
      </trkpt>
      <trkpt lat="44.09752" lon="7.08885">
        <ele>1231.33203125</ele>
        <time>2017-06-11T08:24:28Z</time>
      </trkpt>
      <trkpt lat="44.0976" lon="7.0888">
        <ele>1232.2320556641</ele>
        <time>2017-06-11T08:24:33Z</time>
      </trkpt>
      <trkpt lat="44.09774" lon="7.0887">
        <ele>1233.4320068359</ele>
        <time>2017-06-11T08:24:41Z</time>
      </trkpt>
      <trkpt lat="44.09781" lon="7.08863">
        <ele>1234.7320556641</ele>
        <time>2017-06-11T08:24:46Z</time>
      </trkpt>
      <trkpt lat="44.09795" lon="7.08852">
        <ele>1236.9320068359</ele>
        <time>2017-06-11T08:24:54Z</time>
      </trkpt>
      <trkpt lat="44.09807" lon="7.08836">
        <ele>1239.9320068359</ele>
        <time>2017-06-11T08:25:03Z</time>
      </trkpt>
      <trkpt lat="44.09815" lon="7.08839">
        <ele>1242.2320556641</ele>
        <time>2017-06-11T08:25:09Z</time>
      </trkpt>
      <trkpt lat="44.09829" lon="7.08847">
        <ele>1242.33203125</ele>
        <time>2017-06-11T08:25:18Z</time>
      </trkpt>
      <trkpt lat="44.09837" lon="7.0885">
        <ele>1242.6319580078</ele>
        <time>2017-06-11T08:25:23Z</time>
      </trkpt>
      <trkpt lat="44.09845" lon="7.08851">
        <ele>1242.83203125</ele>
        <time>2017-06-11T08:25:28Z</time>
      </trkpt>
      <trkpt lat="44.09853" lon="7.08851">
        <ele>1242.33203125</ele>
        <time>2017-06-11T08:25:33Z</time>
      </trkpt>
      <trkpt lat="44.09861" lon="7.0885">
        <ele>1242.9320068359</ele>
        <time>2017-06-11T08:25:38Z</time>
      </trkpt>
      <trkpt lat="44.09868" lon="7.08847">
        <ele>1243.2320556641</ele>
        <time>2017-06-11T08:25:43Z</time>
      </trkpt>
      <trkpt lat="44.09884" lon="7.08842">
        <ele>1245.4320068359</ele>
        <time>2017-06-11T08:25:53Z</time>
      </trkpt>
      <trkpt lat="44.09891" lon="7.08836">
        <ele>1247.1319580078</ele>
        <time>2017-06-11T08:25:58Z</time>
      </trkpt>
      <trkpt lat="44.09898" lon="7.08831">
        <ele>1250.1319580078</ele>
        <time>2017-06-11T08:26:05Z</time>
      </trkpt>
      <trkpt lat="44.09905" lon="7.08825">
        <ele>1251.83203125</ele>
        <time>2017-06-11T08:26:10Z</time>
      </trkpt>
      <trkpt lat="44.0992" lon="7.08816">
        <ele>1253.5319824219</ele>
        <time>2017-06-11T08:26:19Z</time>
      </trkpt>
      <trkpt lat="44.09931" lon="7.0883">
        <ele>1256.0319824219</ele>
        <time>2017-06-11T08:26:28Z</time>
      </trkpt>
      <trkpt lat="44.09935" lon="7.08841">
        <ele>1257.2320556641</ele>
        <time>2017-06-11T08:26:33Z</time>
      </trkpt>
      <trkpt lat="44.09942" lon="7.08846">
        <ele>1258.33203125</ele>
        <time>2017-06-11T08:26:39Z</time>
      </trkpt>
      <trkpt lat="44.09949" lon="7.08851">
        <ele>1259.7320556641</ele>
        <time>2017-06-11T08:26:44Z</time>
      </trkpt>
      <trkpt lat="44.09957" lon="7.08852">
        <ele>1259.7320556641</ele>
        <time>2017-06-11T08:26:50Z</time>
      </trkpt>
      <trkpt lat="44.09967" lon="7.08848">
        <ele>1260.4320068359</ele>
        <time>2017-06-11T08:26:55Z</time>
      </trkpt>
      <trkpt lat="44.09982" lon="7.08841">
        <ele>1260.83203125</ele>
        <time>2017-06-11T08:27:05Z</time>
      </trkpt>
      <trkpt lat="44.0999" lon="7.08839">
        <ele>1261.1319580078</ele>
        <time>2017-06-11T08:27:10Z</time>
      </trkpt>
      <trkpt lat="44.09998" lon="7.08831">
        <ele>1261.2320556641</ele>
        <time>2017-06-11T08:27:15Z</time>
      </trkpt>
      <trkpt lat="44.10012" lon="7.08819">
        <ele>1262.0319824219</ele>
        <time>2017-06-11T08:27:24Z</time>
      </trkpt>
      <trkpt lat="44.10018" lon="7.08815">
        <ele>1262.6319580078</ele>
        <time>2017-06-11T08:27:29Z</time>
      </trkpt>
      <trkpt lat="44.10025" lon="7.08809">
        <ele>1264.0319824219</ele>
        <time>2017-06-11T08:27:34Z</time>
      </trkpt>
      <trkpt lat="44.10032" lon="7.08804">
        <ele>1265.1319580078</ele>
        <time>2017-06-11T08:27:39Z</time>
      </trkpt>
      <trkpt lat="44.10038" lon="7.08798">
        <ele>1266.1319580078</ele>
        <time>2017-06-11T08:27:44Z</time>
      </trkpt>
      <trkpt lat="44.10044" lon="7.08793">
        <ele>1267.1319580078</ele>
        <time>2017-06-11T08:27:49Z</time>
      </trkpt>
      <trkpt lat="44.10051" lon="7.08786">
        <ele>1268.5319824219</ele>
        <time>2017-06-11T08:27:54Z</time>
      </trkpt>
      <trkpt lat="44.10058" lon="7.0878">
        <ele>1268.83203125</ele>
        <time>2017-06-11T08:27:59Z</time>
      </trkpt>
      <trkpt lat="44.10064" lon="7.08775">
        <ele>1270.1319580078</ele>
        <time>2017-06-11T08:28:05Z</time>
      </trkpt>
      <trkpt lat="44.1007" lon="7.08769">
        <ele>1270.9320068359</ele>
        <time>2017-06-11T08:28:11Z</time>
      </trkpt>
      <trkpt lat="44.10076" lon="7.08764">
        <ele>1271.9320068359</ele>
        <time>2017-06-11T08:28:17Z</time>
      </trkpt>
      <trkpt lat="44.10084" lon="7.08766">
        <ele>1273.0319824219</ele>
        <time>2017-06-11T08:28:24Z</time>
      </trkpt>
      <trkpt lat="44.10093" lon="7.08765">
        <ele>1273.6319580078</ele>
        <time>2017-06-11T08:28:31Z</time>
      </trkpt>
      <trkpt lat="44.101" lon="7.08768">
        <ele>1274.83203125</ele>
        <time>2017-06-11T08:28:37Z</time>
      </trkpt>
      <trkpt lat="44.10108" lon="7.08772">
        <ele>1275.5319824219</ele>
        <time>2017-06-11T08:28:43Z</time>
      </trkpt>
      <trkpt lat="44.10116" lon="7.08776">
        <ele>1276.1319580078</ele>
        <time>2017-06-11T08:28:48Z</time>
      </trkpt>
      <trkpt lat="44.10131" lon="7.08784">
        <ele>1277.4320068359</ele>
        <time>2017-06-11T08:28:55Z</time>
      </trkpt>
      <trkpt lat="44.10139" lon="7.08788">
        <ele>1277.7320556641</ele>
        <time>2017-06-11T08:29:00Z</time>
      </trkpt>
      <trkpt lat="44.10155" lon="7.08786">
        <ele>1280.6319580078</ele>
        <time>2017-06-11T08:29:11Z</time>
      </trkpt>
      <trkpt lat="44.10167" lon="7.08774">
        <ele>1284.5319824219</ele>
        <time>2017-06-11T08:29:20Z</time>
      </trkpt>
      <trkpt lat="44.10179" lon="7.08758">
        <ele>1288.0319824219</ele>
        <time>2017-06-11T08:29:28Z</time>
      </trkpt>
      <trkpt lat="44.10184" lon="7.0875">
        <ele>1290.0319824219</ele>
        <time>2017-06-11T08:29:33Z</time>
      </trkpt>
      <trkpt lat="44.10189" lon="7.0874">
        <ele>1291.7320556641</ele>
        <time>2017-06-11T08:29:38Z</time>
      </trkpt>
      <trkpt lat="44.102" lon="7.08725">
        <ele>1294.83203125</ele>
        <time>2017-06-11T08:29:48Z</time>
      </trkpt>
      <trkpt lat="44.10207" lon="7.08703">
        <ele>1295.1319580078</ele>
        <time>2017-06-11T08:29:57Z</time>
      </trkpt>
      <trkpt lat="44.1021" lon="7.08694">
        <ele>1294.6319580078</ele>
        <time>2017-06-11T08:30:02Z</time>
      </trkpt>
      <trkpt lat="44.10211" lon="7.08683">
        <ele>1294.9320068359</ele>
        <time>2017-06-11T08:30:10Z</time>
      </trkpt>
      <trkpt lat="44.10214" lon="7.08674">
        <ele>1295.1319580078</ele>
        <time>2017-06-11T08:30:16Z</time>
      </trkpt>
      <trkpt lat="44.10222" lon="7.08655">
        <ele>1296.6319580078</ele>
        <time>2017-06-11T08:30:27Z</time>
      </trkpt>
      <trkpt lat="44.1023" lon="7.08638">
        <ele>1298.0319824219</ele>
        <time>2017-06-11T08:30:36Z</time>
      </trkpt>
      <trkpt lat="44.10233" lon="7.08629">
        <ele>1299.6319580078</ele>
        <time>2017-06-11T08:30:41Z</time>
      </trkpt>
      <trkpt lat="44.1024" lon="7.08622">
        <ele>1300.7320556641</ele>
        <time>2017-06-11T08:30:46Z</time>
      </trkpt>
      <trkpt lat="44.10244" lon="7.08613">
        <ele>1302.0319824219</ele>
        <time>2017-06-11T08:30:51Z</time>
      </trkpt>
      <trkpt lat="44.10249" lon="7.08603">
        <ele>1303.5319824219</ele>
        <time>2017-06-11T08:30:56Z</time>
      </trkpt>
      <trkpt lat="44.10262" lon="7.08593">
        <ele>1306.2320556641</ele>
        <time>2017-06-11T08:31:05Z</time>
      </trkpt>
      <trkpt lat="44.10279" lon="7.08588">
        <ele>1307.7320556641</ele>
        <time>2017-06-11T08:31:14Z</time>
      </trkpt>
      <trkpt lat="44.10293" lon="7.08582">
        <ele>1307.6319580078</ele>
        <time>2017-06-11T08:31:21Z</time>
      </trkpt>
      <trkpt lat="44.10308" lon="7.08575">
        <ele>1306.7320556641</ele>
        <time>2017-06-11T08:31:29Z</time>
      </trkpt>
      <trkpt lat="44.10322" lon="7.08562">
        <ele>1308.2320556641</ele>
        <time>2017-06-11T08:31:37Z</time>
      </trkpt>
      <trkpt lat="44.10333" lon="7.08547">
        <ele>1309.4320068359</ele>
        <time>2017-06-11T08:31:45Z</time>
      </trkpt>
      <trkpt lat="44.10346" lon="7.08533">
        <ele>1309.9320068359</ele>
        <time>2017-06-11T08:31:54Z</time>
      </trkpt>
      <trkpt lat="44.10353" lon="7.08529">
        <ele>1311.5319824219</ele>
        <time>2017-06-11T08:32:01Z</time>
      </trkpt>
      <trkpt lat="44.10361" lon="7.08524">
        <ele>1312.0319824219</ele>
        <time>2017-06-11T08:32:06Z</time>
      </trkpt>
      <trkpt lat="44.10367" lon="7.08517">
        <ele>1313.7320556641</ele>
        <time>2017-06-11T08:32:13Z</time>
      </trkpt>
      <trkpt lat="44.10373" lon="7.08511">
        <ele>1316.1319580078</ele>
        <time>2017-06-11T08:32:20Z</time>
      </trkpt>
      <trkpt lat="44.1038" lon="7.08508">
        <ele>1316.6319580078</ele>
        <time>2017-06-11T08:32:26Z</time>
      </trkpt>
      <trkpt lat="44.10387" lon="7.08499">
        <ele>1316.6319580078</ele>
        <time>2017-06-11T08:32:31Z</time>
      </trkpt>
      <trkpt lat="44.10393" lon="7.08492">
        <ele>1316.7320556641</ele>
        <time>2017-06-11T08:32:37Z</time>
      </trkpt>
      <trkpt lat="44.10398" lon="7.08484">
        <ele>1316.4320068359</ele>
        <time>2017-06-11T08:32:45Z</time>
      </trkpt>
      <trkpt lat="44.10404" lon="7.08476">
        <ele>1316.6319580078</ele>
        <time>2017-06-11T08:32:51Z</time>
      </trkpt>
      <trkpt lat="44.10409" lon="7.08468">
        <ele>1316.7320556641</ele>
        <time>2017-06-11T08:32:57Z</time>
      </trkpt>
      <trkpt lat="44.10415" lon="7.0846">
        <ele>1316.33203125</ele>
        <time>2017-06-11T08:33:02Z</time>
      </trkpt>
      <trkpt lat="44.10421" lon="7.08453">
        <ele>1316.5319824219</ele>
        <time>2017-06-11T08:33:08Z</time>
      </trkpt>
      <trkpt lat="44.10427" lon="7.08443">
        <ele>1317.4320068359</ele>
        <time>2017-06-11T08:33:17Z</time>
      </trkpt>
      <trkpt lat="44.10431" lon="7.08435">
        <ele>1317.83203125</ele>
        <time>2017-06-11T08:33:23Z</time>
      </trkpt>
      <trkpt lat="44.10436" lon="7.08427">
        <ele>1318.5319824219</ele>
        <time>2017-06-11T08:33:28Z</time>
      </trkpt>
      <trkpt lat="44.10441" lon="7.08419">
        <ele>1319.2320556641</ele>
        <time>2017-06-11T08:33:33Z</time>
      </trkpt>
      <trkpt lat="44.10451" lon="7.08402">
        <ele>1320.2320556641</ele>
        <time>2017-06-11T08:33:42Z</time>
      </trkpt>
      <trkpt lat="44.10462" lon="7.08384">
        <ele>1321.4320068359</ele>
        <time>2017-06-11T08:33:50Z</time>
      </trkpt>
      <trkpt lat="44.10466" lon="7.08374">
        <ele>1322.6319580078</ele>
        <time>2017-06-11T08:33:55Z</time>
      </trkpt>
      <trkpt lat="44.10471" lon="7.08364">
        <ele>1323.9320068359</ele>
        <time>2017-06-11T08:34:02Z</time>
      </trkpt>
      <trkpt lat="44.10475" lon="7.08355">
        <ele>1324.2320556641</ele>
        <time>2017-06-11T08:34:08Z</time>
      </trkpt>
      <trkpt lat="44.10479" lon="7.08347">
        <ele>1324.7320556641</ele>
        <time>2017-06-11T08:34:13Z</time>
      </trkpt>
      <trkpt lat="44.10481" lon="7.08335">
        <ele>1325.5319824219</ele>
        <time>2017-06-11T08:34:18Z</time>
      </trkpt>
      <trkpt lat="44.10484" lon="7.08326">
        <ele>1326.4320068359</ele>
        <time>2017-06-11T08:34:23Z</time>
      </trkpt>
      <trkpt lat="44.1049" lon="7.08318">
        <ele>1327.5319824219</ele>
        <time>2017-06-11T08:34:29Z</time>
      </trkpt>
      <trkpt lat="44.10496" lon="7.0831">
        <ele>1329.4320068359</ele>
        <time>2017-06-11T08:34:34Z</time>
      </trkpt>
      <trkpt lat="44.105" lon="7.08299">
        <ele>1330.6319580078</ele>
        <time>2017-06-11T08:34:41Z</time>
      </trkpt>
      <trkpt lat="44.10506" lon="7.08295">
        <ele>1331.5319824219</ele>
        <time>2017-06-11T08:34:46Z</time>
      </trkpt>
      <trkpt lat="44.10512" lon="7.08287">
        <ele>1332.7320556641</ele>
        <time>2017-06-11T08:34:52Z</time>
      </trkpt>
      <trkpt lat="44.10517" lon="7.08278">
        <ele>1333.9320068359</ele>
        <time>2017-06-11T08:34:57Z</time>
      </trkpt>
      <trkpt lat="44.10524" lon="7.0827">
        <ele>1335.0319824219</ele>
        <time>2017-06-11T08:35:02Z</time>
      </trkpt>
      <trkpt lat="44.10529" lon="7.08261">
        <ele>1336.1319580078</ele>
        <time>2017-06-11T08:35:09Z</time>
      </trkpt>
      <trkpt lat="44.10536" lon="7.08254">
        <ele>1336.83203125</ele>
        <time>2017-06-11T08:35:15Z</time>
      </trkpt>
      <trkpt lat="44.1054" lon="7.08244">
        <ele>1337.7320556641</ele>
        <time>2017-06-11T08:35:21Z</time>
      </trkpt>
      <trkpt lat="44.10545" lon="7.08236">
        <ele>1338.5319824219</ele>
        <time>2017-06-11T08:35:26Z</time>
      </trkpt>
      <trkpt lat="44.10548" lon="7.08226">
        <ele>1339.6319580078</ele>
        <time>2017-06-11T08:35:31Z</time>
      </trkpt>
      <trkpt lat="44.10549" lon="7.08215">
        <ele>1340.33203125</ele>
        <time>2017-06-11T08:35:36Z</time>
      </trkpt>
      <trkpt lat="44.10559" lon="7.08199">
        <ele>1341.4320068359</ele>
        <time>2017-06-11T08:35:45Z</time>
      </trkpt>
      <trkpt lat="44.10563" lon="7.08189">
        <ele>1341.83203125</ele>
        <time>2017-06-11T08:35:51Z</time>
      </trkpt>
      <trkpt lat="44.10569" lon="7.08181">
        <ele>1342.33203125</ele>
        <time>2017-06-11T08:35:56Z</time>
      </trkpt>
      <trkpt lat="44.10571" lon="7.0817">
        <ele>1342.9320068359</ele>
        <time>2017-06-11T08:36:01Z</time>
      </trkpt>
      <trkpt lat="44.10576" lon="7.08149">
        <ele>1344.6319580078</ele>
        <time>2017-06-11T08:36:11Z</time>
      </trkpt>
      <trkpt lat="44.10586" lon="7.08132">
        <ele>1345.2320556641</ele>
        <time>2017-06-11T08:36:18Z</time>
      </trkpt>
      <trkpt lat="44.10593" lon="7.08114">
        <ele>1345.0319824219</ele>
        <time>2017-06-11T08:36:26Z</time>
      </trkpt>
      <trkpt lat="44.10602" lon="7.08097">
        <ele>1345.1319580078</ele>
        <time>2017-06-11T08:36:33Z</time>
      </trkpt>
      <trkpt lat="44.1061" lon="7.08077">
        <ele>1343.4320068359</ele>
        <time>2017-06-11T08:36:42Z</time>
      </trkpt>
      <trkpt lat="44.10619" lon="7.08056">
        <ele>1344.1319580078</ele>
        <time>2017-06-11T08:36:50Z</time>
      </trkpt>
      <trkpt lat="44.10629" lon="7.08038">
        <ele>1345.5319824219</ele>
        <time>2017-06-11T08:36:57Z</time>
      </trkpt>
      <trkpt lat="44.10638" lon="7.08019">
        <ele>1345.4320068359</ele>
        <time>2017-06-11T08:37:04Z</time>
      </trkpt>
      <trkpt lat="44.10647" lon="7.08">
        <ele>1346.9320068359</ele>
        <time>2017-06-11T08:37:10Z</time>
      </trkpt>
      <trkpt lat="44.10655" lon="7.0798">
        <ele>1347.5319824219</ele>
        <time>2017-06-11T08:37:16Z</time>
      </trkpt>
      <trkpt lat="44.10663" lon="7.07962">
        <ele>1347.2309570312</ele>
        <time>2017-06-11T08:37:22Z</time>
      </trkpt>
      <trkpt lat="44.10671" lon="7.07941">
        <ele>1347.8310546875</ele>
        <time>2017-06-11T08:37:29Z</time>
      </trkpt>
      <trkpt lat="44.10684" lon="7.07921">
        <ele>1348.4310302734</ele>
        <time>2017-06-11T08:37:36Z</time>
      </trkpt>
      <trkpt lat="44.1069" lon="7.07898">
        <ele>1349.6309814453</ele>
        <time>2017-06-11T08:37:42Z</time>
      </trkpt>
      <trkpt lat="44.10696" lon="7.07877">
        <ele>1351.2309570312</ele>
        <time>2017-06-11T08:37:49Z</time>
      </trkpt>
      <trkpt lat="44.10704" lon="7.07853">
        <ele>1351.4310302734</ele>
        <time>2017-06-11T08:37:55Z</time>
      </trkpt>
      <trkpt lat="44.1071" lon="7.07833">
        <ele>1351.0310058594</ele>
        <time>2017-06-11T08:38:01Z</time>
      </trkpt>
      <trkpt lat="44.10717" lon="7.07813">
        <ele>1350.6309814453</ele>
        <time>2017-06-11T08:38:06Z</time>
      </trkpt>
      <trkpt lat="44.10723" lon="7.07792">
        <ele>1350.2309570312</ele>
        <time>2017-06-11T08:38:11Z</time>
      </trkpt>
      <trkpt lat="44.10727" lon="7.07769">
        <ele>1351.1309814453</ele>
        <time>2017-06-11T08:38:19Z</time>
      </trkpt>
      <trkpt lat="44.10737" lon="7.07739">
        <ele>1353.9310302734</ele>
        <time>2017-06-11T08:38:25Z</time>
      </trkpt>
      <trkpt lat="44.10755" lon="7.07711">
        <ele>1356.3310546875</ele>
        <time>2017-06-11T08:38:31Z</time>
      </trkpt>
      <trkpt lat="44.10769" lon="7.07695">
        <ele>1355.6309814453</ele>
        <time>2017-06-11T08:38:36Z</time>
      </trkpt>
      <trkpt lat="44.1078" lon="7.07679">
        <ele>1354.3310546875</ele>
        <time>2017-06-11T08:38:43Z</time>
      </trkpt>
      <trkpt lat="44.10786" lon="7.07672">
        <ele>1354.8310546875</ele>
        <time>2017-06-11T08:38:45Z</time>
      </trkpt>
      <trkpt lat="44.10798" lon="7.07651">
        <ele>1353.1309814453</ele>
        <time>2017-06-11T08:38:51Z</time>
      </trkpt>
      <trkpt lat="44.10812" lon="7.07633">
        <ele>1353.1309814453</ele>
        <time>2017-06-11T08:38:58Z</time>
      </trkpt>
      <trkpt lat="44.10826" lon="7.07617">
        <ele>1352.1309814453</ele>
        <time>2017-06-11T08:39:04Z</time>
      </trkpt>
      <trkpt lat="44.10836" lon="7.07608">
        <ele>1352.7309570312</ele>
        <time>2017-06-11T08:39:06Z</time>
      </trkpt>
      <trkpt lat="44.10854" lon="7.07582">
        <ele>1354.6309814453</ele>
        <time>2017-06-11T08:39:12Z</time>
      </trkpt>
      <trkpt lat="44.10867" lon="7.07561">
        <ele>1354.9310302734</ele>
        <time>2017-06-11T08:39:17Z</time>
      </trkpt>
      <trkpt lat="44.10879" lon="7.07537">
        <ele>1356.6309814453</ele>
        <time>2017-06-11T08:39:24Z</time>
      </trkpt>
      <trkpt lat="44.10894" lon="7.07523">
        <ele>1356.7309570312</ele>
        <time>2017-06-11T08:39:29Z</time>
      </trkpt>
      <trkpt lat="44.10905" lon="7.07505">
        <ele>1358.3310546875</ele>
        <time>2017-06-11T08:39:35Z</time>
      </trkpt>
      <trkpt lat="44.10916" lon="7.07488">
        <ele>1358.9310302734</ele>
        <time>2017-06-11T08:39:40Z</time>
      </trkpt>
      <trkpt lat="44.10927" lon="7.0747">
        <ele>1359.1309814453</ele>
        <time>2017-06-11T08:39:45Z</time>
      </trkpt>
      <trkpt lat="44.10936" lon="7.0745">
        <ele>1358.2309570312</ele>
        <time>2017-06-11T08:39:51Z</time>
      </trkpt>
      <trkpt lat="44.10945" lon="7.07431">
        <ele>1358.9310302734</ele>
        <time>2017-06-11T08:39:57Z</time>
      </trkpt>
      <trkpt lat="44.10951" lon="7.0742">
        <ele>1360.4310302734</ele>
        <time>2017-06-11T08:40:02Z</time>
      </trkpt>
      <trkpt lat="44.10962" lon="7.07404">
        <ele>1360.5310058594</ele>
        <time>2017-06-11T08:40:10Z</time>
      </trkpt>
      <trkpt lat="44.10968" lon="7.07397">
        <ele>1360.5310058594</ele>
        <time>2017-06-11T08:40:15Z</time>
      </trkpt>
      <trkpt lat="44.10979" lon="7.07383">
        <ele>1360.8310546875</ele>
        <time>2017-06-11T08:40:21Z</time>
      </trkpt>
      <trkpt lat="44.10993" lon="7.07376">
        <ele>1360.6309814453</ele>
        <time>2017-06-11T08:40:27Z</time>
      </trkpt>
      <trkpt lat="44.11011" lon="7.07373">
        <ele>1360.4310302734</ele>
        <time>2017-06-11T08:40:35Z</time>
      </trkpt>
      <trkpt lat="44.11028" lon="7.07364">
        <ele>1360.3310546875</ele>
        <time>2017-06-11T08:40:41Z</time>
      </trkpt>
      <trkpt lat="44.11042" lon="7.07363">
        <ele>1359.4310302734</ele>
        <time>2017-06-11T08:40:47Z</time>
      </trkpt>
      <trkpt lat="44.1105" lon="7.07365">
        <ele>1359.3310546875</ele>
        <time>2017-06-11T08:40:50Z</time>
      </trkpt>
      <trkpt lat="44.11059" lon="7.07365">
        <ele>1359.3310546875</ele>
        <time>2017-06-11T08:40:55Z</time>
      </trkpt>
      <trkpt lat="44.11066" lon="7.07369">
        <ele>1360.5310058594</ele>
        <time>2017-06-11T08:41:00Z</time>
      </trkpt>
      <trkpt lat="44.11082" lon="7.07368">
        <ele>1362.6309814453</ele>
        <time>2017-06-11T08:41:08Z</time>
      </trkpt>
      <trkpt lat="44.11097" lon="7.07368">
        <ele>1362.9310302734</ele>
        <time>2017-06-11T08:41:16Z</time>
      </trkpt>
      <trkpt lat="44.11106" lon="7.07371">
        <ele>1362.2309570312</ele>
        <time>2017-06-11T08:41:21Z</time>
      </trkpt>
      <trkpt lat="44.11124" lon="7.07376">
        <ele>1362.8310546875</ele>
        <time>2017-06-11T08:41:29Z</time>
      </trkpt>
      <trkpt lat="44.11138" lon="7.07384">
        <ele>1363.7309570312</ele>
        <time>2017-06-11T08:41:35Z</time>
      </trkpt>
      <trkpt lat="44.11153" lon="7.07392">
        <ele>1364.9310302734</ele>
        <time>2017-06-11T08:41:42Z</time>
      </trkpt>
      <trkpt lat="44.11167" lon="7.07383">
        <ele>1368.7309570312</ele>
        <time>2017-06-11T08:41:49Z</time>
      </trkpt>
      <trkpt lat="44.11165" lon="7.07371">
        <ele>1373.5310058594</ele>
        <time>2017-06-11T08:41:57Z</time>
      </trkpt>
      <trkpt lat="44.11159" lon="7.07364">
        <ele>1374.8310546875</ele>
        <time>2017-06-11T08:42:02Z</time>
      </trkpt>
      <trkpt lat="44.11153" lon="7.07359">
        <ele>1374.7309570312</ele>
        <time>2017-06-11T08:42:07Z</time>
      </trkpt>
      <trkpt lat="44.11146" lon="7.07351">
        <ele>1374.1309814453</ele>
        <time>2017-06-11T08:42:12Z</time>
      </trkpt>
      <trkpt lat="44.11138" lon="7.0735">
        <ele>1374.3310546875</ele>
        <time>2017-06-11T08:42:17Z</time>
      </trkpt>
      <trkpt lat="44.11123" lon="7.07348">
        <ele>1374.8310546875</ele>
        <time>2017-06-11T08:42:26Z</time>
      </trkpt>
      <trkpt lat="44.11115" lon="7.07345">
        <ele>1377.8310546875</ele>
        <time>2017-06-11T08:42:33Z</time>
      </trkpt>
      <trkpt lat="44.11098" lon="7.07343">
        <ele>1379.5310058594</ele>
        <time>2017-06-11T08:42:46Z</time>
      </trkpt>
      <trkpt lat="44.1109" lon="7.07338">
        <ele>1380.2309570312</ele>
        <time>2017-06-11T08:42:52Z</time>
      </trkpt>
      <trkpt lat="44.11084" lon="7.07334">
        <ele>1380.5310058594</ele>
        <time>2017-06-11T08:42:58Z</time>
      </trkpt>
      <trkpt lat="44.11075" lon="7.07331">
        <ele>1380.9310302734</ele>
        <time>2017-06-11T08:43:04Z</time>
      </trkpt>
      <trkpt lat="44.11066" lon="7.0733">
        <ele>1382.3310546875</ele>
        <time>2017-06-11T08:43:09Z</time>
      </trkpt>
      <trkpt lat="44.11059" lon="7.07329">
        <ele>1382.5310058594</ele>
        <time>2017-06-11T08:43:14Z</time>
      </trkpt>
      <trkpt lat="44.11043" lon="7.07333">
        <ele>1382.2309570312</ele>
        <time>2017-06-11T08:43:22Z</time>
      </trkpt>
      <trkpt lat="44.11034" lon="7.07333">
        <ele>1381.2309570312</ele>
        <time>2017-06-11T08:43:27Z</time>
      </trkpt>
      <trkpt lat="44.11027" lon="7.07332">
        <ele>1381.2309570312</ele>
        <time>2017-06-11T08:43:32Z</time>
      </trkpt>
      <trkpt lat="44.11019" lon="7.07331">
        <ele>1382.2309570312</ele>
        <time>2017-06-11T08:43:37Z</time>
      </trkpt>
      <trkpt lat="44.11003" lon="7.07335">
        <ele>1383.0310058594</ele>
        <time>2017-06-11T08:43:46Z</time>
      </trkpt>
      <trkpt lat="44.10995" lon="7.07332">
        <ele>1382.9310302734</ele>
        <time>2017-06-11T08:43:51Z</time>
      </trkpt>
      <trkpt lat="44.1098" lon="7.07336">
        <ele>1383.3310546875</ele>
        <time>2017-06-11T08:43:59Z</time>
      </trkpt>
      <trkpt lat="44.10972" lon="7.07338">
        <ele>1382.6309814453</ele>
        <time>2017-06-11T08:44:04Z</time>
      </trkpt>
      <trkpt lat="44.10964" lon="7.07336">
        <ele>1383.3310546875</ele>
        <time>2017-06-11T08:44:09Z</time>
      </trkpt>
      <trkpt lat="44.10957" lon="7.07328">
        <ele>1384.0310058594</ele>
        <time>2017-06-11T08:44:14Z</time>
      </trkpt>
      <trkpt lat="44.10949" lon="7.07325">
        <ele>1384.4310302734</ele>
        <time>2017-06-11T08:44:20Z</time>
      </trkpt>
      <trkpt lat="44.10942" lon="7.0732">
        <ele>1386.7309570312</ele>
        <time>2017-06-11T08:44:28Z</time>
      </trkpt>
      <trkpt lat="44.10927" lon="7.07327">
        <ele>1386.8310546875</ele>
        <time>2017-06-11T08:44:39Z</time>
      </trkpt>
      <trkpt lat="44.10914" lon="7.0734">
        <ele>1385.9310302734</ele>
        <time>2017-06-11T08:44:48Z</time>
      </trkpt>
      <trkpt lat="44.10909" lon="7.07348">
        <ele>1386.1309814453</ele>
        <time>2017-06-11T08:44:52Z</time>
      </trkpt>
      <trkpt lat="44.10902" lon="7.07353">
        <ele>1386.6309814453</ele>
        <time>2017-06-11T08:44:58Z</time>
      </trkpt>
      <trkpt lat="44.10897" lon="7.0736">
        <ele>1387.2309570312</ele>
        <time>2017-06-11T08:45:05Z</time>
      </trkpt>
      <trkpt lat="44.10883" lon="7.07382">
        <ele>1390.7309570312</ele>
        <time>2017-06-11T08:45:11Z</time>
      </trkpt>
      <trkpt lat="44.10868" lon="7.07397">
        <ele>1391.2309570312</ele>
        <time>2017-06-11T08:45:17Z</time>
      </trkpt>
      <trkpt lat="44.10861" lon="7.07403">
        <ele>1390.1309814453</ele>
        <time>2017-06-11T08:45:22Z</time>
      </trkpt>
      <trkpt lat="44.10855" lon="7.0741">
        <ele>1392.2309570312</ele>
        <time>2017-06-11T08:45:30Z</time>
      </trkpt>
      <trkpt lat="44.10848" lon="7.07412">
        <ele>1394.2309570312</ele>
        <time>2017-06-11T08:45:36Z</time>
      </trkpt>
      <trkpt lat="44.10842" lon="7.07418">
        <ele>1400.1309814453</ele>
        <time>2017-06-11T08:45:47Z</time>
      </trkpt>
      <trkpt lat="44.10834" lon="7.0742">
        <ele>1403.1309814453</ele>
        <time>2017-06-11T08:45:53Z</time>
      </trkpt>
      <trkpt lat="44.10827" lon="7.07424">
        <ele>1404.4310302734</ele>
        <time>2017-06-11T08:46:00Z</time>
      </trkpt>
      <trkpt lat="44.1082" lon="7.07432">
        <ele>1405.9310302734</ele>
        <time>2017-06-11T08:46:12Z</time>
      </trkpt>
      <trkpt lat="44.10811" lon="7.07433">
        <ele>1405.2309570312</ele>
        <time>2017-06-11T08:46:18Z</time>
      </trkpt>
      <trkpt lat="44.10805" lon="7.0744">
        <ele>1403.0310058594</ele>
        <time>2017-06-11T08:46:30Z</time>
      </trkpt>
      <trkpt lat="44.10798" lon="7.07446">
        <ele>1401.9310302734</ele>
        <time>2017-06-11T08:46:38Z</time>
      </trkpt>
      <trkpt lat="44.1079" lon="7.07448">
        <ele>1402.5310058594</ele>
        <time>2017-06-11T08:46:44Z</time>
      </trkpt>
      <trkpt lat="44.10783" lon="7.07457">
        <ele>1403.1309814453</ele>
        <time>2017-06-11T08:46:51Z</time>
      </trkpt>
      <trkpt lat="44.10776" lon="7.07462">
        <ele>1405.3310546875</ele>
        <time>2017-06-11T08:46:59Z</time>
      </trkpt>
      <trkpt lat="44.10763" lon="7.07475">
        <ele>1406.6309814453</ele>
        <time>2017-06-11T08:47:08Z</time>
      </trkpt>
      <trkpt lat="44.10758" lon="7.07483">
        <ele>1407.8310546875</ele>
        <time>2017-06-11T08:47:13Z</time>
      </trkpt>
      <trkpt lat="44.10752" lon="7.0749">
        <ele>1408.2309570312</ele>
        <time>2017-06-11T08:47:19Z</time>
      </trkpt>
      <trkpt lat="44.10747" lon="7.07499">
        <ele>1409.4310302734</ele>
        <time>2017-06-11T08:47:26Z</time>
      </trkpt>
      <trkpt lat="44.1074" lon="7.07507">
        <ele>1410.7309570312</ele>
        <time>2017-06-11T08:47:31Z</time>
      </trkpt>
      <trkpt lat="44.10733" lon="7.07511">
        <ele>1411.2309570312</ele>
        <time>2017-06-11T08:47:36Z</time>
      </trkpt>
      <trkpt lat="44.1073" lon="7.07521">
        <ele>1411.9310302734</ele>
        <time>2017-06-11T08:47:42Z</time>
      </trkpt>
      <trkpt lat="44.10724" lon="7.07528">
        <ele>1412.4310302734</ele>
        <time>2017-06-11T08:47:47Z</time>
      </trkpt>
      <trkpt lat="44.10719" lon="7.07537">
        <ele>1413.2309570312</ele>
        <time>2017-06-11T08:47:53Z</time>
      </trkpt>
      <trkpt lat="44.10713" lon="7.07545">
        <ele>1415.2309570312</ele>
        <time>2017-06-11T08:47:58Z</time>
      </trkpt>
      <trkpt lat="44.10707" lon="7.07554">
        <ele>1417.2309570312</ele>
        <time>2017-06-11T08:48:04Z</time>
      </trkpt>
      <trkpt lat="44.10702" lon="7.07564">
        <ele>1417.6309814453</ele>
        <time>2017-06-11T08:48:10Z</time>
      </trkpt>
      <trkpt lat="44.10688" lon="7.07578">
        <ele>1419.0310058594</ele>
        <time>2017-06-11T08:48:20Z</time>
      </trkpt>
      <trkpt lat="44.10675" lon="7.0759">
        <ele>1419.0310058594</ele>
        <time>2017-06-11T08:48:28Z</time>
      </trkpt>
      <trkpt lat="44.10662" lon="7.076">
        <ele>1419.2309570312</ele>
        <time>2017-06-11T08:48:35Z</time>
      </trkpt>
      <trkpt lat="44.10652" lon="7.07618">
        <ele>1420.2309570312</ele>
        <time>2017-06-11T08:48:44Z</time>
      </trkpt>
      <trkpt lat="44.10645" lon="7.07625">
        <ele>1420.5310058594</ele>
        <time>2017-06-11T08:48:51Z</time>
      </trkpt>
      <trkpt lat="44.1064" lon="7.07635">
        <ele>1421.5310058594</ele>
        <time>2017-06-11T08:48:56Z</time>
      </trkpt>
      <trkpt lat="44.10636" lon="7.07644">
        <ele>1422.5310058594</ele>
        <time>2017-06-11T08:49:02Z</time>
      </trkpt>
      <trkpt lat="44.10633" lon="7.07653">
        <ele>1424.0310058594</ele>
        <time>2017-06-11T08:49:08Z</time>
      </trkpt>
      <trkpt lat="44.10623" lon="7.07672">
        <ele>1425.0310058594</ele>
        <time>2017-06-11T08:49:17Z</time>
      </trkpt>
      <trkpt lat="44.10622" lon="7.07684">
        <ele>1426.9310302734</ele>
        <time>2017-06-11T08:49:23Z</time>
      </trkpt>
      <trkpt lat="44.10617" lon="7.07691">
        <ele>1427.4310302734</ele>
        <time>2017-06-11T08:49:29Z</time>
      </trkpt>
      <trkpt lat="44.10612" lon="7.077">
        <ele>1428.6309814453</ele>
        <time>2017-06-11T08:49:38Z</time>
      </trkpt>
      <trkpt lat="44.10602" lon="7.07715">
        <ele>1428.2309570312</ele>
        <time>2017-06-11T08:49:46Z</time>
      </trkpt>
      <trkpt lat="44.10599" lon="7.07726">
        <ele>1428.2309570312</ele>
        <time>2017-06-11T08:49:52Z</time>
      </trkpt>
      <trkpt lat="44.10598" lon="7.07736">
        <ele>1429.5310058594</ele>
        <time>2017-06-11T08:49:58Z</time>
      </trkpt>
      <trkpt lat="44.10598" lon="7.07747">
        <ele>1431.5310058594</ele>
        <time>2017-06-11T08:50:04Z</time>
      </trkpt>
      <trkpt lat="44.10596" lon="7.07758">
        <ele>1432.5310058594</ele>
        <time>2017-06-11T08:50:14Z</time>
      </trkpt>
      <trkpt lat="44.10593" lon="7.07767">
        <ele>1432.3310546875</ele>
        <time>2017-06-11T08:50:20Z</time>
      </trkpt>
      <trkpt lat="44.10589" lon="7.07776">
        <ele>1433.0310058594</ele>
        <time>2017-06-11T08:50:25Z</time>
      </trkpt>
      <trkpt lat="44.10587" lon="7.07786">
        <ele>1433.8310546875</ele>
        <time>2017-06-11T08:50:29Z</time>
      </trkpt>
      <trkpt lat="44.10584" lon="7.07796">
        <ele>1434.8310546875</ele>
        <time>2017-06-11T08:50:35Z</time>
      </trkpt>
      <trkpt lat="44.10582" lon="7.07807">
        <ele>1436.0310058594</ele>
        <time>2017-06-11T08:50:40Z</time>
      </trkpt>
      <trkpt lat="44.10574" lon="7.07825">
        <ele>1438.7309570312</ele>
        <time>2017-06-11T08:50:48Z</time>
      </trkpt>
      <trkpt lat="44.10571" lon="7.07836">
        <ele>1440.1309814453</ele>
        <time>2017-06-11T08:50:56Z</time>
      </trkpt>
      <trkpt lat="44.10566" lon="7.07844">
        <ele>1441.5310058594</ele>
        <time>2017-06-11T08:51:01Z</time>
      </trkpt>
      <trkpt lat="44.10561" lon="7.07854">
        <ele>1442.1309814453</ele>
        <time>2017-06-11T08:51:06Z</time>
      </trkpt>
      <trkpt lat="44.10556" lon="7.07863">
        <ele>1443.7309570312</ele>
        <time>2017-06-11T08:51:11Z</time>
      </trkpt>
      <trkpt lat="44.10546" lon="7.07878">
        <ele>1443.6309814453</ele>
        <time>2017-06-11T08:51:20Z</time>
      </trkpt>
      <trkpt lat="44.10541" lon="7.07885">
        <ele>1443.7309570312</ele>
        <time>2017-06-11T08:51:26Z</time>
      </trkpt>
      <trkpt lat="44.10534" lon="7.07892">
        <ele>1444.1309814453</ele>
        <time>2017-06-11T08:51:32Z</time>
      </trkpt>
      <trkpt lat="44.10527" lon="7.079">
        <ele>1443.9310302734</ele>
        <time>2017-06-11T08:51:37Z</time>
      </trkpt>
      <trkpt lat="44.10514" lon="7.07913">
        <ele>1444.1309814453</ele>
        <time>2017-06-11T08:51:45Z</time>
      </trkpt>
      <trkpt lat="44.10508" lon="7.07921">
        <ele>1444.3310546875</ele>
        <time>2017-06-11T08:51:50Z</time>
      </trkpt>
      <trkpt lat="44.10497" lon="7.07935">
        <ele>1444.5310058594</ele>
        <time>2017-06-11T08:51:57Z</time>
      </trkpt>
      <trkpt lat="44.10492" lon="7.07944">
        <ele>1445.6309814453</ele>
        <time>2017-06-11T08:52:03Z</time>
      </trkpt>
      <trkpt lat="44.10484" lon="7.07948">
        <ele>1445.7309570312</ele>
        <time>2017-06-11T08:52:09Z</time>
      </trkpt>
      <trkpt lat="44.10475" lon="7.07952">
        <ele>1446.0310058594</ele>
        <time>2017-06-11T08:52:14Z</time>
      </trkpt>
      <trkpt lat="44.10467" lon="7.07956">
        <ele>1446.2309570312</ele>
        <time>2017-06-11T08:52:19Z</time>
      </trkpt>
      <trkpt lat="44.1046" lon="7.07963">
        <ele>1446.7309570312</ele>
        <time>2017-06-11T08:52:26Z</time>
      </trkpt>
      <trkpt lat="44.10455" lon="7.0797">
        <ele>1449.8310546875</ele>
        <time>2017-06-11T08:52:32Z</time>
      </trkpt>
      <trkpt lat="44.10449" lon="7.07977">
        <ele>1453.5310058594</ele>
        <time>2017-06-11T08:52:37Z</time>
      </trkpt>
      <trkpt lat="44.10434" lon="7.07986">
        <ele>1454.2309570312</ele>
        <time>2017-06-11T08:52:46Z</time>
      </trkpt>
      <trkpt lat="44.10427" lon="7.07992">
        <ele>1452.8310546875</ele>
        <time>2017-06-11T08:52:51Z</time>
      </trkpt>
      <trkpt lat="44.10421" lon="7.07997">
        <ele>1453.8310546875</ele>
        <time>2017-06-11T08:52:57Z</time>
      </trkpt>
      <trkpt lat="44.10414" lon="7.08003">
        <ele>1452.2309570312</ele>
        <time>2017-06-11T08:53:04Z</time>
      </trkpt>
      <trkpt lat="44.10407" lon="7.08008">
        <ele>1452.6309814453</ele>
        <time>2017-06-11T08:53:09Z</time>
      </trkpt>
      <trkpt lat="44.10393" lon="7.08021">
        <ele>1454.0310058594</ele>
        <time>2017-06-11T08:53:20Z</time>
      </trkpt>
      <trkpt lat="44.10378" lon="7.08028">
        <ele>1454.7309570312</ele>
        <time>2017-06-11T08:53:30Z</time>
      </trkpt>
      <trkpt lat="44.10373" lon="7.08037">
        <ele>1456.4310302734</ele>
        <time>2017-06-11T08:53:37Z</time>
      </trkpt>
      <trkpt lat="44.10366" lon="7.08042">
        <ele>1457.4310302734</ele>
        <time>2017-06-11T08:53:42Z</time>
      </trkpt>
      <trkpt lat="44.1036" lon="7.08047">
        <ele>1456.9310302734</ele>
        <time>2017-06-11T08:53:47Z</time>
      </trkpt>
      <trkpt lat="44.10353" lon="7.08051">
        <ele>1457.2309570312</ele>
        <time>2017-06-11T08:53:52Z</time>
      </trkpt>
      <trkpt lat="44.10345" lon="7.08052">
        <ele>1457.2309570312</ele>
        <time>2017-06-11T08:53:57Z</time>
      </trkpt>
      <trkpt lat="44.10337" lon="7.08055">
        <ele>1458.6309814453</ele>
        <time>2017-06-11T08:54:03Z</time>
      </trkpt>
      <trkpt lat="44.10329" lon="7.08055">
        <ele>1458.8310546875</ele>
        <time>2017-06-11T08:54:08Z</time>
      </trkpt>
      <trkpt lat="44.10322" lon="7.08058">
        <ele>1459.4310302734</ele>
        <time>2017-06-11T08:54:14Z</time>
      </trkpt>
      <trkpt lat="44.10314" lon="7.08061">
        <ele>1459.4310302734</ele>
        <time>2017-06-11T08:54:19Z</time>
      </trkpt>
      <trkpt lat="44.103" lon="7.08074">
        <ele>1461.4310302734</ele>
        <time>2017-06-11T08:54:31Z</time>
      </trkpt>
      <trkpt lat="44.10291" lon="7.08088">
        <ele>1463.8310546875</ele>
        <time>2017-06-11T08:54:42Z</time>
      </trkpt>
      <trkpt lat="44.10289" lon="7.08099">
        <ele>1464.3310546875</ele>
        <time>2017-06-11T08:54:49Z</time>
      </trkpt>
      <trkpt lat="44.10285" lon="7.08106">
        <ele>1464.6309814453</ele>
        <time>2017-06-11T08:54:58Z</time>
      </trkpt>
      <trkpt lat="44.10277" lon="7.08112">
        <ele>1465.4310302734</ele>
        <time>2017-06-11T08:55:04Z</time>
      </trkpt>
      <trkpt lat="44.10271" lon="7.0812">
        <ele>1466.6309814453</ele>
        <time>2017-06-11T08:55:10Z</time>
      </trkpt>
      <trkpt lat="44.10265" lon="7.08127">
        <ele>1467.5310058594</ele>
        <time>2017-06-11T08:55:17Z</time>
      </trkpt>
      <trkpt lat="44.10258" lon="7.08133">
        <ele>1467.9310302734</ele>
        <time>2017-06-11T08:55:24Z</time>
      </trkpt>
      <trkpt lat="44.10251" lon="7.08138">
        <ele>1469.2309570312</ele>
        <time>2017-06-11T08:55:31Z</time>
      </trkpt>
      <trkpt lat="44.10244" lon="7.0814">
        <ele>1468.8310546875</ele>
        <time>2017-06-11T08:55:39Z</time>
      </trkpt>
      <trkpt lat="44.10237" lon="7.08145">
        <ele>1470.6309814453</ele>
        <time>2017-06-11T08:55:46Z</time>
      </trkpt>
      <trkpt lat="44.10231" lon="7.0815">
        <ele>1472.9310302734</ele>
        <time>2017-06-11T08:55:51Z</time>
      </trkpt>
      <trkpt lat="44.10223" lon="7.08152">
        <ele>1475.8310546875</ele>
        <time>2017-06-11T08:55:58Z</time>
      </trkpt>
      <trkpt lat="44.10221" lon="7.08142">
        <ele>1478.9310302734</ele>
        <time>2017-06-11T08:56:08Z</time>
      </trkpt>
      <trkpt lat="44.10226" lon="7.08131">
        <ele>1480.0310058594</ele>
        <time>2017-06-11T08:56:17Z</time>
      </trkpt>
      <trkpt lat="44.10231" lon="7.08122">
        <ele>1479.9310302734</ele>
        <time>2017-06-11T08:56:22Z</time>
      </trkpt>
      <trkpt lat="44.10238" lon="7.08126">
        <ele>1482.6309814453</ele>
        <time>2017-06-11T08:56:32Z</time>
      </trkpt>
      <trkpt lat="44.10243" lon="7.08107">
        <ele>1482.3310546875</ele>
        <time>2017-06-11T08:56:40Z</time>
      </trkpt>
      <trkpt lat="44.10247" lon="7.08096">
        <ele>1484.5310058594</ele>
        <time>2017-06-11T08:56:47Z</time>
      </trkpt>
      <trkpt lat="44.10247" lon="7.08086">
        <ele>1489.1309814453</ele>
        <time>2017-06-11T08:57:07Z</time>
      </trkpt>
      <trkpt lat="44.10245" lon="7.08076">
        <ele>1490.8310546875</ele>
        <time>2017-06-11T08:57:18Z</time>
      </trkpt>
      <trkpt lat="44.10258" lon="7.08064">
        <ele>1491.1309814453</ele>
        <time>2017-06-11T08:57:26Z</time>
      </trkpt>
      <trkpt lat="44.10264" lon="7.08053">
        <ele>1490.5310058594</ele>
        <time>2017-06-11T08:57:31Z</time>
      </trkpt>
      <trkpt lat="44.10268" lon="7.08036">
        <ele>1490.9310302734</ele>
        <time>2017-06-11T08:57:39Z</time>
      </trkpt>
      <trkpt lat="44.10281" lon="7.08021">
        <ele>1490.9310302734</ele>
        <time>2017-06-11T08:57:46Z</time>
      </trkpt>
      <trkpt lat="44.10295" lon="7.08012">
        <ele>1492.6309814453</ele>
        <time>2017-06-11T08:57:56Z</time>
      </trkpt>
      <trkpt lat="44.10301" lon="7.08006">
        <ele>1493.6309814453</ele>
        <time>2017-06-11T08:58:02Z</time>
      </trkpt>
      <trkpt lat="44.10307" lon="7.07996">
        <ele>1493.1309814453</ele>
        <time>2017-06-11T08:58:07Z</time>
      </trkpt>
      <trkpt lat="44.10316" lon="7.07977">
        <ele>1495.6309814453</ele>
        <time>2017-06-11T08:58:14Z</time>
      </trkpt>
      <trkpt lat="44.1033" lon="7.07963">
        <ele>1498.6309814453</ele>
        <time>2017-06-11T08:58:21Z</time>
      </trkpt>
      <trkpt lat="44.10337" lon="7.07955">
        <ele>1498.1309814453</ele>
        <time>2017-06-11T08:58:26Z</time>
      </trkpt>
      <trkpt lat="44.10343" lon="7.07948">
        <ele>1497.4310302734</ele>
        <time>2017-06-11T08:58:32Z</time>
      </trkpt>
      <trkpt lat="44.1035" lon="7.07942">
        <ele>1501.4310302734</ele>
        <time>2017-06-11T08:58:41Z</time>
      </trkpt>
      <trkpt lat="44.10354" lon="7.07933">
        <ele>1504.2309570312</ele>
        <time>2017-06-11T08:58:47Z</time>
      </trkpt>
      <trkpt lat="44.10357" lon="7.07922">
        <ele>1504.0310058594</ele>
        <time>2017-06-11T08:58:59Z</time>
      </trkpt>
      <trkpt lat="44.1037" lon="7.07907">
        <ele>1503.2309570312</ele>
        <time>2017-06-11T08:59:06Z</time>
      </trkpt>
      <trkpt lat="44.10382" lon="7.07889">
        <ele>1504.9310302734</ele>
        <time>2017-06-11T08:59:18Z</time>
      </trkpt>
      <trkpt lat="44.10388" lon="7.07882">
        <ele>1504.3310546875</ele>
        <time>2017-06-11T08:59:23Z</time>
      </trkpt>
      <trkpt lat="44.10392" lon="7.07873">
        <ele>1504.6309814453</ele>
        <time>2017-06-11T08:59:28Z</time>
      </trkpt>
      <trkpt lat="44.10396" lon="7.07863">
        <ele>1502.8310546875</ele>
        <time>2017-06-11T08:59:34Z</time>
      </trkpt>
      <trkpt lat="44.10395" lon="7.0785">
        <ele>1501.8310546875</ele>
        <time>2017-06-11T08:59:40Z</time>
      </trkpt>
      <trkpt lat="44.10398" lon="7.07839">
        <ele>1501.3310546875</ele>
        <time>2017-06-11T08:59:46Z</time>
      </trkpt>
      <trkpt lat="44.10403" lon="7.0783">
        <ele>1501.2309570312</ele>
        <time>2017-06-11T08:59:51Z</time>
      </trkpt>
      <trkpt lat="44.10404" lon="7.07818">
        <ele>1501.5310058594</ele>
        <time>2017-06-11T08:59:56Z</time>
      </trkpt>
      <trkpt lat="44.104" lon="7.07797">
        <ele>1502.5310058594</ele>
        <time>2017-06-11T09:00:07Z</time>
      </trkpt>
      <trkpt lat="44.10395" lon="7.07789">
        <ele>1503.8310546875</ele>
        <time>2017-06-11T09:00:12Z</time>
      </trkpt>
      <trkpt lat="44.10394" lon="7.07766">
        <ele>1506.1309814453</ele>
        <time>2017-06-11T09:00:21Z</time>
      </trkpt>
      <trkpt lat="44.10396" lon="7.07754">
        <ele>1505.1309814453</ele>
        <time>2017-06-11T09:00:27Z</time>
      </trkpt>
      <trkpt lat="44.10396" lon="7.07721">
        <ele>1508.4310302734</ele>
        <time>2017-06-11T09:00:33Z</time>
      </trkpt>
      <trkpt lat="44.10397" lon="7.07708">
        <ele>1510.1309814453</ele>
        <time>2017-06-11T09:00:38Z</time>
      </trkpt>
      <trkpt lat="44.10393" lon="7.07698">
        <ele>1509.7309570312</ele>
        <time>2017-06-11T09:00:44Z</time>
      </trkpt>
      <trkpt lat="44.1039" lon="7.07686">
        <ele>1510.0310058594</ele>
        <time>2017-06-11T09:00:50Z</time>
      </trkpt>
      <trkpt lat="44.10387" lon="7.07675">
        <ele>1510.2309570312</ele>
        <time>2017-06-11T09:00:55Z</time>
      </trkpt>
      <trkpt lat="44.10394" lon="7.07669">
        <ele>1510.5310058594</ele>
        <time>2017-06-11T09:01:01Z</time>
      </trkpt>
      <trkpt lat="44.10397" lon="7.07659">
        <ele>1510.7309570312</ele>
        <time>2017-06-11T09:01:07Z</time>
      </trkpt>
      <trkpt lat="44.104" lon="7.0765">
        <ele>1510.9310302734</ele>
        <time>2017-06-11T09:01:13Z</time>
      </trkpt>
      <trkpt lat="44.10419" lon="7.07611">
        <ele>1516.0300292969</ele>
        <time>2017-06-11T09:01:25Z</time>
      </trkpt>
      <trkpt lat="44.10423" lon="7.07602">
        <ele>1515.5300292969</ele>
        <time>2017-06-11T09:01:30Z</time>
      </trkpt>
      <trkpt lat="44.10426" lon="7.07592">
        <ele>1514.9300537109</ele>
        <time>2017-06-11T09:01:36Z</time>
      </trkpt>
      <trkpt lat="44.10428" lon="7.07571">
        <ele>1515.7299804688</ele>
        <time>2017-06-11T09:01:47Z</time>
      </trkpt>
      <trkpt lat="44.10433" lon="7.07564">
        <ele>1516.5300292969</ele>
        <time>2017-06-11T09:01:52Z</time>
      </trkpt>
      <trkpt lat="44.10437" lon="7.07553">
        <ele>1517.7299804688</ele>
        <time>2017-06-11T09:01:57Z</time>
      </trkpt>
      <trkpt lat="44.10437" lon="7.07541">
        <ele>1517.8299560547</ele>
        <time>2017-06-11T09:02:02Z</time>
      </trkpt>
      <trkpt lat="44.10437" lon="7.07531">
        <ele>1517.4300537109</ele>
        <time>2017-06-11T09:02:07Z</time>
      </trkpt>
      <trkpt lat="44.10437" lon="7.07518">
        <ele>1516.6300048828</ele>
        <time>2017-06-11T09:02:12Z</time>
      </trkpt>
      <trkpt lat="44.1044" lon="7.07498">
        <ele>1513.9300537109</ele>
        <time>2017-06-11T09:02:23Z</time>
      </trkpt>
      <trkpt lat="44.10446" lon="7.07479">
        <ele>1514.5300292969</ele>
        <time>2017-06-11T09:02:33Z</time>
      </trkpt>
      <trkpt lat="44.10448" lon="7.07469">
        <ele>1514.4300537109</ele>
        <time>2017-06-11T09:02:38Z</time>
      </trkpt>
      <trkpt lat="44.10453" lon="7.07458">
        <ele>1515.2299804688</ele>
        <time>2017-06-11T09:02:45Z</time>
      </trkpt>
      <trkpt lat="44.10464" lon="7.07445">
        <ele>1516.7299804688</ele>
        <time>2017-06-11T09:02:53Z</time>
      </trkpt>
      <trkpt lat="44.10474" lon="7.07426">
        <ele>1518.1300048828</ele>
        <time>2017-06-11T09:03:02Z</time>
      </trkpt>
      <trkpt lat="44.10477" lon="7.07405">
        <ele>1519.3299560547</ele>
        <time>2017-06-11T09:03:09Z</time>
      </trkpt>
      <trkpt lat="44.10482" lon="7.07397">
        <ele>1520.5300292969</ele>
        <time>2017-06-11T09:03:15Z</time>
      </trkpt>
      <trkpt lat="44.10491" lon="7.07381">
        <ele>1520.2299804688</ele>
        <time>2017-06-11T09:03:24Z</time>
      </trkpt>
      <trkpt lat="44.10491" lon="7.07359">
        <ele>1520.2299804688</ele>
        <time>2017-06-11T09:03:32Z</time>
      </trkpt>
      <trkpt lat="44.10496" lon="7.0735">
        <ele>1521.3299560547</ele>
        <time>2017-06-11T09:03:38Z</time>
      </trkpt>
      <trkpt lat="44.10501" lon="7.07343">
        <ele>1521.8299560547</ele>
        <time>2017-06-11T09:03:44Z</time>
      </trkpt>
      <trkpt lat="44.10507" lon="7.07334">
        <ele>1521.6300048828</ele>
        <time>2017-06-11T09:03:51Z</time>
      </trkpt>
      <trkpt lat="44.10509" lon="7.07324">
        <ele>1522.5300292969</ele>
        <time>2017-06-11T09:03:56Z</time>
      </trkpt>
      <trkpt lat="44.10517" lon="7.0732">
        <ele>1523.9300537109</ele>
        <time>2017-06-11T09:04:01Z</time>
      </trkpt>
      <trkpt lat="44.1052" lon="7.07309">
        <ele>1524.2299804688</ele>
        <time>2017-06-11T09:04:06Z</time>
      </trkpt>
      <trkpt lat="44.10535" lon="7.07296">
        <ele>1525.5300292969</ele>
        <time>2017-06-11T09:04:15Z</time>
      </trkpt>
      <trkpt lat="44.10536" lon="7.07285">
        <ele>1526.6300048828</ele>
        <time>2017-06-11T09:04:20Z</time>
      </trkpt>
      <trkpt lat="44.10537" lon="7.07273">
        <ele>1527.1300048828</ele>
        <time>2017-06-11T09:04:26Z</time>
      </trkpt>
      <trkpt lat="44.10547" lon="7.07258">
        <ele>1528.5300292969</ele>
        <time>2017-06-11T09:04:33Z</time>
      </trkpt>
      <trkpt lat="44.10556" lon="7.07235">
        <ele>1528.2299804688</ele>
        <time>2017-06-11T09:04:40Z</time>
      </trkpt>
      <trkpt lat="44.10563" lon="7.07227">
        <ele>1528.1300048828</ele>
        <time>2017-06-11T09:04:43Z</time>
      </trkpt>
      <trkpt lat="44.10565" lon="7.07217">
        <ele>1528.9300537109</ele>
        <time>2017-06-11T09:04:48Z</time>
      </trkpt>
      <trkpt lat="44.10568" lon="7.07209">
        <ele>1529.3299560547</ele>
        <time>2017-06-11T09:04:54Z</time>
      </trkpt>
      <trkpt lat="44.10573" lon="7.072">
        <ele>1529.5300292969</ele>
        <time>2017-06-11T09:04:59Z</time>
      </trkpt>
      <trkpt lat="44.10582" lon="7.07182">
        <ele>1529.8299560547</ele>
        <time>2017-06-11T09:05:07Z</time>
      </trkpt>
      <trkpt lat="44.10597" lon="7.07165">
        <ele>1533.7299804688</ele>
        <time>2017-06-11T09:05:13Z</time>
      </trkpt>
      <trkpt lat="44.10601" lon="7.07144">
        <ele>1534.1300048828</ele>
        <time>2017-06-11T09:05:21Z</time>
      </trkpt>
      <trkpt lat="44.10602" lon="7.07133">
        <ele>1533.1300048828</ele>
        <time>2017-06-11T09:05:26Z</time>
      </trkpt>
      <trkpt lat="44.10604" lon="7.07123">
        <ele>1532.8299560547</ele>
        <time>2017-06-11T09:05:33Z</time>
      </trkpt>
      <trkpt lat="44.10607" lon="7.07113">
        <ele>1534.2299804688</ele>
        <time>2017-06-11T09:05:38Z</time>
      </trkpt>
      <trkpt lat="44.10609" lon="7.071">
        <ele>1535.5300292969</ele>
        <time>2017-06-11T09:05:43Z</time>
      </trkpt>
      <trkpt lat="44.10617" lon="7.07082">
        <ele>1535.8299560547</ele>
        <time>2017-06-11T09:05:51Z</time>
      </trkpt>
      <trkpt lat="44.10619" lon="7.07069">
        <ele>1536.8299560547</ele>
        <time>2017-06-11T09:05:56Z</time>
      </trkpt>
      <trkpt lat="44.10627" lon="7.0705">
        <ele>1536.8299560547</ele>
        <time>2017-06-11T09:06:04Z</time>
      </trkpt>
      <trkpt lat="44.10633" lon="7.07032">
        <ele>1536.3299560547</ele>
        <time>2017-06-11T09:06:14Z</time>
      </trkpt>
      <trkpt lat="44.10637" lon="7.07023">
        <ele>1537.9300537109</ele>
        <time>2017-06-11T09:06:20Z</time>
      </trkpt>
      <trkpt lat="44.10638" lon="7.07001">
        <ele>1538.4300537109</ele>
        <time>2017-06-11T09:06:29Z</time>
      </trkpt>
      <trkpt lat="44.10644" lon="7.06981">
        <ele>1540.1300048828</ele>
        <time>2017-06-11T09:06:37Z</time>
      </trkpt>
      <trkpt lat="44.10647" lon="7.0696">
        <ele>1541.3299560547</ele>
        <time>2017-06-11T09:06:46Z</time>
      </trkpt>
      <trkpt lat="44.10649" lon="7.0695">
        <ele>1541.4300537109</ele>
        <time>2017-06-11T09:06:52Z</time>
      </trkpt>
      <trkpt lat="44.10653" lon="7.0694">
        <ele>1541.0290527344</ele>
        <time>2017-06-11T09:06:58Z</time>
      </trkpt>
      <trkpt lat="44.10653" lon="7.06929">
        <ele>1541.3289794922</ele>
        <time>2017-06-11T09:07:03Z</time>
      </trkpt>
      <trkpt lat="44.10652" lon="7.06919">
        <ele>1541.2290039062</ele>
        <time>2017-06-11T09:07:08Z</time>
      </trkpt>
      <trkpt lat="44.10656" lon="7.0691">
        <ele>1542.5290527344</ele>
        <time>2017-06-11T09:07:13Z</time>
      </trkpt>
      <trkpt lat="44.10664" lon="7.06891">
        <ele>1543.3289794922</ele>
        <time>2017-06-11T09:07:21Z</time>
      </trkpt>
      <trkpt lat="44.10674" lon="7.06872">
        <ele>1545.3289794922</ele>
        <time>2017-06-11T09:07:30Z</time>
      </trkpt>
      <trkpt lat="44.1068" lon="7.06862">
        <ele>1546.9289550781</ele>
        <time>2017-06-11T09:07:35Z</time>
      </trkpt>
      <trkpt lat="44.10684" lon="7.06853">
        <ele>1547.8289794922</ele>
        <time>2017-06-11T09:07:40Z</time>
      </trkpt>
      <trkpt lat="44.10691" lon="7.06834">
        <ele>1547.8289794922</ele>
        <time>2017-06-11T09:07:49Z</time>
      </trkpt>
      <trkpt lat="44.10694" lon="7.06824">
        <ele>1549.5290527344</ele>
        <time>2017-06-11T09:07:54Z</time>
      </trkpt>
      <trkpt lat="44.10695" lon="7.06812">
        <ele>1550.3289794922</ele>
        <time>2017-06-11T09:08:00Z</time>
      </trkpt>
      <trkpt lat="44.10704" lon="7.06793">
        <ele>1551.1290283203</ele>
        <time>2017-06-11T09:08:06Z</time>
      </trkpt>
      <trkpt lat="44.10742" lon="7.06752">
        <ele>1560.2290039062</ele>
        <time>2017-06-11T09:08:19Z</time>
      </trkpt>
      <trkpt lat="44.10749" lon="7.06745">
        <ele>1560.3289794922</ele>
        <time>2017-06-11T09:08:24Z</time>
      </trkpt>
      <trkpt lat="44.10755" lon="7.06739">
        <ele>1557.9289550781</ele>
        <time>2017-06-11T09:08:29Z</time>
      </trkpt>
      <trkpt lat="44.10756" lon="7.06728">
        <ele>1558.7290039062</ele>
        <time>2017-06-11T09:08:34Z</time>
      </trkpt>
      <trkpt lat="44.10759" lon="7.06718">
        <ele>1556.9289550781</ele>
        <time>2017-06-11T09:08:39Z</time>
      </trkpt>
      <trkpt lat="44.10767" lon="7.06713">
        <ele>1557.4289550781</ele>
        <time>2017-06-11T09:08:43Z</time>
      </trkpt>
      <trkpt lat="44.10779" lon="7.06702">
        <ele>1559.0290527344</ele>
        <time>2017-06-11T09:08:49Z</time>
      </trkpt>
      <trkpt lat="44.10792" lon="7.06692">
        <ele>1559.4289550781</ele>
        <time>2017-06-11T09:08:54Z</time>
      </trkpt>
      <trkpt lat="44.10827" lon="7.06659">
        <ele>1563.5290527344</ele>
        <time>2017-06-11T09:09:05Z</time>
      </trkpt>
      <trkpt lat="44.10831" lon="7.0665">
        <ele>1564.7290039062</ele>
        <time>2017-06-11T09:09:10Z</time>
      </trkpt>
      <trkpt lat="44.10846" lon="7.06632">
        <ele>1566.1290283203</ele>
        <time>2017-06-11T09:09:18Z</time>
      </trkpt>
      <trkpt lat="44.10858" lon="7.06614">
        <ele>1566.6290283203</ele>
        <time>2017-06-11T09:09:24Z</time>
      </trkpt>
      <trkpt lat="44.10862" lon="7.06593">
        <ele>1566.0290527344</ele>
        <time>2017-06-11T09:09:32Z</time>
      </trkpt>
      <trkpt lat="44.10857" lon="7.06566">
        <ele>1568.0290527344</ele>
        <time>2017-06-11T09:09:38Z</time>
      </trkpt>
      <trkpt lat="44.10849" lon="7.06547">
        <ele>1567.6290283203</ele>
        <time>2017-06-11T09:09:45Z</time>
      </trkpt>
      <trkpt lat="44.1084" lon="7.06528">
        <ele>1568.1290283203</ele>
        <time>2017-06-11T09:09:54Z</time>
      </trkpt>
      <trkpt lat="44.10825" lon="7.06513">
        <ele>1571.4289550781</ele>
        <time>2017-06-11T09:10:00Z</time>
      </trkpt>
      <trkpt lat="44.1081" lon="7.06498">
        <ele>1572.4289550781</ele>
        <time>2017-06-11T09:10:08Z</time>
      </trkpt>
      <trkpt lat="44.10799" lon="7.06507">
        <ele>1574.4289550781</ele>
        <time>2017-06-11T09:10:17Z</time>
      </trkpt>
      <trkpt lat="44.10788" lon="7.06502">
        <ele>1581.7290039062</ele>
        <time>2017-06-11T09:11:54Z</time>
      </trkpt>
      <trkpt lat="44.10796" lon="7.06504">
        <ele>1583.1290283203</ele>
        <time>2017-06-11T09:12:32Z</time>
      </trkpt>
      <trkpt lat="44.10809" lon="7.06505">
        <ele>1568.3289794922</ele>
        <time>2017-06-11T09:13:27Z</time>
      </trkpt>
      <trkpt lat="44.10821" lon="7.06507">
        <ele>1565.0290527344</ele>
        <time>2017-06-11T09:14:11Z</time>
      </trkpt>
      <trkpt lat="44.1083" lon="7.06503">
        <ele>1561.8289794922</ele>
        <time>2017-06-11T09:15:30Z</time>
      </trkpt>
      <trkpt lat="44.10832" lon="7.06519">
        <ele>1561.2290039062</ele>
        <time>2017-06-11T09:16:21Z</time>
      </trkpt>
      <trkpt lat="44.10815" lon="7.06477">
        <ele>1575.1290283203</ele>
        <time>2017-06-11T09:18:35Z</time>
      </trkpt>
      <trkpt lat="44.10797" lon="7.06486">
        <ele>1599.6290283203</ele>
        <time>2017-06-11T09:19:03Z</time>
      </trkpt>
      <trkpt lat="44.10798" lon="7.06498">
        <ele>1599.8289794922</ele>
        <time>2017-06-11T09:19:17Z</time>
      </trkpt>
      <trkpt lat="44.10813" lon="7.06495">
        <ele>1588.2290039062</ele>
        <time>2017-06-11T09:20:54Z</time>
      </trkpt>
      <trkpt lat="44.10821" lon="7.06492">
        <ele>1587.0290527344</ele>
        <time>2017-06-11T09:20:59Z</time>
      </trkpt>
      <trkpt lat="44.10836" lon="7.06482">
        <ele>1581.2290039062</ele>
        <time>2017-06-11T09:21:06Z</time>
      </trkpt>
      <trkpt lat="44.10849" lon="7.06473">
        <ele>1575.6290283203</ele>
        <time>2017-06-11T09:21:12Z</time>
      </trkpt>
      <trkpt lat="44.10854" lon="7.06465">
        <ele>1572.5290527344</ele>
        <time>2017-06-11T09:21:17Z</time>
      </trkpt>
      <trkpt lat="44.10857" lon="7.06456">
        <ele>1567.4289550781</ele>
        <time>2017-06-11T09:21:24Z</time>
      </trkpt>
      <trkpt lat="44.10862" lon="7.06447">
        <ele>1568.4289550781</ele>
        <time>2017-06-11T09:21:29Z</time>
      </trkpt>
      <trkpt lat="44.10863" lon="7.06435">
        <ele>1568.0290527344</ele>
        <time>2017-06-11T09:21:34Z</time>
      </trkpt>
      <trkpt lat="44.10867" lon="7.06426">
        <ele>1567.0290527344</ele>
        <time>2017-06-11T09:21:40Z</time>
      </trkpt>
      <trkpt lat="44.10875" lon="7.06422">
        <ele>1565.8289794922</ele>
        <time>2017-06-11T09:21:46Z</time>
      </trkpt>
      <trkpt lat="44.10878" lon="7.0641">
        <ele>1566.3289794922</ele>
        <time>2017-06-11T09:21:54Z</time>
      </trkpt>
      <trkpt lat="44.1088" lon="7.06401">
        <ele>1565.7290039062</ele>
        <time>2017-06-11T09:21:59Z</time>
      </trkpt>
      <trkpt lat="44.10889" lon="7.06384">
        <ele>1565.6290283203</ele>
        <time>2017-06-11T09:22:08Z</time>
      </trkpt>
      <trkpt lat="44.10896" lon="7.06379">
        <ele>1565.8289794922</ele>
        <time>2017-06-11T09:22:13Z</time>
      </trkpt>
      <trkpt lat="44.10904" lon="7.06375">
        <ele>1566.1290283203</ele>
        <time>2017-06-11T09:22:18Z</time>
      </trkpt>
      <trkpt lat="44.1091" lon="7.06369">
        <ele>1568.7290039062</ele>
        <time>2017-06-11T09:22:23Z</time>
      </trkpt>
      <trkpt lat="44.10915" lon="7.06361">
        <ele>1571.1290283203</ele>
        <time>2017-06-11T09:22:35Z</time>
      </trkpt>
      <trkpt lat="44.10918" lon="7.06351">
        <ele>1571.9289550781</ele>
        <time>2017-06-11T09:22:43Z</time>
      </trkpt>
      <trkpt lat="44.10893" lon="7.06304">
        <ele>1576.0290527344</ele>
        <time>2017-06-11T09:22:56Z</time>
      </trkpt>
      <trkpt lat="44.10905" lon="7.06288">
        <ele>1574.8289794922</ele>
        <time>2017-06-11T09:23:05Z</time>
      </trkpt>
      <trkpt lat="44.10914" lon="7.06261">
        <ele>1579.6290283203</ele>
        <time>2017-06-11T09:23:25Z</time>
      </trkpt>
      <trkpt lat="44.10916" lon="7.0625">
        <ele>1580.1290283203</ele>
        <time>2017-06-11T09:23:33Z</time>
      </trkpt>
      <trkpt lat="44.1092" lon="7.06241">
        <ele>1581.8289794922</ele>
        <time>2017-06-11T09:23:40Z</time>
      </trkpt>
      <trkpt lat="44.1092" lon="7.0623">
        <ele>1583.2290039062</ele>
        <time>2017-06-11T09:23:48Z</time>
      </trkpt>
      <trkpt lat="44.10926" lon="7.06223">
        <ele>1583.7280273438</ele>
        <time>2017-06-11T09:23:53Z</time>
      </trkpt>
      <trkpt lat="44.10929" lon="7.06213">
        <ele>1583.5279541016</ele>
        <time>2017-06-11T09:23:58Z</time>
      </trkpt>
      <trkpt lat="44.10933" lon="7.06203">
        <ele>1583.5279541016</ele>
        <time>2017-06-11T09:24:03Z</time>
      </trkpt>
      <trkpt lat="44.1094" lon="7.06196">
        <ele>1583.8280029297</ele>
        <time>2017-06-11T09:24:09Z</time>
      </trkpt>
      <trkpt lat="44.10947" lon="7.0619">
        <ele>1583.6280517578</ele>
        <time>2017-06-11T09:24:15Z</time>
      </trkpt>
      <trkpt lat="44.10951" lon="7.06181">
        <ele>1583.9279785156</ele>
        <time>2017-06-11T09:24:20Z</time>
      </trkpt>
      <trkpt lat="44.10958" lon="7.06173">
        <ele>1583.3280029297</ele>
        <time>2017-06-11T09:24:25Z</time>
      </trkpt>
      <trkpt lat="44.10964" lon="7.06157">
        <ele>1584.3280029297</ele>
        <time>2017-06-11T09:24:32Z</time>
      </trkpt>
      <trkpt lat="44.10968" lon="7.06147">
        <ele>1585.2280273438</ele>
        <time>2017-06-11T09:24:37Z</time>
      </trkpt>
      <trkpt lat="44.10974" lon="7.06138">
        <ele>1586.1280517578</ele>
        <time>2017-06-11T09:24:42Z</time>
      </trkpt>
      <trkpt lat="44.10974" lon="7.06128">
        <ele>1586.6280517578</ele>
        <time>2017-06-11T09:24:47Z</time>
      </trkpt>
      <trkpt lat="44.10978" lon="7.06118">
        <ele>1586.4279785156</ele>
        <time>2017-06-11T09:24:53Z</time>
      </trkpt>
      <trkpt lat="44.10984" lon="7.06111">
        <ele>1587.0279541016</ele>
        <time>2017-06-11T09:24:59Z</time>
      </trkpt>
      <trkpt lat="44.1099" lon="7.06102">
        <ele>1586.5279541016</ele>
        <time>2017-06-11T09:25:05Z</time>
      </trkpt>
      <trkpt lat="44.10998" lon="7.06095">
        <ele>1586.6280517578</ele>
        <time>2017-06-11T09:25:10Z</time>
      </trkpt>
      <trkpt lat="44.11004" lon="7.06072">
        <ele>1587.1280517578</ele>
        <time>2017-06-11T09:25:17Z</time>
      </trkpt>
      <trkpt lat="44.11014" lon="7.06054">
        <ele>1590.1280517578</ele>
        <time>2017-06-11T09:25:27Z</time>
      </trkpt>
      <trkpt lat="44.11016" lon="7.06041">
        <ele>1589.2280273438</ele>
        <time>2017-06-11T09:25:32Z</time>
      </trkpt>
      <trkpt lat="44.1102" lon="7.06031">
        <ele>1588.1280517578</ele>
        <time>2017-06-11T09:25:37Z</time>
      </trkpt>
      <trkpt lat="44.1102" lon="7.06021">
        <ele>1588.2280273438</ele>
        <time>2017-06-11T09:25:43Z</time>
      </trkpt>
      <trkpt lat="44.11023" lon="7.06012">
        <ele>1588.9279785156</ele>
        <time>2017-06-11T09:25:48Z</time>
      </trkpt>
      <trkpt lat="44.11027" lon="7.06001">
        <ele>1588.4279785156</ele>
        <time>2017-06-11T09:25:53Z</time>
      </trkpt>
      <trkpt lat="44.11036" lon="7.05983">
        <ele>1589.7280273438</ele>
        <time>2017-06-11T09:26:03Z</time>
      </trkpt>
      <trkpt lat="44.11039" lon="7.05973">
        <ele>1591.4279785156</ele>
        <time>2017-06-11T09:26:08Z</time>
      </trkpt>
      <trkpt lat="44.11043" lon="7.05964">
        <ele>1591.4279785156</ele>
        <time>2017-06-11T09:26:13Z</time>
      </trkpt>
      <trkpt lat="44.11047" lon="7.05956">
        <ele>1592.3280029297</ele>
        <time>2017-06-11T09:26:18Z</time>
      </trkpt>
      <trkpt lat="44.11055" lon="7.05938">
        <ele>1594.3280029297</ele>
        <time>2017-06-11T09:26:25Z</time>
      </trkpt>
      <trkpt lat="44.1106" lon="7.0593">
        <ele>1594.6280517578</ele>
        <time>2017-06-11T09:26:31Z</time>
      </trkpt>
      <trkpt lat="44.11074" lon="7.05915">
        <ele>1597.6280517578</ele>
        <time>2017-06-11T09:26:36Z</time>
      </trkpt>
      <trkpt lat="44.11081" lon="7.05897">
        <ele>1598.2280273438</ele>
        <time>2017-06-11T09:26:48Z</time>
      </trkpt>
      <trkpt lat="44.11089" lon="7.05893">
        <ele>1598.8280029297</ele>
        <time>2017-06-11T09:26:53Z</time>
      </trkpt>
      <trkpt lat="44.11096" lon="7.05886">
        <ele>1599.7280273438</ele>
        <time>2017-06-11T09:27:00Z</time>
      </trkpt>
      <trkpt lat="44.111" lon="7.05878">
        <ele>1602.3280029297</ele>
        <time>2017-06-11T09:27:09Z</time>
      </trkpt>
      <trkpt lat="44.11091" lon="7.0587">
        <ele>1600.6280517578</ele>
        <time>2017-06-11T09:27:15Z</time>
      </trkpt>
      <trkpt lat="44.11088" lon="7.05856">
        <ele>1606.8280029297</ele>
        <time>2017-06-11T09:27:29Z</time>
      </trkpt>
      <trkpt lat="44.11092" lon="7.05841">
        <ele>1603.1280517578</ele>
        <time>2017-06-11T09:27:37Z</time>
      </trkpt>
      <trkpt lat="44.11103" lon="7.0584">
        <ele>1606.4279785156</ele>
        <time>2017-06-11T09:27:43Z</time>
      </trkpt>
      <trkpt lat="44.11117" lon="7.05826">
        <ele>1608.6280517578</ele>
        <time>2017-06-11T09:27:53Z</time>
      </trkpt>
      <trkpt lat="44.11125" lon="7.05822">
        <ele>1609.9279785156</ele>
        <time>2017-06-11T09:28:00Z</time>
      </trkpt>
      <trkpt lat="44.1113" lon="7.05812">
        <ele>1610.2280273438</ele>
        <time>2017-06-11T09:28:05Z</time>
      </trkpt>
      <trkpt lat="44.11143" lon="7.05802">
        <ele>1611.4279785156</ele>
        <time>2017-06-11T09:28:13Z</time>
      </trkpt>
      <trkpt lat="44.11152" lon="7.05778">
        <ele>1614.2280273438</ele>
        <time>2017-06-11T09:28:23Z</time>
      </trkpt>
      <trkpt lat="44.11144" lon="7.05774">
        <ele>1617.0279541016</ele>
        <time>2017-06-11T09:28:28Z</time>
      </trkpt>
      <trkpt lat="44.11152" lon="7.0577">
        <ele>1619.7280273438</ele>
        <time>2017-06-11T09:28:52Z</time>
      </trkpt>
      <trkpt lat="44.11158" lon="7.05765">
        <ele>1620.1280517578</ele>
        <time>2017-06-11T09:29:06Z</time>
      </trkpt>
      <trkpt lat="44.11158" lon="7.05748">
        <ele>1627.9279785156</ele>
        <time>2017-06-11T09:29:16Z</time>
      </trkpt>
      <trkpt lat="44.11162" lon="7.05739">
        <ele>1634.8280029297</ele>
        <time>2017-06-11T09:29:25Z</time>
      </trkpt>
      <trkpt lat="44.1117" lon="7.05738">
        <ele>1638.4279785156</ele>
        <time>2017-06-11T09:29:36Z</time>
      </trkpt>
      <trkpt lat="44.11177" lon="7.05731">
        <ele>1641.0279541016</ele>
        <time>2017-06-11T09:29:49Z</time>
      </trkpt>
      <trkpt lat="44.11176" lon="7.0572">
        <ele>1642.5279541016</ele>
        <time>2017-06-11T09:29:58Z</time>
      </trkpt>
      <trkpt lat="44.1118" lon="7.0571">
        <ele>1639.3280029297</ele>
        <time>2017-06-11T09:30:05Z</time>
      </trkpt>
      <trkpt lat="44.11183" lon="7.05686">
        <ele>1640.4279785156</ele>
        <time>2017-06-11T09:30:12Z</time>
      </trkpt>
      <trkpt lat="44.11188" lon="7.05678">
        <ele>1643.9279785156</ele>
        <time>2017-06-11T09:30:31Z</time>
      </trkpt>
      <trkpt lat="44.11196" lon="7.05667">
        <ele>1641.8280029297</ele>
        <time>2017-06-11T09:30:40Z</time>
      </trkpt>
      <trkpt lat="44.11209" lon="7.05649">
        <ele>1640.2280273438</ele>
        <time>2017-06-11T09:30:47Z</time>
      </trkpt>
      <trkpt lat="44.11216" lon="7.05638">
        <ele>1643.4279785156</ele>
        <time>2017-06-11T09:30:58Z</time>
      </trkpt>
      <trkpt lat="44.11291" lon="7.05659">
        <ele>1646.5279541016</ele>
        <time>2017-06-11T09:31:17Z</time>
      </trkpt>
      <trkpt lat="44.11295" lon="7.0565">
        <ele>1642.7280273438</ele>
        <time>2017-06-11T09:31:33Z</time>
      </trkpt>
      <trkpt lat="44.11301" lon="7.05644">
        <ele>1642.4279785156</ele>
        <time>2017-06-11T09:31:38Z</time>
      </trkpt>
      <trkpt lat="44.11308" lon="7.0564">
        <ele>1642.2280273438</ele>
        <time>2017-06-11T09:31:44Z</time>
      </trkpt>
      <trkpt lat="44.11314" lon="7.05635">
        <ele>1642.6280517578</ele>
        <time>2017-06-11T09:31:51Z</time>
      </trkpt>
      <trkpt lat="44.11324" lon="7.05619">
        <ele>1644.2280273438</ele>
        <time>2017-06-11T09:32:02Z</time>
      </trkpt>
      <trkpt lat="44.11321" lon="7.05604">
        <ele>1640.1280517578</ele>
        <time>2017-06-11T09:32:07Z</time>
      </trkpt>
      <trkpt lat="44.11367" lon="7.0557">
        <ele>1656.3280029297</ele>
        <time>2017-06-11T09:32:55Z</time>
      </trkpt>
      <trkpt lat="44.11378" lon="7.0557">
        <ele>1656.8280029297</ele>
        <time>2017-06-11T09:33:04Z</time>
      </trkpt>
      <trkpt lat="44.11394" lon="7.05564">
        <ele>1658.4279785156</ele>
        <time>2017-06-11T09:33:27Z</time>
      </trkpt>
      <trkpt lat="44.11394" lon="7.05552">
        <ele>1659.9279785156</ele>
        <time>2017-06-11T09:33:32Z</time>
      </trkpt>
      <trkpt lat="44.11398" lon="7.05543">
        <ele>1663.8280029297</ele>
        <time>2017-06-11T09:33:42Z</time>
      </trkpt>
      <trkpt lat="44.11405" lon="7.0554">
        <ele>1665.0279541016</ele>
        <time>2017-06-11T09:33:48Z</time>
      </trkpt>
      <trkpt lat="44.11411" lon="7.05535">
        <ele>1667.0279541016</ele>
        <time>2017-06-11T09:33:55Z</time>
      </trkpt>
      <trkpt lat="44.11416" lon="7.05527">
        <ele>1668.7280273438</ele>
        <time>2017-06-11T09:34:04Z</time>
      </trkpt>
      <trkpt lat="44.11424" lon="7.05522">
        <ele>1669.3280029297</ele>
        <time>2017-06-11T09:34:10Z</time>
      </trkpt>
      <trkpt lat="44.11432" lon="7.05521">
        <ele>1669.7280273438</ele>
        <time>2017-06-11T09:34:27Z</time>
      </trkpt>
      <trkpt lat="44.11431" lon="7.0551">
        <ele>1670.8280029297</ele>
        <time>2017-06-11T09:34:32Z</time>
      </trkpt>
      <trkpt lat="44.11439" lon="7.05507">
        <ele>1671.1280517578</ele>
        <time>2017-06-11T09:34:45Z</time>
      </trkpt>
      <trkpt lat="44.11445" lon="7.05501">
        <ele>1671.6280517578</ele>
        <time>2017-06-11T09:34:52Z</time>
      </trkpt>
      <trkpt lat="44.11453" lon="7.05499">
        <ele>1670.2280273438</ele>
        <time>2017-06-11T09:35:01Z</time>
      </trkpt>
      <trkpt lat="44.11455" lon="7.05489">
        <ele>1671.0279541016</ele>
        <time>2017-06-11T09:35:06Z</time>
      </trkpt>
      <trkpt lat="44.11459" lon="7.0548">
        <ele>1671.4279785156</ele>
        <time>2017-06-11T09:35:13Z</time>
      </trkpt>
      <trkpt lat="44.11467" lon="7.05487">
        <ele>1673.8280029297</ele>
        <time>2017-06-11T09:35:25Z</time>
      </trkpt>
      <trkpt lat="44.1147" lon="7.0548">
        <ele>1674.1280517578</ele>
        <time>2017-06-11T09:35:37Z</time>
      </trkpt>
      <trkpt lat="44.11473" lon="7.0547">
        <ele>1676.5279541016</ele>
        <time>2017-06-11T09:35:45Z</time>
      </trkpt>
      <trkpt lat="44.1148" lon="7.05464">
        <ele>1675.9279785156</ele>
        <time>2017-06-11T09:35:51Z</time>
      </trkpt>
      <trkpt lat="44.11486" lon="7.05457">
        <ele>1674.0279541016</ele>
        <time>2017-06-11T09:35:59Z</time>
      </trkpt>
      <trkpt lat="44.1149" lon="7.05448">
        <ele>1673.4279785156</ele>
        <time>2017-06-11T09:36:06Z</time>
      </trkpt>
      <trkpt lat="44.11488" lon="7.05422">
        <ele>1672.7280273438</ele>
        <time>2017-06-11T09:36:12Z</time>
      </trkpt>
      <trkpt lat="44.11467" lon="7.05412">
        <ele>1693.6280517578</ele>
        <time>2017-06-11T09:36:26Z</time>
      </trkpt>
      <trkpt lat="44.11472" lon="7.05419">
        <ele>1687.8280029297</ele>
        <time>2017-06-11T09:36:35Z</time>
      </trkpt>
      <trkpt lat="44.11487" lon="7.05427">
        <ele>1689.2280273438</ele>
        <time>2017-06-11T09:36:47Z</time>
      </trkpt>
      <trkpt lat="44.11494" lon="7.05428">
        <ele>1690.8280029297</ele>
        <time>2017-06-11T09:37:03Z</time>
      </trkpt>
      <trkpt lat="44.11501" lon="7.05423">
        <ele>1689.2280273438</ele>
        <time>2017-06-11T09:37:11Z</time>
      </trkpt>
      <trkpt lat="44.11479" lon="7.05408">
        <ele>1695.5279541016</ele>
        <time>2017-06-11T09:37:21Z</time>
      </trkpt>
      <trkpt lat="44.11486" lon="7.05413">
        <ele>1693.4279785156</ele>
        <time>2017-06-11T09:37:27Z</time>
      </trkpt>
      <trkpt lat="44.11495" lon="7.05412">
        <ele>1698.6280517578</ele>
        <time>2017-06-11T09:37:32Z</time>
      </trkpt>
      <trkpt lat="44.11508" lon="7.05393">
        <ele>1693.1280517578</ele>
        <time>2017-06-11T09:37:38Z</time>
      </trkpt>
      <trkpt lat="44.11516" lon="7.05407">
        <ele>1711.1280517578</ele>
        <time>2017-06-11T09:37:47Z</time>
      </trkpt>
      <trkpt lat="44.11524" lon="7.05411">
        <ele>1700.4279785156</ele>
        <time>2017-06-11T09:37:53Z</time>
      </trkpt>
      <trkpt lat="44.11531" lon="7.05406">
        <ele>1698.2280273438</ele>
        <time>2017-06-11T09:38:06Z</time>
      </trkpt>
      <trkpt lat="44.11508" lon="7.05376">
        <ele>1701.5279541016</ele>
        <time>2017-06-11T09:38:32Z</time>
      </trkpt>
      <trkpt lat="44.11523" lon="7.0539">
        <ele>1706.0279541016</ele>
        <time>2017-06-11T09:38:40Z</time>
      </trkpt>
      <trkpt lat="44.11528" lon="7.05382">
        <ele>1711.7280273438</ele>
        <time>2017-06-11T09:38:44Z</time>
      </trkpt>
      <trkpt lat="44.11537" lon="7.05368">
        <ele>1712.1280517578</ele>
        <time>2017-06-11T09:39:18Z</time>
      </trkpt>
      <trkpt lat="44.11544" lon="7.05363">
        <ele>1713.8280029297</ele>
        <time>2017-06-11T09:39:30Z</time>
      </trkpt>
      <trkpt lat="44.11552" lon="7.05363">
        <ele>1709.9279785156</ele>
        <time>2017-06-11T09:39:37Z</time>
      </trkpt>
      <trkpt lat="44.11557" lon="7.05354">
        <ele>1716.0279541016</ele>
        <time>2017-06-11T09:39:43Z</time>
      </trkpt>
      <trkpt lat="44.11567" lon="7.05348">
        <ele>1714.5279541016</ele>
        <time>2017-06-11T09:39:50Z</time>
      </trkpt>
      <trkpt lat="44.11569" lon="7.05358">
        <ele>1716.3280029297</ele>
        <time>2017-06-11T09:39:58Z</time>
      </trkpt>
      <trkpt lat="44.11573" lon="7.05368">
        <ele>1712.9279785156</ele>
        <time>2017-06-11T09:40:06Z</time>
      </trkpt>
      <trkpt lat="44.11581" lon="7.05368">
        <ele>1710.7280273438</ele>
        <time>2017-06-11T09:40:14Z</time>
      </trkpt>
      <trkpt lat="44.11574" lon="7.05371">
        <ele>1711.5279541016</ele>
        <time>2017-06-11T09:40:19Z</time>
      </trkpt>
      <trkpt lat="44.11587" lon="7.05383">
        <ele>1709.8280029297</ele>
        <time>2017-06-11T09:40:25Z</time>
      </trkpt>
      <trkpt lat="44.11603" lon="7.05382">
        <ele>1707.4279785156</ele>
        <time>2017-06-11T09:40:34Z</time>
      </trkpt>
      <trkpt lat="44.11611" lon="7.05383">
        <ele>1706.3280029297</ele>
        <time>2017-06-11T09:40:40Z</time>
      </trkpt>
      <trkpt lat="44.11618" lon="7.0539">
        <ele>1707.3280029297</ele>
        <time>2017-06-11T09:40:45Z</time>
      </trkpt>
      <trkpt lat="44.11599" lon="7.0535">
        <ele>1718.4279785156</ele>
        <time>2017-06-11T09:40:54Z</time>
      </trkpt>
      <trkpt lat="44.1162" lon="7.05366">
        <ele>1709.5279541016</ele>
        <time>2017-06-11T09:41:02Z</time>
      </trkpt>
      <trkpt lat="44.1161" lon="7.05376">
        <ele>1713.3280029297</ele>
        <time>2017-06-11T09:41:07Z</time>
      </trkpt>
      <trkpt lat="44.11616" lon="7.0537">
        <ele>1714.6280517578</ele>
        <time>2017-06-11T09:41:14Z</time>
      </trkpt>
      <trkpt lat="44.11621" lon="7.05362">
        <ele>1713.2280273438</ele>
        <time>2017-06-11T09:41:30Z</time>
      </trkpt>
      <trkpt lat="44.11624" lon="7.05352">
        <ele>1713.5279541016</ele>
        <time>2017-06-11T09:41:43Z</time>
      </trkpt>
      <trkpt lat="44.11615" lon="7.05344">
        <ele>1717.6280517578</ele>
        <time>2017-06-11T09:43:54Z</time>
      </trkpt>
      <trkpt lat="44.11624" lon="7.05346">
        <ele>1711.2280273438</ele>
        <time>2017-06-11T09:44:01Z</time>
      </trkpt>
      <trkpt lat="44.11612" lon="7.05336">
        <ele>1720.9279785156</ele>
        <time>2017-06-11T09:45:17Z</time>
      </trkpt>
      <trkpt lat="44.11601" lon="7.05344">
        <ele>1741.9279785156</ele>
        <time>2017-06-11T09:45:33Z</time>
      </trkpt>
      <trkpt lat="44.11608" lon="7.05339">
        <ele>1754.8280029297</ele>
        <time>2017-06-11T09:46:16Z</time>
      </trkpt>
      <trkpt lat="44.11613" lon="7.05332">
        <ele>1756.2280273438</ele>
        <time>2017-06-11T09:46:25Z</time>
      </trkpt>
      <trkpt lat="44.11619" lon="7.05325">
        <ele>1759.0279541016</ele>
        <time>2017-06-11T09:46:36Z</time>
      </trkpt>
      <trkpt lat="44.11625" lon="7.0532">
        <ele>1761.6280517578</ele>
        <time>2017-06-11T09:46:43Z</time>
      </trkpt>
      <trkpt lat="44.1163" lon="7.05312">
        <ele>1766.6280517578</ele>
        <time>2017-06-11T09:46:51Z</time>
      </trkpt>
      <trkpt lat="44.11635" lon="7.05303">
        <ele>1772.6280517578</ele>
        <time>2017-06-11T09:46:59Z</time>
      </trkpt>
      <trkpt lat="44.11642" lon="7.05297">
        <ele>1779.4279785156</ele>
        <time>2017-06-11T09:47:10Z</time>
      </trkpt>
      <trkpt lat="44.11657" lon="7.0529">
        <ele>1783.7280273438</ele>
        <time>2017-06-11T09:47:19Z</time>
      </trkpt>
      <trkpt lat="44.11663" lon="7.05284">
        <ele>1788.1280517578</ele>
        <time>2017-06-11T09:47:28Z</time>
      </trkpt>
      <trkpt lat="44.11662" lon="7.05273">
        <ele>1793.2280273438</ele>
        <time>2017-06-11T09:47:38Z</time>
      </trkpt>
      <trkpt lat="44.11663" lon="7.05262">
        <ele>1797.5279541016</ele>
        <time>2017-06-11T09:47:44Z</time>
      </trkpt>
      <trkpt lat="44.11657" lon="7.05247">
        <ele>1807.0279541016</ele>
        <time>2017-06-11T09:47:51Z</time>
      </trkpt>
      <trkpt lat="44.11665" lon="7.05241">
        <ele>1811.9279785156</ele>
        <time>2017-06-11T09:47:57Z</time>
      </trkpt>
      <trkpt lat="44.11671" lon="7.05236">
        <ele>1816.9279785156</ele>
        <time>2017-06-11T09:48:04Z</time>
      </trkpt>
      <trkpt lat="44.11682" lon="7.05221">
        <ele>1825.8280029297</ele>
        <time>2017-06-11T09:48:14Z</time>
      </trkpt>
      <trkpt lat="44.11688" lon="7.05212">
        <ele>1830.2280273438</ele>
        <time>2017-06-11T09:48:21Z</time>
      </trkpt>
      <trkpt lat="44.11691" lon="7.05204">
        <ele>1833.8280029297</ele>
        <time>2017-06-11T09:48:28Z</time>
      </trkpt>
      <trkpt lat="44.11694" lon="7.05194">
        <ele>1838.3280029297</ele>
        <time>2017-06-11T09:48:35Z</time>
      </trkpt>
      <trkpt lat="44.11697" lon="7.05185">
        <ele>1842.8280029297</ele>
        <time>2017-06-11T09:48:42Z</time>
      </trkpt>
      <trkpt lat="44.11704" lon="7.05177">
        <ele>1844.5279541016</ele>
        <time>2017-06-11T09:48:49Z</time>
      </trkpt>
      <trkpt lat="44.11711" lon="7.05171">
        <ele>1846.5279541016</ele>
        <time>2017-06-11T09:48:57Z</time>
      </trkpt>
      <trkpt lat="44.11716" lon="7.05161">
        <ele>1847.9279785156</ele>
        <time>2017-06-11T09:49:04Z</time>
      </trkpt>
      <trkpt lat="44.11723" lon="7.05154">
        <ele>1847.8280029297</ele>
        <time>2017-06-11T09:49:14Z</time>
      </trkpt>
      <trkpt lat="44.11726" lon="7.05146">
        <ele>1847.4279785156</ele>
        <time>2017-06-11T09:49:19Z</time>
      </trkpt>
      <trkpt lat="44.11729" lon="7.05135">
        <ele>1847.7280273438</ele>
        <time>2017-06-11T09:49:30Z</time>
      </trkpt>
      <trkpt lat="44.11731" lon="7.05125">
        <ele>1847.8280029297</ele>
        <time>2017-06-11T09:49:38Z</time>
      </trkpt>
      <trkpt lat="44.11735" lon="7.05115">
        <ele>1847.8280029297</ele>
        <time>2017-06-11T09:49:46Z</time>
      </trkpt>
      <trkpt lat="44.1174" lon="7.05107">
        <ele>1847.4279785156</ele>
        <time>2017-06-11T09:49:52Z</time>
      </trkpt>
      <trkpt lat="44.11745" lon="7.05101">
        <ele>1847.9279785156</ele>
        <time>2017-06-11T09:50:00Z</time>
      </trkpt>
      <trkpt lat="44.11751" lon="7.05094">
        <ele>1847.2280273438</ele>
        <time>2017-06-11T09:50:06Z</time>
      </trkpt>
      <trkpt lat="44.11755" lon="7.05086">
        <ele>1846.5279541016</ele>
        <time>2017-06-11T09:50:11Z</time>
      </trkpt>
      <trkpt lat="44.1176" lon="7.05079">
        <ele>1846.8270263672</ele>
        <time>2017-06-11T09:50:16Z</time>
      </trkpt>
      <trkpt lat="44.11767" lon="7.05075">
        <ele>1848.8280029297</ele>
        <time>2017-06-11T09:50:21Z</time>
      </trkpt>
      <trkpt lat="44.11775" lon="7.0507">
        <ele>1851.5279541016</ele>
        <time>2017-06-11T09:50:27Z</time>
      </trkpt>
      <trkpt lat="44.11781" lon="7.05063">
        <ele>1854.5269775391</ele>
        <time>2017-06-11T09:50:33Z</time>
      </trkpt>
      <trkpt lat="44.11788" lon="7.05058">
        <ele>1859.2270507812</ele>
        <time>2017-06-11T09:50:41Z</time>
      </trkpt>
      <trkpt lat="44.11794" lon="7.05051">
        <ele>1861.8270263672</ele>
        <time>2017-06-11T09:50:48Z</time>
      </trkpt>
      <trkpt lat="44.11799" lon="7.05042">
        <ele>1863.9270019531</ele>
        <time>2017-06-11T09:50:55Z</time>
      </trkpt>
      <trkpt lat="44.11804" lon="7.05034">
        <ele>1866.0269775391</ele>
        <time>2017-06-11T09:51:01Z</time>
      </trkpt>
      <trkpt lat="44.11809" lon="7.05027">
        <ele>1868.0269775391</ele>
        <time>2017-06-11T09:51:08Z</time>
      </trkpt>
      <trkpt lat="44.11814" lon="7.05019">
        <ele>1870.4270019531</ele>
        <time>2017-06-11T09:51:17Z</time>
      </trkpt>
      <trkpt lat="44.11821" lon="7.05012">
        <ele>1870.5269775391</ele>
        <time>2017-06-11T09:51:25Z</time>
      </trkpt>
      <trkpt lat="44.11827" lon="7.05006">
        <ele>1871.5269775391</ele>
        <time>2017-06-11T09:51:31Z</time>
      </trkpt>
      <trkpt lat="44.11834" lon="7.05002">
        <ele>1873.0269775391</ele>
        <time>2017-06-11T09:51:36Z</time>
      </trkpt>
      <trkpt lat="44.11842" lon="7.04996">
        <ele>1873.626953125</ele>
        <time>2017-06-11T09:51:42Z</time>
      </trkpt>
      <trkpt lat="44.11849" lon="7.04989">
        <ele>1874.5269775391</ele>
        <time>2017-06-11T09:51:48Z</time>
      </trkpt>
      <trkpt lat="44.11856" lon="7.04986">
        <ele>1876.626953125</ele>
        <time>2017-06-11T09:51:55Z</time>
      </trkpt>
      <trkpt lat="44.11863" lon="7.04978">
        <ele>1876.2270507812</ele>
        <time>2017-06-11T09:52:01Z</time>
      </trkpt>
      <trkpt lat="44.1187" lon="7.04974">
        <ele>1876.626953125</ele>
        <time>2017-06-11T09:52:07Z</time>
      </trkpt>
      <trkpt lat="44.11877" lon="7.04972">
        <ele>1878.0269775391</ele>
        <time>2017-06-11T09:52:14Z</time>
      </trkpt>
      <trkpt lat="44.11884" lon="7.04967">
        <ele>1879.626953125</ele>
        <time>2017-06-11T09:52:21Z</time>
      </trkpt>
      <trkpt lat="44.11891" lon="7.04962">
        <ele>1880.9270019531</ele>
        <time>2017-06-11T09:52:28Z</time>
      </trkpt>
      <trkpt lat="44.11898" lon="7.0496">
        <ele>1883.2270507812</ele>
        <time>2017-06-11T09:52:34Z</time>
      </trkpt>
      <trkpt lat="44.11905" lon="7.04958">
        <ele>1885.5269775391</ele>
        <time>2017-06-11T09:52:40Z</time>
      </trkpt>
      <trkpt lat="44.11913" lon="7.04957">
        <ele>1887.8270263672</ele>
        <time>2017-06-11T09:52:51Z</time>
      </trkpt>
      <trkpt lat="44.11921" lon="7.04957">
        <ele>1888.7270507812</ele>
        <time>2017-06-11T09:53:10Z</time>
      </trkpt>
      <trkpt lat="44.11927" lon="7.04952">
        <ele>1889.626953125</ele>
        <time>2017-06-11T09:53:28Z</time>
      </trkpt>
      <trkpt lat="44.11933" lon="7.04944">
        <ele>1889.9270019531</ele>
        <time>2017-06-11T09:53:42Z</time>
      </trkpt>
      <trkpt lat="44.11937" lon="7.04936">
        <ele>1890.7270507812</ele>
        <time>2017-06-11T09:53:53Z</time>
      </trkpt>
      <trkpt lat="44.11943" lon="7.04928">
        <ele>1892.0269775391</ele>
        <time>2017-06-11T09:54:07Z</time>
      </trkpt>
      <trkpt lat="44.1195" lon="7.04926">
        <ele>1893.3270263672</ele>
        <time>2017-06-11T09:54:22Z</time>
      </trkpt>
      <trkpt lat="44.11956" lon="7.0492">
        <ele>1893.626953125</ele>
        <time>2017-06-11T09:54:33Z</time>
      </trkpt>
      <trkpt lat="44.1196" lon="7.04911">
        <ele>1893.5269775391</ele>
        <time>2017-06-11T09:54:42Z</time>
      </trkpt>
      <trkpt lat="44.11964" lon="7.04902">
        <ele>1893.7270507812</ele>
        <time>2017-06-11T09:54:51Z</time>
      </trkpt>
      <trkpt lat="44.11971" lon="7.04898">
        <ele>1893.9270019531</ele>
        <time>2017-06-11T09:55:00Z</time>
      </trkpt>
      <trkpt lat="44.11978" lon="7.04892">
        <ele>1894.7270507812</ele>
        <time>2017-06-11T09:55:11Z</time>
      </trkpt>
      <trkpt lat="44.11985" lon="7.04885">
        <ele>1895.7270507812</ele>
        <time>2017-06-11T09:55:24Z</time>
      </trkpt>
      <trkpt lat="44.11988" lon="7.04876">
        <ele>1897.3270263672</ele>
        <time>2017-06-11T09:55:30Z</time>
      </trkpt>
      <trkpt lat="44.11994" lon="7.04869">
        <ele>1898.8270263672</ele>
        <time>2017-06-11T09:55:40Z</time>
      </trkpt>
      <trkpt lat="44.11997" lon="7.04859">
        <ele>1900.4270019531</ele>
        <time>2017-06-11T09:55:50Z</time>
      </trkpt>
      <trkpt lat="44.12003" lon="7.04851">
        <ele>1901.7270507812</ele>
        <time>2017-06-11T09:56:00Z</time>
      </trkpt>
      <trkpt lat="44.12007" lon="7.04843">
        <ele>1903.7270507812</ele>
        <time>2017-06-11T09:56:08Z</time>
      </trkpt>
      <trkpt lat="44.12012" lon="7.04835">
        <ele>1905.3270263672</ele>
        <time>2017-06-11T09:56:19Z</time>
      </trkpt>
      <trkpt lat="44.12016" lon="7.04824">
        <ele>1906.5269775391</ele>
        <time>2017-06-11T09:56:28Z</time>
      </trkpt>
      <trkpt lat="44.12019" lon="7.04814">
        <ele>1907.626953125</ele>
        <time>2017-06-11T09:56:36Z</time>
      </trkpt>
      <trkpt lat="44.12017" lon="7.04804">
        <ele>1909.3270263672</ele>
        <time>2017-06-11T09:56:47Z</time>
      </trkpt>
      <trkpt lat="44.12023" lon="7.04797">
        <ele>1910.3270263672</ele>
        <time>2017-06-11T09:56:59Z</time>
      </trkpt>
      <trkpt lat="44.12029" lon="7.04792">
        <ele>1910.5269775391</ele>
        <time>2017-06-11T09:57:11Z</time>
      </trkpt>
      <trkpt lat="44.12037" lon="7.04791">
        <ele>1910.626953125</ele>
        <time>2017-06-11T09:57:20Z</time>
      </trkpt>
      <trkpt lat="44.12044" lon="7.04789">
        <ele>1911.5269775391</ele>
        <time>2017-06-11T09:57:31Z</time>
      </trkpt>
      <trkpt lat="44.12052" lon="7.04788">
        <ele>1912.7270507812</ele>
        <time>2017-06-11T09:57:39Z</time>
      </trkpt>
      <trkpt lat="44.1206" lon="7.04791">
        <ele>1914.2270507812</ele>
        <time>2017-06-11T09:57:51Z</time>
      </trkpt>
      <trkpt lat="44.12067" lon="7.04786">
        <ele>1915.126953125</ele>
        <time>2017-06-11T09:58:02Z</time>
      </trkpt>
      <trkpt lat="44.12072" lon="7.04779">
        <ele>1915.9270019531</ele>
        <time>2017-06-11T09:58:14Z</time>
      </trkpt>
      <trkpt lat="44.1208" lon="7.04776">
        <ele>1920.8270263672</ele>
        <time>2017-06-11T09:58:25Z</time>
      </trkpt>
      <trkpt lat="44.12087" lon="7.04774">
        <ele>1923.626953125</ele>
        <time>2017-06-11T09:58:35Z</time>
      </trkpt>
      <trkpt lat="44.12095" lon="7.04775">
        <ele>1926.5269775391</ele>
        <time>2017-06-11T09:58:44Z</time>
      </trkpt>
      <trkpt lat="44.12102" lon="7.04775">
        <ele>1930.7270507812</ele>
        <time>2017-06-11T09:58:55Z</time>
      </trkpt>
      <trkpt lat="44.1211" lon="7.04775">
        <ele>1934.0269775391</ele>
        <time>2017-06-11T09:59:09Z</time>
      </trkpt>
      <trkpt lat="44.12118" lon="7.04774">
        <ele>1937.0269775391</ele>
        <time>2017-06-11T09:59:21Z</time>
      </trkpt>
      <trkpt lat="44.12125" lon="7.04775">
        <ele>1938.5269775391</ele>
        <time>2017-06-11T09:59:31Z</time>
      </trkpt>
      <trkpt lat="44.12133" lon="7.04774">
        <ele>1939.0269775391</ele>
        <time>2017-06-11T09:59:42Z</time>
      </trkpt>
      <trkpt lat="44.1214" lon="7.04778">
        <ele>1939.5269775391</ele>
        <time>2017-06-11T09:59:49Z</time>
      </trkpt>
      <trkpt lat="44.12147" lon="7.0478">
        <ele>1941.5269775391</ele>
        <time>2017-06-11T10:00:01Z</time>
      </trkpt>
      <trkpt lat="44.12155" lon="7.0478">
        <ele>1943.3280029297</ele>
        <time>2017-06-11T10:00:16Z</time>
      </trkpt>
      <trkpt lat="44.12162" lon="7.04782">
        <ele>1944.5279541016</ele>
        <time>2017-06-11T10:00:29Z</time>
      </trkpt>
      <trkpt lat="44.1217" lon="7.04782">
        <ele>1945.7280273438</ele>
        <time>2017-06-11T10:00:42Z</time>
      </trkpt>
      <trkpt lat="44.12177" lon="7.04784">
        <ele>1947.8280029297</ele>
        <time>2017-06-11T10:00:56Z</time>
      </trkpt>
      <trkpt lat="44.12184" lon="7.04788">
        <ele>1948.3280029297</ele>
        <time>2017-06-11T10:01:02Z</time>
      </trkpt>
      <trkpt lat="44.1219" lon="7.04793">
        <ele>1949.1280517578</ele>
        <time>2017-06-11T10:01:08Z</time>
      </trkpt>
      <trkpt lat="44.12198" lon="7.04795">
        <ele>1949.6280517578</ele>
        <time>2017-06-11T10:01:15Z</time>
      </trkpt>
      <trkpt lat="44.12206" lon="7.04798">
        <ele>1950.8280029297</ele>
        <time>2017-06-11T10:01:24Z</time>
      </trkpt>
      <trkpt lat="44.12213" lon="7.04795">
        <ele>1952.0279541016</ele>
        <time>2017-06-11T10:01:32Z</time>
      </trkpt>
      <trkpt lat="44.1222" lon="7.04793">
        <ele>1953.2280273438</ele>
        <time>2017-06-11T10:01:38Z</time>
      </trkpt>
      <trkpt lat="44.12228" lon="7.04794">
        <ele>1955.5279541016</ele>
        <time>2017-06-11T10:01:47Z</time>
      </trkpt>
      <trkpt lat="44.12235" lon="7.04798">
        <ele>1957.5279541016</ele>
        <time>2017-06-11T10:01:58Z</time>
      </trkpt>
      <trkpt lat="44.12241" lon="7.04805">
        <ele>1958.8280029297</ele>
        <time>2017-06-11T10:02:07Z</time>
      </trkpt>
      <trkpt lat="44.12248" lon="7.04808">
        <ele>1959.4279785156</ele>
        <time>2017-06-11T10:02:16Z</time>
      </trkpt>
      <trkpt lat="44.12255" lon="7.04812">
        <ele>1961.4279785156</ele>
        <time>2017-06-11T10:02:28Z</time>
      </trkpt>
      <trkpt lat="44.12263" lon="7.04814">
        <ele>1961.8280029297</ele>
        <time>2017-06-11T10:02:37Z</time>
      </trkpt>
      <trkpt lat="44.12271" lon="7.04815">
        <ele>1962.5279541016</ele>
        <time>2017-06-11T10:02:44Z</time>
      </trkpt>
      <trkpt lat="44.12279" lon="7.04814">
        <ele>1963.5279541016</ele>
        <time>2017-06-11T10:02:51Z</time>
      </trkpt>
      <trkpt lat="44.12286" lon="7.04814">
        <ele>1963.6280517578</ele>
        <time>2017-06-11T10:02:58Z</time>
      </trkpt>
      <trkpt lat="44.12294" lon="7.04809">
        <ele>1964.6280517578</ele>
        <time>2017-06-11T10:03:06Z</time>
      </trkpt>
      <trkpt lat="44.12301" lon="7.04807">
        <ele>1966.6280517578</ele>
        <time>2017-06-11T10:03:13Z</time>
      </trkpt>
      <trkpt lat="44.12309" lon="7.04806">
        <ele>1967.4279785156</ele>
        <time>2017-06-11T10:03:21Z</time>
      </trkpt>
      <trkpt lat="44.12316" lon="7.04804">
        <ele>1968.8280029297</ele>
        <time>2017-06-11T10:03:28Z</time>
      </trkpt>
      <trkpt lat="44.12323" lon="7.04802">
        <ele>1969.0279541016</ele>
        <time>2017-06-11T10:03:36Z</time>
      </trkpt>
      <trkpt lat="44.12331" lon="7.04801">
        <ele>1969.6280517578</ele>
        <time>2017-06-11T10:03:44Z</time>
      </trkpt>
      <trkpt lat="44.12338" lon="7.04797">
        <ele>1970.7280273438</ele>
        <time>2017-06-11T10:03:51Z</time>
      </trkpt>
      <trkpt lat="44.12346" lon="7.04794">
        <ele>1972.1280517578</ele>
        <time>2017-06-11T10:03:59Z</time>
      </trkpt>
      <trkpt lat="44.12353" lon="7.04789">
        <ele>1972.4279785156</ele>
        <time>2017-06-11T10:04:07Z</time>
      </trkpt>
      <trkpt lat="44.12361" lon="7.04787">
        <ele>1971.7280273438</ele>
        <time>2017-06-11T10:04:14Z</time>
      </trkpt>
      <trkpt lat="44.12368" lon="7.04782">
        <ele>1970.7280273438</ele>
        <time>2017-06-11T10:04:21Z</time>
      </trkpt>
      <trkpt lat="44.12375" lon="7.04777">
        <ele>1970.6280517578</ele>
        <time>2017-06-11T10:04:27Z</time>
      </trkpt>
      <trkpt lat="44.12381" lon="7.0477">
        <ele>1970.6280517578</ele>
        <time>2017-06-11T10:04:33Z</time>
      </trkpt>
      <trkpt lat="44.12388" lon="7.04765">
        <ele>1972.0279541016</ele>
        <time>2017-06-11T10:04:40Z</time>
      </trkpt>
      <trkpt lat="44.12396" lon="7.04761">
        <ele>1974.2280273438</ele>
        <time>2017-06-11T10:04:47Z</time>
      </trkpt>
      <trkpt lat="44.12402" lon="7.04756">
        <ele>1975.1280517578</ele>
        <time>2017-06-11T10:04:55Z</time>
      </trkpt>
      <trkpt lat="44.12409" lon="7.04749">
        <ele>1975.8280029297</ele>
        <time>2017-06-11T10:05:02Z</time>
      </trkpt>
      <trkpt lat="44.12415" lon="7.04744">
        <ele>1976.0279541016</ele>
        <time>2017-06-11T10:05:07Z</time>
      </trkpt>
      <trkpt lat="44.12423" lon="7.04738">
        <ele>1976.6280517578</ele>
        <time>2017-06-11T10:05:13Z</time>
      </trkpt>
      <trkpt lat="44.12429" lon="7.04733">
        <ele>1977.0279541016</ele>
        <time>2017-06-11T10:05:31Z</time>
      </trkpt>
      <trkpt lat="44.12434" lon="7.04726">
        <ele>1975.1280517578</ele>
        <time>2017-06-11T10:05:41Z</time>
      </trkpt>
      <trkpt lat="44.1244" lon="7.0472">
        <ele>1974.2280273438</ele>
        <time>2017-06-11T10:05:49Z</time>
      </trkpt>
      <trkpt lat="44.12441" lon="7.04709">
        <ele>1973.9279785156</ele>
        <time>2017-06-11T10:06:00Z</time>
      </trkpt>
      <trkpt lat="44.12447" lon="7.04702">
        <ele>1973.8280029297</ele>
        <time>2017-06-11T10:06:09Z</time>
      </trkpt>
      <trkpt lat="44.12454" lon="7.047">
        <ele>1974.6280517578</ele>
        <time>2017-06-11T10:06:15Z</time>
      </trkpt>
      <trkpt lat="44.12461" lon="7.04695">
        <ele>1976.0279541016</ele>
        <time>2017-06-11T10:06:25Z</time>
      </trkpt>
      <trkpt lat="44.12468" lon="7.04688">
        <ele>1977.4279785156</ele>
        <time>2017-06-11T10:06:37Z</time>
      </trkpt>
      <trkpt lat="44.12475" lon="7.04682">
        <ele>1978.4279785156</ele>
        <time>2017-06-11T10:06:45Z</time>
      </trkpt>
      <trkpt lat="44.1248" lon="7.04676">
        <ele>1980.1280517578</ele>
        <time>2017-06-11T10:06:53Z</time>
      </trkpt>
      <trkpt lat="44.12487" lon="7.04671">
        <ele>1981.7280273438</ele>
        <time>2017-06-11T10:07:02Z</time>
      </trkpt>
      <trkpt lat="44.12495" lon="7.0467">
        <ele>1984.2280273438</ele>
        <time>2017-06-11T10:07:14Z</time>
      </trkpt>
      <trkpt lat="44.12501" lon="7.04664">
        <ele>1986.5279541016</ele>
        <time>2017-06-11T10:07:27Z</time>
      </trkpt>
      <trkpt lat="44.12507" lon="7.04659">
        <ele>1988.5279541016</ele>
        <time>2017-06-11T10:07:37Z</time>
      </trkpt>
      <trkpt lat="44.12513" lon="7.04654">
        <ele>1990.0279541016</ele>
        <time>2017-06-11T10:07:48Z</time>
      </trkpt>
      <trkpt lat="44.12518" lon="7.04647">
        <ele>1991.3280029297</ele>
        <time>2017-06-11T10:08:02Z</time>
      </trkpt>
      <trkpt lat="44.12524" lon="7.0464">
        <ele>1991.9279785156</ele>
        <time>2017-06-11T10:08:15Z</time>
      </trkpt>
      <trkpt lat="44.12529" lon="7.04631">
        <ele>1993.3280029297</ele>
        <time>2017-06-11T10:08:28Z</time>
      </trkpt>
      <trkpt lat="44.12536" lon="7.04628">
        <ele>1996.2280273438</ele>
        <time>2017-06-11T10:08:47Z</time>
      </trkpt>
      <trkpt lat="44.12541" lon="7.0462">
        <ele>1998.4279785156</ele>
        <time>2017-06-11T10:09:02Z</time>
      </trkpt>
      <trkpt lat="44.12547" lon="7.04615">
        <ele>1999.7280273438</ele>
        <time>2017-06-11T10:09:13Z</time>
      </trkpt>
      <trkpt lat="44.12552" lon="7.04606">
        <ele>2001.2280273438</ele>
        <time>2017-06-11T10:09:26Z</time>
      </trkpt>
      <trkpt lat="44.12557" lon="7.04599">
        <ele>2003.2280273438</ele>
        <time>2017-06-11T10:09:36Z</time>
      </trkpt>
      <trkpt lat="44.12561" lon="7.0459">
        <ele>2004.4279785156</ele>
        <time>2017-06-11T10:09:48Z</time>
      </trkpt>
      <trkpt lat="44.12563" lon="7.0458">
        <ele>2005.2280273438</ele>
        <time>2017-06-11T10:10:04Z</time>
      </trkpt>
      <trkpt lat="44.12564" lon="7.04569">
        <ele>2006.6280517578</ele>
        <time>2017-06-11T10:10:18Z</time>
      </trkpt>
      <trkpt lat="44.12568" lon="7.0456">
        <ele>2010.4279785156</ele>
        <time>2017-06-11T10:10:31Z</time>
      </trkpt>
      <trkpt lat="44.1257" lon="7.0455">
        <ele>2012.8280029297</ele>
        <time>2017-06-11T10:10:42Z</time>
      </trkpt>
      <trkpt lat="44.12573" lon="7.0454">
        <ele>2014.8280029297</ele>
        <time>2017-06-11T10:10:55Z</time>
      </trkpt>
      <trkpt lat="44.12573" lon="7.0453">
        <ele>2015.7280273438</ele>
        <time>2017-06-11T10:11:09Z</time>
      </trkpt>
      <trkpt lat="44.12574" lon="7.04519">
        <ele>2016.4279785156</ele>
        <time>2017-06-11T10:11:23Z</time>
      </trkpt>
      <trkpt lat="44.12575" lon="7.04509">
        <ele>2017.7280273438</ele>
        <time>2017-06-11T10:11:36Z</time>
      </trkpt>
      <trkpt lat="44.12576" lon="7.04499">
        <ele>2019.2280273438</ele>
        <time>2017-06-11T10:11:48Z</time>
      </trkpt>
      <trkpt lat="44.12579" lon="7.04489">
        <ele>2021.3280029297</ele>
        <time>2017-06-11T10:12:00Z</time>
      </trkpt>
      <trkpt lat="44.12581" lon="7.04479">
        <ele>2022.6280517578</ele>
        <time>2017-06-11T10:12:11Z</time>
      </trkpt>
      <trkpt lat="44.12583" lon="7.04469">
        <ele>2023.2280273438</ele>
        <time>2017-06-11T10:12:20Z</time>
      </trkpt>
      <trkpt lat="44.12586" lon="7.0446">
        <ele>2024.7280273438</ele>
        <time>2017-06-11T10:12:30Z</time>
      </trkpt>
      <trkpt lat="44.12587" lon="7.0445">
        <ele>2026.4279785156</ele>
        <time>2017-06-11T10:12:37Z</time>
      </trkpt>
      <trkpt lat="44.12589" lon="7.04439">
        <ele>2027.4270019531</ele>
        <time>2017-06-11T10:12:46Z</time>
      </trkpt>
      <trkpt lat="44.12589" lon="7.04428">
        <ele>2029.3270263672</ele>
        <time>2017-06-11T10:12:53Z</time>
      </trkpt>
      <trkpt lat="44.12592" lon="7.04418">
        <ele>2032.0269775391</ele>
        <time>2017-06-11T10:13:01Z</time>
      </trkpt>
      <trkpt lat="44.12597" lon="7.0441">
        <ele>2033.2270507812</ele>
        <time>2017-06-11T10:13:09Z</time>
      </trkpt>
      <trkpt lat="44.12599" lon="7.04399">
        <ele>2034.7270507812</ele>
        <time>2017-06-11T10:13:18Z</time>
      </trkpt>
      <trkpt lat="44.12602" lon="7.0439">
        <ele>2035.5269775391</ele>
        <time>2017-06-11T10:13:26Z</time>
      </trkpt>
      <trkpt lat="44.12607" lon="7.04383">
        <ele>2036.126953125</ele>
        <time>2017-06-11T10:13:33Z</time>
      </trkpt>
      <trkpt lat="44.12612" lon="7.04375">
        <ele>2035.4270019531</ele>
        <time>2017-06-11T10:13:41Z</time>
      </trkpt>
      <trkpt lat="44.12617" lon="7.04368">
        <ele>2035.8270263672</ele>
        <time>2017-06-11T10:13:49Z</time>
      </trkpt>
      <trkpt lat="44.12623" lon="7.0436">
        <ele>2035.2270507812</ele>
        <time>2017-06-11T10:13:57Z</time>
      </trkpt>
      <trkpt lat="44.12628" lon="7.04353">
        <ele>2035.626953125</ele>
        <time>2017-06-11T10:14:06Z</time>
      </trkpt>
      <trkpt lat="44.12633" lon="7.04345">
        <ele>2036.9270019531</ele>
        <time>2017-06-11T10:14:15Z</time>
      </trkpt>
      <trkpt lat="44.12639" lon="7.04337">
        <ele>2037.3270263672</ele>
        <time>2017-06-11T10:14:25Z</time>
      </trkpt>
      <trkpt lat="44.12645" lon="7.04331">
        <ele>2038.7270507812</ele>
        <time>2017-06-11T10:14:43Z</time>
      </trkpt>
      <trkpt lat="44.12651" lon="7.04324">
        <ele>2039.8270263672</ele>
        <time>2017-06-11T10:14:55Z</time>
      </trkpt>
      <trkpt lat="44.12658" lon="7.0432">
        <ele>2041.5269775391</ele>
        <time>2017-06-11T10:15:05Z</time>
      </trkpt>
      <trkpt lat="44.12664" lon="7.04315">
        <ele>2045.3270263672</ele>
        <time>2017-06-11T10:15:15Z</time>
      </trkpt>
      <trkpt lat="44.12672" lon="7.04314">
        <ele>2053.3269042969</ele>
        <time>2017-06-11T10:15:29Z</time>
      </trkpt>
      <trkpt lat="44.12679" lon="7.04312">
        <ele>2057.626953125</ele>
        <time>2017-06-11T10:15:42Z</time>
      </trkpt>
      <trkpt lat="44.12686" lon="7.04308">
        <ele>2059.126953125</ele>
        <time>2017-06-11T10:15:52Z</time>
      </trkpt>
      <trkpt lat="44.12694" lon="7.04303">
        <ele>2060.3269042969</ele>
        <time>2017-06-11T10:16:03Z</time>
      </trkpt>
      <trkpt lat="44.12702" lon="7.04301">
        <ele>2061.7270507812</ele>
        <time>2017-06-11T10:16:14Z</time>
      </trkpt>
      <trkpt lat="44.12709" lon="7.04298">
        <ele>2063.3269042969</ele>
        <time>2017-06-11T10:16:25Z</time>
      </trkpt>
      <trkpt lat="44.12716" lon="7.04295">
        <ele>2064.7270507812</ele>
        <time>2017-06-11T10:16:36Z</time>
      </trkpt>
      <trkpt lat="44.12723" lon="7.04293">
        <ele>2066.8269042969</ele>
        <time>2017-06-11T10:16:47Z</time>
      </trkpt>
      <trkpt lat="44.12731" lon="7.04293">
        <ele>2069.126953125</ele>
        <time>2017-06-11T10:17:07Z</time>
      </trkpt>
      <trkpt lat="44.12736" lon="7.04301">
        <ele>2068.0270996094</ele>
        <time>2017-06-11T10:17:22Z</time>
      </trkpt>
      <trkpt lat="44.12744" lon="7.04301">
        <ele>2069.0270996094</ele>
        <time>2017-06-11T10:17:34Z</time>
      </trkpt>
      <trkpt lat="44.12752" lon="7.04301">
        <ele>2068.5270996094</ele>
        <time>2017-06-11T10:17:51Z</time>
      </trkpt>
      <trkpt lat="44.1276" lon="7.04298">
        <ele>2071.2270507812</ele>
        <time>2017-06-11T10:18:09Z</time>
      </trkpt>
      <trkpt lat="44.12767" lon="7.04298">
        <ele>2074.9270019531</ele>
        <time>2017-06-11T10:18:21Z</time>
      </trkpt>
      <trkpt lat="44.12775" lon="7.04301">
        <ele>2078.4270019531</ele>
        <time>2017-06-11T10:18:31Z</time>
      </trkpt>
      <trkpt lat="44.12783" lon="7.04299">
        <ele>2079.7270507812</ele>
        <time>2017-06-11T10:18:41Z</time>
      </trkpt>
      <trkpt lat="44.12789" lon="7.04294">
        <ele>2080.0270996094</ele>
        <time>2017-06-11T10:18:51Z</time>
      </trkpt>
      <trkpt lat="44.12797" lon="7.04295">
        <ele>2082.1279296875</ele>
        <time>2017-06-11T10:19:00Z</time>
      </trkpt>
      <trkpt lat="44.12803" lon="7.043">
        <ele>2084.6279296875</ele>
        <time>2017-06-11T10:19:11Z</time>
      </trkpt>
      <trkpt lat="44.12811" lon="7.04303">
        <ele>2084.6279296875</ele>
        <time>2017-06-11T10:19:23Z</time>
      </trkpt>
      <trkpt lat="44.12818" lon="7.04298">
        <ele>2084.4279785156</ele>
        <time>2017-06-11T10:19:33Z</time>
      </trkpt>
      <trkpt lat="44.12822" lon="7.04289">
        <ele>2082.6279296875</ele>
        <time>2017-06-11T10:19:42Z</time>
      </trkpt>
      <trkpt lat="44.12828" lon="7.04282">
        <ele>2081.6279296875</ele>
        <time>2017-06-11T10:19:52Z</time>
      </trkpt>
      <trkpt lat="44.12835" lon="7.04281">
        <ele>2082.4279785156</ele>
        <time>2017-06-11T10:19:59Z</time>
      </trkpt>
      <trkpt lat="44.12843" lon="7.0428">
        <ele>2082.5280761719</ele>
        <time>2017-06-11T10:20:08Z</time>
      </trkpt>
      <trkpt lat="44.1285" lon="7.04284">
        <ele>2084.5280761719</ele>
        <time>2017-06-11T10:20:19Z</time>
      </trkpt>
      <trkpt lat="44.12853" lon="7.04293">
        <ele>2086.2280273438</ele>
        <time>2017-06-11T10:20:31Z</time>
      </trkpt>
      <trkpt lat="44.12859" lon="7.04299">
        <ele>2086.5280761719</ele>
        <time>2017-06-11T10:20:39Z</time>
      </trkpt>
      <trkpt lat="44.12866" lon="7.04303">
        <ele>2086.5280761719</ele>
        <time>2017-06-11T10:20:50Z</time>
      </trkpt>
      <trkpt lat="44.12873" lon="7.04307">
        <ele>2086.4279785156</ele>
        <time>2017-06-11T10:20:58Z</time>
      </trkpt>
      <trkpt lat="44.12879" lon="7.04314">
        <ele>2087.6279296875</ele>
        <time>2017-06-11T10:21:10Z</time>
      </trkpt>
      <trkpt lat="44.12886" lon="7.0432">
        <ele>2089.3278808594</ele>
        <time>2017-06-11T10:21:23Z</time>
      </trkpt>
      <trkpt lat="44.12892" lon="7.04316">
        <ele>2090.8278808594</ele>
        <time>2017-06-11T10:21:42Z</time>
      </trkpt>
      <trkpt lat="44.12893" lon="7.04305">
        <ele>2090.1279296875</ele>
        <time>2017-06-11T10:22:00Z</time>
      </trkpt>
      <trkpt lat="44.12895" lon="7.04295">
        <ele>2088.6279296875</ele>
        <time>2017-06-11T10:22:12Z</time>
      </trkpt>
      <trkpt lat="44.12902" lon="7.04292">
        <ele>2090.6279296875</ele>
        <time>2017-06-11T10:22:35Z</time>
      </trkpt>
      <trkpt lat="44.12907" lon="7.043">
        <ele>2093.8278808594</ele>
        <time>2017-06-11T10:22:51Z</time>
      </trkpt>
      <trkpt lat="44.12914" lon="7.04304">
        <ele>2098.8278808594</ele>
        <time>2017-06-11T10:23:11Z</time>
      </trkpt>
      <trkpt lat="44.12922" lon="7.04306">
        <ele>2102.1279296875</ele>
        <time>2017-06-11T10:23:28Z</time>
      </trkpt>
      <trkpt lat="44.12929" lon="7.04309">
        <ele>2102.1279296875</ele>
        <time>2017-06-11T10:23:43Z</time>
      </trkpt>
      <trkpt lat="44.12937" lon="7.0431">
        <ele>2101.3278808594</ele>
        <time>2017-06-11T10:23:56Z</time>
      </trkpt>
      <trkpt lat="44.12937" lon="7.043">
        <ele>2098.3278808594</ele>
        <time>2017-06-11T10:24:15Z</time>
      </trkpt>
      <trkpt lat="44.12936" lon="7.04289">
        <ele>2095.5280761719</ele>
        <time>2017-06-11T10:24:34Z</time>
      </trkpt>
      <trkpt lat="44.12937" lon="7.04279">
        <ele>2094.7280273438</ele>
        <time>2017-06-11T10:24:49Z</time>
      </trkpt>
      <trkpt lat="44.12943" lon="7.04273">
        <ele>2106.8278808594</ele>
        <time>2017-06-11T10:25:14Z</time>
      </trkpt>
      <trkpt lat="44.1295" lon="7.04275">
        <ele>2114.3278808594</ele>
        <time>2017-06-11T10:25:24Z</time>
      </trkpt>
      <trkpt lat="44.12956" lon="7.04269">
        <ele>2129.8278808594</ele>
        <time>2017-06-11T10:25:49Z</time>
      </trkpt>
      <trkpt lat="44.12955" lon="7.04258">
        <ele>2138.3278808594</ele>
        <time>2017-06-11T10:26:13Z</time>
      </trkpt>
      <trkpt lat="44.12963" lon="7.04259">
        <ele>2141.5280761719</ele>
        <time>2017-06-11T10:26:24Z</time>
      </trkpt>
      <trkpt lat="44.12971" lon="7.04261">
        <ele>2144.0280761719</ele>
        <time>2017-06-11T10:26:33Z</time>
      </trkpt>
      <trkpt lat="44.12978" lon="7.04259">
        <ele>2146.1279296875</ele>
        <time>2017-06-11T10:26:42Z</time>
      </trkpt>
      <trkpt lat="44.12986" lon="7.04258">
        <ele>2149.1279296875</ele>
        <time>2017-06-11T10:26:55Z</time>
      </trkpt>
      <trkpt lat="44.12994" lon="7.04255">
        <ele>2150.8278808594</ele>
        <time>2017-06-11T10:27:05Z</time>
      </trkpt>
      <trkpt lat="44.13001" lon="7.04255">
        <ele>2152.7280273438</ele>
        <time>2017-06-11T10:27:16Z</time>
      </trkpt>
      <trkpt lat="44.13009" lon="7.04256">
        <ele>2153.7280273438</ele>
        <time>2017-06-11T10:27:25Z</time>
      </trkpt>
      <trkpt lat="44.13015" lon="7.04261">
        <ele>2153.5280761719</ele>
        <time>2017-06-11T10:27:59Z</time>
      </trkpt>
      <trkpt lat="44.13007" lon="7.04263">
        <ele>2161.0280761719</ele>
        <time>2017-06-11T10:53:07Z</time>
      </trkpt>
      <trkpt lat="44.12998" lon="7.04266">
        <ele>2161.8278808594</ele>
        <time>2017-06-11T10:53:12Z</time>
      </trkpt>
      <trkpt lat="44.12981" lon="7.04271">
        <ele>2161.3278808594</ele>
        <time>2017-06-11T10:53:18Z</time>
      </trkpt>
      <trkpt lat="44.12974" lon="7.04277">
        <ele>2159.9279785156</ele>
        <time>2017-06-11T10:53:33Z</time>
      </trkpt>
      <trkpt lat="44.12966" lon="7.04281">
        <ele>2158.6279296875</ele>
        <time>2017-06-11T10:53:38Z</time>
      </trkpt>
      <trkpt lat="44.12952" lon="7.04292">
        <ele>2155.1279296875</ele>
        <time>2017-06-11T10:53:47Z</time>
      </trkpt>
      <trkpt lat="44.12936" lon="7.0429">
        <ele>2153.2280273438</ele>
        <time>2017-06-11T10:53:53Z</time>
      </trkpt>
      <trkpt lat="44.12929" lon="7.04294">
        <ele>2151.0280761719</ele>
        <time>2017-06-11T10:53:58Z</time>
      </trkpt>
      <trkpt lat="44.12922" lon="7.04298">
        <ele>2146.6279296875</ele>
        <time>2017-06-11T10:54:07Z</time>
      </trkpt>
      <trkpt lat="44.12907" lon="7.04289">
        <ele>2144.1279296875</ele>
        <time>2017-06-11T10:54:16Z</time>
      </trkpt>
      <trkpt lat="44.129" lon="7.04294">
        <ele>2128.4279785156</ele>
        <time>2017-06-11T10:56:58Z</time>
      </trkpt>
      <trkpt lat="44.12881" lon="7.04293">
        <ele>2124.5280761719</ele>
        <time>2017-06-11T10:57:05Z</time>
      </trkpt>
      <trkpt lat="44.12856" lon="7.04287">
        <ele>2119.7280273438</ele>
        <time>2017-06-11T10:57:12Z</time>
      </trkpt>
      <trkpt lat="44.12837" lon="7.04287">
        <ele>2118.8278808594</ele>
        <time>2017-06-11T10:57:18Z</time>
      </trkpt>
      <trkpt lat="44.12748" lon="7.04253">
        <ele>2114.5270996094</ele>
        <time>2017-06-11T10:58:18Z</time>
      </trkpt>
      <trkpt lat="44.12713" lon="7.04262">
        <ele>2108.0270996094</ele>
        <time>2017-06-11T10:58:24Z</time>
      </trkpt>
      <trkpt lat="44.12677" lon="7.04273">
        <ele>2103.5270996094</ele>
        <time>2017-06-11T10:58:30Z</time>
      </trkpt>
      <trkpt lat="44.1266" lon="7.04292">
        <ele>2103.2270507812</ele>
        <time>2017-06-11T10:58:36Z</time>
      </trkpt>
      <trkpt lat="44.12643" lon="7.04329">
        <ele>2095.9270019531</ele>
        <time>2017-06-11T10:58:42Z</time>
      </trkpt>
      <trkpt lat="44.12623" lon="7.04368">
        <ele>2092.126953125</ele>
        <time>2017-06-11T10:58:48Z</time>
      </trkpt>
      <trkpt lat="44.12603" lon="7.04407">
        <ele>2090.5270996094</ele>
        <time>2017-06-11T10:58:54Z</time>
      </trkpt>
      <trkpt lat="44.12594" lon="7.04447">
        <ele>2081.3278808594</ele>
        <time>2017-06-11T10:59:00Z</time>
      </trkpt>
      <trkpt lat="44.12585" lon="7.04493">
        <ele>2076.4279785156</ele>
        <time>2017-06-11T10:59:06Z</time>
      </trkpt>
      <trkpt lat="44.12583" lon="7.04537">
        <ele>2072.4279785156</ele>
        <time>2017-06-11T10:59:12Z</time>
      </trkpt>
      <trkpt lat="44.12571" lon="7.04574">
        <ele>2065.9279785156</ele>
        <time>2017-06-11T10:59:18Z</time>
      </trkpt>
      <trkpt lat="44.12561" lon="7.04609">
        <ele>2067.8278808594</ele>
        <time>2017-06-11T10:59:24Z</time>
      </trkpt>
      <trkpt lat="44.12537" lon="7.04637">
        <ele>2062.3278808594</ele>
        <time>2017-06-11T10:59:31Z</time>
      </trkpt>
      <trkpt lat="44.12515" lon="7.04668">
        <ele>2057.7280273438</ele>
        <time>2017-06-11T10:59:37Z</time>
      </trkpt>
      <trkpt lat="44.12491" lon="7.04688">
        <ele>2053.4279785156</ele>
        <time>2017-06-11T10:59:43Z</time>
      </trkpt>
      <trkpt lat="44.12463" lon="7.04711">
        <ele>2049.0280761719</ele>
        <time>2017-06-11T10:59:49Z</time>
      </trkpt>
      <trkpt lat="44.1244" lon="7.04736">
        <ele>2044.1280517578</ele>
        <time>2017-06-11T10:59:55Z</time>
      </trkpt>
      <trkpt lat="44.12416" lon="7.04756">
        <ele>2037.4279785156</ele>
        <time>2017-06-11T11:00:01Z</time>
      </trkpt>
      <trkpt lat="44.12391" lon="7.04778">
        <ele>2038.4279785156</ele>
        <time>2017-06-11T11:00:07Z</time>
      </trkpt>
      <trkpt lat="44.12135" lon="7.04789">
        <ele>2009.626953125</ele>
        <time>2017-06-11T11:02:44Z</time>
      </trkpt>
      <trkpt lat="44.12118" lon="7.04787">
        <ele>2005.626953125</ele>
        <time>2017-06-11T11:02:49Z</time>
      </trkpt>
      <trkpt lat="44.12099" lon="7.04789">
        <ele>2000.126953125</ele>
        <time>2017-06-11T11:02:54Z</time>
      </trkpt>
      <trkpt lat="44.12079" lon="7.04784">
        <ele>1995.4270019531</ele>
        <time>2017-06-11T11:03:00Z</time>
      </trkpt>
      <trkpt lat="44.12056" lon="7.04787">
        <ele>1988.3270263672</ele>
        <time>2017-06-11T11:03:06Z</time>
      </trkpt>
      <trkpt lat="44.12038" lon="7.04792">
        <ele>1986.126953125</ele>
        <time>2017-06-11T11:03:13Z</time>
      </trkpt>
      <trkpt lat="44.12028" lon="7.04796">
        <ele>1985.8270263672</ele>
        <time>2017-06-11T11:03:16Z</time>
      </trkpt>
      <trkpt lat="44.12012" lon="7.04807">
        <ele>1984.0269775391</ele>
        <time>2017-06-11T11:03:21Z</time>
      </trkpt>
      <trkpt lat="44.12004" lon="7.04828">
        <ele>1980.8270263672</ele>
        <time>2017-06-11T11:03:28Z</time>
      </trkpt>
      <trkpt lat="44.11989" lon="7.04855">
        <ele>1978.9270019531</ele>
        <time>2017-06-11T11:03:34Z</time>
      </trkpt>
      <trkpt lat="44.11984" lon="7.04862">
        <ele>1976.9270019531</ele>
        <time>2017-06-11T11:03:39Z</time>
      </trkpt>
      <trkpt lat="44.11979" lon="7.04871">
        <ele>1974.7270507812</ele>
        <time>2017-06-11T11:03:46Z</time>
      </trkpt>
      <trkpt lat="44.11973" lon="7.04879">
        <ele>1970.626953125</ele>
        <time>2017-06-11T11:03:53Z</time>
      </trkpt>
      <trkpt lat="44.11966" lon="7.04884">
        <ele>1970.3270263672</ele>
        <time>2017-06-11T11:03:58Z</time>
      </trkpt>
      <trkpt lat="44.11954" lon="7.04901">
        <ele>1965.9270019531</ele>
        <time>2017-06-11T11:04:05Z</time>
      </trkpt>
      <trkpt lat="44.11943" lon="7.04915">
        <ele>1963.5269775391</ele>
        <time>2017-06-11T11:04:14Z</time>
      </trkpt>
      <trkpt lat="44.11936" lon="7.04922">
        <ele>1963.126953125</ele>
        <time>2017-06-11T11:04:21Z</time>
      </trkpt>
      <trkpt lat="44.11937" lon="7.04933">
        <ele>1960.8270263672</ele>
        <time>2017-06-11T11:04:27Z</time>
      </trkpt>
      <trkpt lat="44.11923" lon="7.04948">
        <ele>1958.0269775391</ele>
        <time>2017-06-11T11:04:33Z</time>
      </trkpt>
      <trkpt lat="44.11908" lon="7.04959">
        <ele>1955.626953125</ele>
        <time>2017-06-11T11:04:39Z</time>
      </trkpt>
      <trkpt lat="44.11831" lon="7.05013">
        <ele>1939.9270019531</ele>
        <time>2017-06-11T11:05:41Z</time>
      </trkpt>
      <trkpt lat="44.11785" lon="7.05068">
        <ele>1927.9279785156</ele>
        <time>2017-06-11T11:05:52Z</time>
      </trkpt>
      <trkpt lat="44.11761" lon="7.05082">
        <ele>1927.4279785156</ele>
        <time>2017-06-11T11:05:58Z</time>
      </trkpt>
      <trkpt lat="44.11734" lon="7.05105">
        <ele>1924.7280273438</ele>
        <time>2017-06-11T11:06:05Z</time>
      </trkpt>
      <trkpt lat="44.11727" lon="7.05129">
        <ele>1918.7280273438</ele>
        <time>2017-06-11T11:06:11Z</time>
      </trkpt>
      <trkpt lat="44.1172" lon="7.05152">
        <ele>1920.5279541016</ele>
        <time>2017-06-11T11:06:17Z</time>
      </trkpt>
      <trkpt lat="44.1171" lon="7.05171">
        <ele>1918.2280273438</ele>
        <time>2017-06-11T11:06:23Z</time>
      </trkpt>
      <trkpt lat="44.11698" lon="7.05189">
        <ele>1920.4279785156</ele>
        <time>2017-06-11T11:06:28Z</time>
      </trkpt>
      <trkpt lat="44.11677" lon="7.05214">
        <ele>1915.5279541016</ele>
        <time>2017-06-11T11:06:34Z</time>
      </trkpt>
      <trkpt lat="44.11663" lon="7.05233">
        <ele>1912.8280029297</ele>
        <time>2017-06-11T11:06:40Z</time>
      </trkpt>
      <trkpt lat="44.1165" lon="7.05251">
        <ele>1903.2280273438</ele>
        <time>2017-06-11T11:06:50Z</time>
      </trkpt>
      <trkpt lat="44.11631" lon="7.05273">
        <ele>1900.5279541016</ele>
        <time>2017-06-11T11:06:56Z</time>
      </trkpt>
      <trkpt lat="44.11617" lon="7.05286">
        <ele>1903.7280273438</ele>
        <time>2017-06-11T11:07:01Z</time>
      </trkpt>
      <trkpt lat="44.11589" lon="7.05312">
        <ele>1903.5279541016</ele>
        <time>2017-06-11T11:07:07Z</time>
      </trkpt>
      <trkpt lat="44.1158" lon="7.05331">
        <ele>1898.4279785156</ele>
        <time>2017-06-11T11:07:14Z</time>
      </trkpt>
      <trkpt lat="44.11572" lon="7.05349">
        <ele>1894.9279785156</ele>
        <time>2017-06-11T11:07:21Z</time>
      </trkpt>
      <trkpt lat="44.1156" lon="7.05363">
        <ele>1892.4279785156</ele>
        <time>2017-06-11T11:07:26Z</time>
      </trkpt>
      <trkpt lat="44.11545" lon="7.05372">
        <ele>1889.3280029297</ele>
        <time>2017-06-11T11:07:33Z</time>
      </trkpt>
      <trkpt lat="44.11526" lon="7.05384">
        <ele>1884.4279785156</ele>
        <time>2017-06-11T11:07:40Z</time>
      </trkpt>
      <trkpt lat="44.11512" lon="7.0539">
        <ele>1879.1280517578</ele>
        <time>2017-06-11T11:08:35Z</time>
      </trkpt>
      <trkpt lat="44.11497" lon="7.05381">
        <ele>1877.4279785156</ele>
        <time>2017-06-11T11:08:43Z</time>
      </trkpt>
      <trkpt lat="44.11489" lon="7.05385">
        <ele>1876.7280273438</ele>
        <time>2017-06-11T11:08:48Z</time>
      </trkpt>
      <trkpt lat="44.11477" lon="7.05405">
        <ele>1875.0279541016</ele>
        <time>2017-06-11T11:08:54Z</time>
      </trkpt>
      <trkpt lat="44.11461" lon="7.05414">
        <ele>1873.9279785156</ele>
        <time>2017-06-11T11:09:01Z</time>
      </trkpt>
      <trkpt lat="44.11448" lon="7.05415">
        <ele>1871.6280517578</ele>
        <time>2017-06-11T11:09:08Z</time>
      </trkpt>
      <trkpt lat="44.11444" lon="7.05425">
        <ele>1868.9279785156</ele>
        <time>2017-06-11T11:09:13Z</time>
      </trkpt>
      <trkpt lat="44.11436" lon="7.05423">
        <ele>1861.7280273438</ele>
        <time>2017-06-11T11:09:43Z</time>
      </trkpt>
      <trkpt lat="44.11429" lon="7.05432">
        <ele>1859.7280273438</ele>
        <time>2017-06-11T11:09:49Z</time>
      </trkpt>
      <trkpt lat="44.11422" lon="7.05446">
        <ele>1859.1280517578</ele>
        <time>2017-06-11T11:10:01Z</time>
      </trkpt>
      <trkpt lat="44.11408" lon="7.0546">
        <ele>1857.0279541016</ele>
        <time>2017-06-11T11:10:10Z</time>
      </trkpt>
      <trkpt lat="44.11396" lon="7.05477">
        <ele>1847.8280029297</ele>
        <time>2017-06-11T11:10:17Z</time>
      </trkpt>
      <trkpt lat="44.1138" lon="7.05504">
        <ele>1835.2280273438</ele>
        <time>2017-06-11T11:10:31Z</time>
      </trkpt>
      <trkpt lat="44.11373" lon="7.05511">
        <ele>1834.5279541016</ele>
        <time>2017-06-11T11:10:51Z</time>
      </trkpt>
      <trkpt lat="44.11357" lon="7.0553">
        <ele>1833.4279785156</ele>
        <time>2017-06-11T11:10:58Z</time>
      </trkpt>
      <trkpt lat="44.11342" lon="7.05547">
        <ele>1832.2280273438</ele>
        <time>2017-06-11T11:11:03Z</time>
      </trkpt>
      <trkpt lat="44.1133" lon="7.05574">
        <ele>1831.7280273438</ele>
        <time>2017-06-11T11:11:10Z</time>
      </trkpt>
      <trkpt lat="44.11322" lon="7.05581">
        <ele>1829.5279541016</ele>
        <time>2017-06-11T11:11:16Z</time>
      </trkpt>
      <trkpt lat="44.11315" lon="7.05587">
        <ele>1830.0279541016</ele>
        <time>2017-06-11T11:11:21Z</time>
      </trkpt>
      <trkpt lat="44.11301" lon="7.05607">
        <ele>1824.8280029297</ele>
        <time>2017-06-11T11:11:26Z</time>
      </trkpt>
      <trkpt lat="44.11282" lon="7.05626">
        <ele>1822.9279785156</ele>
        <time>2017-06-11T11:11:32Z</time>
      </trkpt>
      <trkpt lat="44.11265" lon="7.05647">
        <ele>1822.3280029297</ele>
        <time>2017-06-11T11:11:37Z</time>
      </trkpt>
      <trkpt lat="44.11255" lon="7.0567">
        <ele>1815.1280517578</ele>
        <time>2017-06-11T11:11:45Z</time>
      </trkpt>
      <trkpt lat="44.1126" lon="7.05678">
        <ele>1814.2280273438</ele>
        <time>2017-06-11T11:11:50Z</time>
      </trkpt>
      <trkpt lat="44.11257" lon="7.05688">
        <ele>1813.0279541016</ele>
        <time>2017-06-11T11:11:52Z</time>
      </trkpt>
      <trkpt lat="44.11238" lon="7.05718">
        <ele>1809.9279785156</ele>
        <time>2017-06-11T11:11:58Z</time>
      </trkpt>
      <trkpt lat="44.11226" lon="7.05741">
        <ele>1808.3280029297</ele>
        <time>2017-06-11T11:12:03Z</time>
      </trkpt>
      <trkpt lat="44.1122" lon="7.05764">
        <ele>1804.4279785156</ele>
        <time>2017-06-11T11:12:10Z</time>
      </trkpt>
      <trkpt lat="44.11214" lon="7.05785">
        <ele>1803.7280273438</ele>
        <time>2017-06-11T11:12:16Z</time>
      </trkpt>
      <trkpt lat="44.11185" lon="7.05837">
        <ele>1798.3280029297</ele>
        <time>2017-06-11T11:12:30Z</time>
      </trkpt>
      <trkpt lat="44.11157" lon="7.05872">
        <ele>1795.5279541016</ele>
        <time>2017-06-11T11:12:37Z</time>
      </trkpt>
      <trkpt lat="44.11137" lon="7.05905">
        <ele>1797.6280517578</ele>
        <time>2017-06-11T11:12:43Z</time>
      </trkpt>
      <trkpt lat="44.1112" lon="7.05941">
        <ele>1801.6280517578</ele>
        <time>2017-06-11T11:12:50Z</time>
      </trkpt>
      <trkpt lat="44.11136" lon="7.05948">
        <ele>1803.8280029297</ele>
        <time>2017-06-11T11:12:58Z</time>
      </trkpt>
      <trkpt lat="44.11153" lon="7.05936">
        <ele>1804.3280029297</ele>
        <time>2017-06-11T11:13:26Z</time>
      </trkpt>
      <trkpt lat="44.11146" lon="7.05932">
        <ele>1797.6280517578</ele>
        <time>2017-06-11T11:14:07Z</time>
      </trkpt>
      <trkpt lat="44.11137" lon="7.0593">
        <ele>1795.4279785156</ele>
        <time>2017-06-11T11:14:12Z</time>
      </trkpt>
      <trkpt lat="44.11125" lon="7.05925">
        <ele>1777.0279541016</ele>
        <time>2017-06-11T11:15:20Z</time>
      </trkpt>
      <trkpt lat="44.1112" lon="7.05931">
        <ele>1770.8280029297</ele>
        <time>2017-06-11T11:15:44Z</time>
      </trkpt>
      <trkpt lat="44.11116" lon="7.0594">
        <ele>1770.6280517578</ele>
        <time>2017-06-11T11:16:15Z</time>
      </trkpt>
      <trkpt lat="44.11117" lon="7.05926">
        <ele>1769.4279785156</ele>
        <time>2017-06-11T11:16:26Z</time>
      </trkpt>
      <trkpt lat="44.11108" lon="7.05915">
        <ele>1763.6280517578</ele>
        <time>2017-06-11T11:17:17Z</time>
      </trkpt>
      <trkpt lat="44.11113" lon="7.05925">
        <ele>1766.0279541016</ele>
        <time>2017-06-11T11:18:14Z</time>
      </trkpt>
      <trkpt lat="44.1112" lon="7.05936">
        <ele>1765.1280517578</ele>
        <time>2017-06-11T11:19:01Z</time>
      </trkpt>
      <trkpt lat="44.11132" lon="7.05942">
        <ele>1765.8280029297</ele>
        <time>2017-06-11T11:19:17Z</time>
      </trkpt>
      <trkpt lat="44.11126" lon="7.0595">
        <ele>1765.3280029297</ele>
        <time>2017-06-11T11:19:45Z</time>
      </trkpt>
      <trkpt lat="44.11118" lon="7.0597">
        <ele>1762.2280273438</ele>
        <time>2017-06-11T11:19:50Z</time>
      </trkpt>
      <trkpt lat="44.11098" lon="7.06003">
        <ele>1756.2280273438</ele>
        <time>2017-06-11T11:19:55Z</time>
      </trkpt>
      <trkpt lat="44.11075" lon="7.06045">
        <ele>1757.2280273438</ele>
        <time>2017-06-11T11:20:00Z</time>
      </trkpt>
      <trkpt lat="44.1106" lon="7.0609">
        <ele>1758.8280029297</ele>
        <time>2017-06-11T11:20:06Z</time>
      </trkpt>
      <trkpt lat="44.11039" lon="7.06128">
        <ele>1758.1280517578</ele>
        <time>2017-06-11T11:20:12Z</time>
      </trkpt>
      <trkpt lat="44.11028" lon="7.06143">
        <ele>1753.0279541016</ele>
        <time>2017-06-11T11:20:14Z</time>
      </trkpt>
      <trkpt lat="44.11006" lon="7.06182">
        <ele>1746.6290283203</ele>
        <time>2017-06-11T11:20:19Z</time>
      </trkpt>
      <trkpt lat="44.10978" lon="7.06224">
        <ele>1748.8289794922</ele>
        <time>2017-06-11T11:20:25Z</time>
      </trkpt>
      <trkpt lat="44.10961" lon="7.06255">
        <ele>1751.8289794922</ele>
        <time>2017-06-11T11:20:30Z</time>
      </trkpt>
      <trkpt lat="44.10944" lon="7.06286">
        <ele>1752.6290283203</ele>
        <time>2017-06-11T11:20:35Z</time>
      </trkpt>
      <trkpt lat="44.10921" lon="7.06316">
        <ele>1751.6290283203</ele>
        <time>2017-06-11T11:20:40Z</time>
      </trkpt>
      <trkpt lat="44.10897" lon="7.06348">
        <ele>1750.1290283203</ele>
        <time>2017-06-11T11:20:45Z</time>
      </trkpt>
      <trkpt lat="44.10868" lon="7.0639">
        <ele>1749.8289794922</ele>
        <time>2017-06-11T11:20:51Z</time>
      </trkpt>
      <trkpt lat="44.10856" lon="7.06422">
        <ele>1751.8289794922</ele>
        <time>2017-06-11T11:20:56Z</time>
      </trkpt>
      <trkpt lat="44.10866" lon="7.06444">
        <ele>1744.0290527344</ele>
        <time>2017-06-11T11:21:01Z</time>
      </trkpt>
      <trkpt lat="44.10985" lon="7.06672">
        <ele>1734.1290283203</ele>
        <time>2017-06-11T11:23:09Z</time>
      </trkpt>
      <trkpt lat="44.10996" lon="7.06696">
        <ele>1729.1300048828</ele>
        <time>2017-06-11T11:23:16Z</time>
      </trkpt>
      <trkpt lat="44.10966" lon="7.06736">
        <ele>1723.4300537109</ele>
        <time>2017-06-11T11:23:27Z</time>
      </trkpt>
      <trkpt lat="44.10965" lon="7.0676">
        <ele>1723.4300537109</ele>
        <time>2017-06-11T11:23:33Z</time>
      </trkpt>
      <trkpt lat="44.10968" lon="7.06784">
        <ele>1723.5300292969</ele>
        <time>2017-06-11T11:23:39Z</time>
      </trkpt>
      <trkpt lat="44.10973" lon="7.06793">
        <ele>1719.5300292969</ele>
        <time>2017-06-11T11:23:45Z</time>
      </trkpt>
      <trkpt lat="44.10977" lon="7.06803">
        <ele>1716.2299804688</ele>
        <time>2017-06-11T11:24:04Z</time>
      </trkpt>
      <trkpt lat="44.10972" lon="7.06814">
        <ele>1714.4300537109</ele>
        <time>2017-06-11T11:24:10Z</time>
      </trkpt>
      <trkpt lat="44.1097" lon="7.06837">
        <ele>1710.7299804688</ele>
        <time>2017-06-11T11:24:16Z</time>
      </trkpt>
      <trkpt lat="44.1096" lon="7.0686">
        <ele>1705.3299560547</ele>
        <time>2017-06-11T11:24:21Z</time>
      </trkpt>
      <trkpt lat="44.10959" lon="7.06883">
        <ele>1702.9300537109</ele>
        <time>2017-06-11T11:24:26Z</time>
      </trkpt>
      <trkpt lat="44.10963" lon="7.0692">
        <ele>1703.0300292969</ele>
        <time>2017-06-11T11:24:32Z</time>
      </trkpt>
      <trkpt lat="44.10968" lon="7.06962">
        <ele>1702.5300292969</ele>
        <time>2017-06-11T11:24:38Z</time>
      </trkpt>
      <trkpt lat="44.10975" lon="7.06999">
        <ele>1698.1300048828</ele>
        <time>2017-06-11T11:24:43Z</time>
      </trkpt>
      <trkpt lat="44.11024" lon="7.0709">
        <ele>1673.9300537109</ele>
        <time>2017-06-11T11:24:57Z</time>
      </trkpt>
      <trkpt lat="44.10927" lon="7.07194">
        <ele>1667.3299560547</ele>
        <time>2017-06-11T11:25:16Z</time>
      </trkpt>
      <trkpt lat="44.10921" lon="7.072">
        <ele>1667.7299804688</ele>
        <time>2017-06-11T11:25:17Z</time>
      </trkpt>
      <trkpt lat="44.10895" lon="7.07221">
        <ele>1670.8299560547</ele>
        <time>2017-06-11T11:25:23Z</time>
      </trkpt>
      <trkpt lat="44.10871" lon="7.07241">
        <ele>1671.0300292969</ele>
        <time>2017-06-11T11:25:29Z</time>
      </trkpt>
      <trkpt lat="44.10847" lon="7.07262">
        <ele>1669.2299804688</ele>
        <time>2017-06-11T11:25:34Z</time>
      </trkpt>
      <trkpt lat="44.10821" lon="7.07283">
        <ele>1667.1300048828</ele>
        <time>2017-06-11T11:25:40Z</time>
      </trkpt>
      <trkpt lat="44.10812" lon="7.07307">
        <ele>1664.7299804688</ele>
        <time>2017-06-11T11:25:45Z</time>
      </trkpt>
      <trkpt lat="44.10807" lon="7.07336">
        <ele>1662.9300537109</ele>
        <time>2017-06-11T11:25:50Z</time>
      </trkpt>
      <trkpt lat="44.10802" lon="7.0736">
        <ele>1660.1309814453</ele>
        <time>2017-06-11T11:25:55Z</time>
      </trkpt>
      <trkpt lat="44.10801" lon="7.0739">
        <ele>1656.4310302734</ele>
        <time>2017-06-11T11:26:00Z</time>
      </trkpt>
      <trkpt lat="44.10784" lon="7.07438">
        <ele>1649.8310546875</ele>
        <time>2017-06-11T11:26:06Z</time>
      </trkpt>
      <trkpt lat="44.10797" lon="7.07456">
        <ele>1646.2309570312</ele>
        <time>2017-06-11T11:26:11Z</time>
      </trkpt>
      <trkpt lat="44.10785" lon="7.07476">
        <ele>1641.6309814453</ele>
        <time>2017-06-11T11:26:17Z</time>
      </trkpt>
      <trkpt lat="44.10778" lon="7.07497">
        <ele>1638.2309570312</ele>
        <time>2017-06-11T11:26:22Z</time>
      </trkpt>
      <trkpt lat="44.1077" lon="7.07535">
        <ele>1632.9310302734</ele>
        <time>2017-06-11T11:26:28Z</time>
      </trkpt>
      <trkpt lat="44.10741" lon="7.07627">
        <ele>1594.6309814453</ele>
        <time>2017-06-11T11:29:17Z</time>
      </trkpt>
      <trkpt lat="44.10737" lon="7.07649">
        <ele>1591.0310058594</ele>
        <time>2017-06-11T11:29:22Z</time>
      </trkpt>
      <trkpt lat="44.1073" lon="7.0766">
        <ele>1588.9310302734</ele>
        <time>2017-06-11T11:29:28Z</time>
      </trkpt>
      <trkpt lat="44.10727" lon="7.07684">
        <ele>1586.8310546875</ele>
        <time>2017-06-11T11:29:34Z</time>
      </trkpt>
      <trkpt lat="44.10719" lon="7.07703">
        <ele>1585.3310546875</ele>
        <time>2017-06-11T11:29:39Z</time>
      </trkpt>
      <trkpt lat="44.10679" lon="7.07918">
        <ele>1569.2309570312</ele>
        <time>2017-06-11T11:31:28Z</time>
      </trkpt>
      <trkpt lat="44.10661" lon="7.07954">
        <ele>1567.0310058594</ele>
        <time>2017-06-11T11:31:34Z</time>
      </trkpt>
      <trkpt lat="44.10653" lon="7.08">
        <ele>1567.7320556641</ele>
        <time>2017-06-11T11:31:40Z</time>
      </trkpt>
      <trkpt lat="44.10643" lon="7.08048">
        <ele>1565.83203125</ele>
        <time>2017-06-11T11:31:46Z</time>
      </trkpt>
      <trkpt lat="44.10645" lon="7.08073">
        <ele>1564.1319580078</ele>
        <time>2017-06-11T11:31:51Z</time>
      </trkpt>
      <trkpt lat="44.10612" lon="7.08154">
        <ele>1561.4320068359</ele>
        <time>2017-06-11T11:32:18Z</time>
      </trkpt>
      <trkpt lat="44.106" lon="7.08188">
        <ele>1557.7320556641</ele>
        <time>2017-06-11T11:32:24Z</time>
      </trkpt>
      <trkpt lat="44.10583" lon="7.08223">
        <ele>1553.7320556641</ele>
        <time>2017-06-11T11:32:29Z</time>
      </trkpt>
      <trkpt lat="44.10572" lon="7.08259">
        <ele>1549.9320068359</ele>
        <time>2017-06-11T11:32:35Z</time>
      </trkpt>
      <trkpt lat="44.10559" lon="7.08293">
        <ele>1547.6319580078</ele>
        <time>2017-06-11T11:32:41Z</time>
      </trkpt>
      <trkpt lat="44.10551" lon="7.08315">
        <ele>1546.4320068359</ele>
        <time>2017-06-11T11:32:46Z</time>
      </trkpt>
      <trkpt lat="44.10543" lon="7.08329">
        <ele>1544.0319824219</ele>
        <time>2017-06-11T11:32:51Z</time>
      </trkpt>
      <trkpt lat="44.10532" lon="7.08352">
        <ele>1544.0319824219</ele>
        <time>2017-06-11T11:32:56Z</time>
      </trkpt>
      <trkpt lat="44.10557" lon="7.08335">
        <ele>1551.0319824219</ele>
        <time>2017-06-11T11:33:04Z</time>
      </trkpt>
      <trkpt lat="44.10616" lon="7.08278">
        <ele>1543.83203125</ele>
        <time>2017-06-11T11:33:26Z</time>
      </trkpt>
      <trkpt lat="44.10622" lon="7.08288">
        <ele>1538.33203125</ele>
        <time>2017-06-11T11:33:40Z</time>
      </trkpt>
      <trkpt lat="44.10616" lon="7.08283">
        <ele>1536.9320068359</ele>
        <time>2017-06-11T11:33:52Z</time>
      </trkpt>
      <trkpt lat="44.10611" lon="7.08275">
        <ele>1533.2320556641</ele>
        <time>2017-06-11T11:34:03Z</time>
      </trkpt>
      <trkpt lat="44.10618" lon="7.08274">
        <ele>1532.2320556641</ele>
        <time>2017-06-11T11:34:10Z</time>
      </trkpt>
      <trkpt lat="44.10622" lon="7.08265">
        <ele>1531.0319824219</ele>
        <time>2017-06-11T11:34:17Z</time>
      </trkpt>
      <trkpt lat="44.10626" lon="7.08255">
        <ele>1530.5319824219</ele>
        <time>2017-06-11T11:34:22Z</time>
      </trkpt>
      <trkpt lat="44.10628" lon="7.08245">
        <ele>1530.2320556641</ele>
        <time>2017-06-11T11:34:27Z</time>
      </trkpt>
      <trkpt lat="44.10634" lon="7.08237">
        <ele>1530.4320068359</ele>
        <time>2017-06-11T11:34:33Z</time>
      </trkpt>
      <trkpt lat="44.10641" lon="7.08229">
        <ele>1530.5319824219</ele>
        <time>2017-06-11T11:34:39Z</time>
      </trkpt>
      <trkpt lat="44.10646" lon="7.08209">
        <ele>1530.7320556641</ele>
        <time>2017-06-11T11:34:48Z</time>
      </trkpt>
      <trkpt lat="44.10648" lon="7.08196">
        <ele>1531.1319580078</ele>
        <time>2017-06-11T11:34:53Z</time>
      </trkpt>
      <trkpt lat="44.10653" lon="7.08174">
        <ele>1531.33203125</ele>
        <time>2017-06-11T11:35:00Z</time>
      </trkpt>
      <trkpt lat="44.10665" lon="7.08158">
        <ele>1531.7320556641</ele>
        <time>2017-06-11T11:35:09Z</time>
      </trkpt>
      <trkpt lat="44.10675" lon="7.08141">
        <ele>1532.7320556641</ele>
        <time>2017-06-11T11:35:17Z</time>
      </trkpt>
      <trkpt lat="44.10688" lon="7.08129">
        <ele>1534.0319824219</ele>
        <time>2017-06-11T11:35:24Z</time>
      </trkpt>
      <trkpt lat="44.10699" lon="7.0811">
        <ele>1535.5319824219</ele>
        <time>2017-06-11T11:35:30Z</time>
      </trkpt>
      <trkpt lat="44.10708" lon="7.0809">
        <ele>1537.1319580078</ele>
        <time>2017-06-11T11:35:38Z</time>
      </trkpt>
      <trkpt lat="44.10715" lon="7.08071">
        <ele>1536.33203125</ele>
        <time>2017-06-11T11:35:44Z</time>
      </trkpt>
      <trkpt lat="44.10723" lon="7.08051">
        <ele>1535.0319824219</ele>
        <time>2017-06-11T11:35:51Z</time>
      </trkpt>
      <trkpt lat="44.10724" lon="7.08022">
        <ele>1533.0319824219</ele>
        <time>2017-06-11T11:35:58Z</time>
      </trkpt>
      <trkpt lat="44.10732" lon="7.08003">
        <ele>1533.83203125</ele>
        <time>2017-06-11T11:36:04Z</time>
      </trkpt>
      <trkpt lat="44.1074" lon="7.07979">
        <ele>1532.6319580078</ele>
        <time>2017-06-11T11:36:11Z</time>
      </trkpt>
      <trkpt lat="44.10753" lon="7.07963">
        <ele>1535.4320068359</ele>
        <time>2017-06-11T11:36:17Z</time>
      </trkpt>
      <trkpt lat="44.10769" lon="7.07932">
        <ele>1537.4320068359</ele>
        <time>2017-06-11T11:36:24Z</time>
      </trkpt>
      <trkpt lat="44.10782" lon="7.07914">
        <ele>1537.5319824219</ele>
        <time>2017-06-11T11:36:30Z</time>
      </trkpt>
      <trkpt lat="44.10797" lon="7.07887">
        <ele>1539.4320068359</ele>
        <time>2017-06-11T11:36:36Z</time>
      </trkpt>
      <trkpt lat="44.10807" lon="7.07846">
        <ele>1539.6309814453</ele>
        <time>2017-06-11T11:36:42Z</time>
      </trkpt>
      <trkpt lat="44.10808" lon="7.0781">
        <ele>1539.3310546875</ele>
        <time>2017-06-11T11:36:48Z</time>
      </trkpt>
      <trkpt lat="44.10818" lon="7.07784">
        <ele>1538.9310302734</ele>
        <time>2017-06-11T11:36:54Z</time>
      </trkpt>
      <trkpt lat="44.10834" lon="7.07753">
        <ele>1538.4310302734</ele>
        <time>2017-06-11T11:36:59Z</time>
      </trkpt>
      <trkpt lat="44.10853" lon="7.07728">
        <ele>1537.4310302734</ele>
        <time>2017-06-11T11:37:05Z</time>
      </trkpt>
      <trkpt lat="44.10866" lon="7.07715">
        <ele>1537.7309570312</ele>
        <time>2017-06-11T11:37:10Z</time>
      </trkpt>
      <trkpt lat="44.10875" lon="7.07694">
        <ele>1538.4310302734</ele>
        <time>2017-06-11T11:37:15Z</time>
      </trkpt>
      <trkpt lat="44.10888" lon="7.07665">
        <ele>1536.5310058594</ele>
        <time>2017-06-11T11:37:22Z</time>
      </trkpt>
      <trkpt lat="44.10903" lon="7.0765">
        <ele>1536.8310546875</ele>
        <time>2017-06-11T11:37:28Z</time>
      </trkpt>
      <trkpt lat="44.10913" lon="7.07631">
        <ele>1537.3310546875</ele>
        <time>2017-06-11T11:37:33Z</time>
      </trkpt>
      <trkpt lat="44.10939" lon="7.07607">
        <ele>1537.3310546875</ele>
        <time>2017-06-11T11:37:39Z</time>
      </trkpt>
      <trkpt lat="44.10961" lon="7.07578">
        <ele>1538.1309814453</ele>
        <time>2017-06-11T11:37:45Z</time>
      </trkpt>
      <trkpt lat="44.10968" lon="7.0757">
        <ele>1538.5310058594</ele>
        <time>2017-06-11T11:37:47Z</time>
      </trkpt>
      <trkpt lat="44.10985" lon="7.07546">
        <ele>1539.9310302734</ele>
        <time>2017-06-11T11:37:53Z</time>
      </trkpt>
      <trkpt lat="44.10999" lon="7.07529">
        <ele>1540.9310302734</ele>
        <time>2017-06-11T11:37:59Z</time>
      </trkpt>
      <trkpt lat="44.11011" lon="7.07512">
        <ele>1542.4310302734</ele>
        <time>2017-06-11T11:38:05Z</time>
      </trkpt>
      <trkpt lat="44.11022" lon="7.07491">
        <ele>1543.6309814453</ele>
        <time>2017-06-11T11:38:11Z</time>
      </trkpt>
      <trkpt lat="44.11032" lon="7.07474">
        <ele>1544.0310058594</ele>
        <time>2017-06-11T11:38:17Z</time>
      </trkpt>
      <trkpt lat="44.11041" lon="7.07455">
        <ele>1543.4310302734</ele>
        <time>2017-06-11T11:38:25Z</time>
      </trkpt>
      <trkpt lat="44.11052" lon="7.07441">
        <ele>1542.4310302734</ele>
        <time>2017-06-11T11:38:32Z</time>
      </trkpt>
      <trkpt lat="44.11061" lon="7.07426">
        <ele>1542.3310546875</ele>
        <time>2017-06-11T11:38:39Z</time>
      </trkpt>
      <trkpt lat="44.1107" lon="7.07424">
        <ele>1542.6309814453</ele>
        <time>2017-06-11T11:38:44Z</time>
      </trkpt>
      <trkpt lat="44.11086" lon="7.07425">
        <ele>1543.5310058594</ele>
        <time>2017-06-11T11:38:50Z</time>
      </trkpt>
      <trkpt lat="44.11102" lon="7.07426">
        <ele>1543.4310302734</ele>
        <time>2017-06-11T11:38:56Z</time>
      </trkpt>
      <trkpt lat="44.11117" lon="7.0743">
        <ele>1544.4310302734</ele>
        <time>2017-06-11T11:39:05Z</time>
      </trkpt>
      <trkpt lat="44.11125" lon="7.07433">
        <ele>1545.1309814453</ele>
        <time>2017-06-11T11:39:11Z</time>
      </trkpt>
      <trkpt lat="44.11132" lon="7.0743">
        <ele>1545.3310546875</ele>
        <time>2017-06-11T11:39:16Z</time>
      </trkpt>
      <trkpt lat="44.11149" lon="7.07431">
        <ele>1545.8310546875</ele>
        <time>2017-06-11T11:39:23Z</time>
      </trkpt>
      <trkpt lat="44.11168" lon="7.0743">
        <ele>1545.9310302734</ele>
        <time>2017-06-11T11:39:32Z</time>
      </trkpt>
      <trkpt lat="44.11177" lon="7.0743">
        <ele>1545.5310058594</ele>
        <time>2017-06-11T11:39:35Z</time>
      </trkpt>
      <trkpt lat="44.11194" lon="7.07433">
        <ele>1544.1309814453</ele>
        <time>2017-06-11T11:39:43Z</time>
      </trkpt>
      <trkpt lat="44.11209" lon="7.07437">
        <ele>1543.3310546875</ele>
        <time>2017-06-11T11:39:49Z</time>
      </trkpt>
      <trkpt lat="44.11224" lon="7.07434">
        <ele>1547.7309570312</ele>
        <time>2017-06-11T11:39:56Z</time>
      </trkpt>
      <trkpt lat="44.11242" lon="7.07427">
        <ele>1548.6309814453</ele>
        <time>2017-06-11T11:40:03Z</time>
      </trkpt>
      <trkpt lat="44.11258" lon="7.07411">
        <ele>1550.2309570312</ele>
        <time>2017-06-11T11:40:09Z</time>
      </trkpt>
      <trkpt lat="44.11278" lon="7.0739">
        <ele>1551.1309814453</ele>
        <time>2017-06-11T11:40:15Z</time>
      </trkpt>
      <trkpt lat="44.11296" lon="7.07361">
        <ele>1549.0310058594</ele>
        <time>2017-06-11T11:40:21Z</time>
      </trkpt>
      <trkpt lat="44.11317" lon="7.07331">
        <ele>1549.7309570312</ele>
        <time>2017-06-11T11:40:27Z</time>
      </trkpt>
      <trkpt lat="44.11337" lon="7.07306">
        <ele>1551.0310058594</ele>
        <time>2017-06-11T11:40:33Z</time>
      </trkpt>
      <trkpt lat="44.11362" lon="7.07288">
        <ele>1552.2309570312</ele>
        <time>2017-06-11T11:40:39Z</time>
      </trkpt>
      <trkpt lat="44.11386" lon="7.07263">
        <ele>1553.1309814453</ele>
        <time>2017-06-11T11:40:45Z</time>
      </trkpt>
      <trkpt lat="44.1141" lon="7.07274">
        <ele>1553.8310546875</ele>
        <time>2017-06-11T11:40:51Z</time>
      </trkpt>
      <trkpt lat="44.11431" lon="7.07287">
        <ele>1553.3310546875</ele>
        <time>2017-06-11T11:40:57Z</time>
      </trkpt>
      <trkpt lat="44.11447" lon="7.07289">
        <ele>1552.3310546875</ele>
        <time>2017-06-11T11:41:02Z</time>
      </trkpt>
      <trkpt lat="44.11469" lon="7.0726">
        <ele>1552.0310058594</ele>
        <time>2017-06-11T11:41:08Z</time>
      </trkpt>
      <trkpt lat="44.11488" lon="7.0723">
        <ele>1551.9310302734</ele>
        <time>2017-06-11T11:41:14Z</time>
      </trkpt>
      <trkpt lat="44.11499" lon="7.07206">
        <ele>1551.2309570312</ele>
        <time>2017-06-11T11:41:20Z</time>
      </trkpt>
      <trkpt lat="44.11505" lon="7.07183">
        <ele>1552.2309570312</ele>
        <time>2017-06-11T11:41:25Z</time>
      </trkpt>
      <trkpt lat="44.11502" lon="7.07162">
        <ele>1553.8310546875</ele>
        <time>2017-06-11T11:41:30Z</time>
      </trkpt>
      <trkpt lat="44.11518" lon="7.07134">
        <ele>1554.0310058594</ele>
        <time>2017-06-11T11:41:37Z</time>
      </trkpt>
      <trkpt lat="44.11531" lon="7.07109">
        <ele>1552.8310546875</ele>
        <time>2017-06-11T11:41:43Z</time>
      </trkpt>
      <trkpt lat="44.11553" lon="7.07091">
        <ele>1552.2309570312</ele>
        <time>2017-06-11T11:41:49Z</time>
      </trkpt>
      <trkpt lat="44.11568" lon="7.07075">
        <ele>1553.1309814453</ele>
        <time>2017-06-11T11:41:54Z</time>
      </trkpt>
      <trkpt lat="44.11583" lon="7.07044">
        <ele>1552.7309570312</ele>
        <time>2017-06-11T11:42:00Z</time>
      </trkpt>
      <trkpt lat="44.11598" lon="7.07015">
        <ele>1552.2309570312</ele>
        <time>2017-06-11T11:42:07Z</time>
      </trkpt>
      <trkpt lat="44.11609" lon="7.06994">
        <ele>1550.5310058594</ele>
        <time>2017-06-11T11:42:12Z</time>
      </trkpt>
      <trkpt lat="44.11621" lon="7.06963">
        <ele>1550.2309570312</ele>
        <time>2017-06-11T11:42:18Z</time>
      </trkpt>
      <trkpt lat="44.11625" lon="7.06937">
        <ele>1551.4310302734</ele>
        <time>2017-06-11T11:42:24Z</time>
      </trkpt>
      <trkpt lat="44.11625" lon="7.06913">
        <ele>1553.0310058594</ele>
        <time>2017-06-11T11:42:29Z</time>
      </trkpt>
      <trkpt lat="44.11617" lon="7.06889">
        <ele>1554.7309570312</ele>
        <time>2017-06-11T11:42:34Z</time>
      </trkpt>
      <trkpt lat="44.11598" lon="7.06859">
        <ele>1556.6309814453</ele>
        <time>2017-06-11T11:42:39Z</time>
      </trkpt>
      <trkpt lat="44.11607" lon="7.06839">
        <ele>1557.6309814453</ele>
        <time>2017-06-11T11:42:45Z</time>
      </trkpt>
      <trkpt lat="44.11619" lon="7.06819">
        <ele>1557.6309814453</ele>
        <time>2017-06-11T11:42:50Z</time>
      </trkpt>
      <trkpt lat="44.11625" lon="7.06783">
        <ele>1557.0310058594</ele>
        <time>2017-06-11T11:42:55Z</time>
      </trkpt>
      <trkpt lat="44.11636" lon="7.0676">
        <ele>1556.1309814453</ele>
        <time>2017-06-11T11:43:01Z</time>
      </trkpt>
      <trkpt lat="44.11649" lon="7.06733">
        <ele>1555.5310058594</ele>
        <time>2017-06-11T11:43:08Z</time>
      </trkpt>
      <trkpt lat="44.11659" lon="7.06703">
        <ele>1555.5310058594</ele>
        <time>2017-06-11T11:43:14Z</time>
      </trkpt>
      <trkpt lat="44.11673" lon="7.06684">
        <ele>1555.6300048828</ele>
        <time>2017-06-11T11:43:19Z</time>
      </trkpt>
      <trkpt lat="44.11679" lon="7.06652">
        <ele>1555.6300048828</ele>
        <time>2017-06-11T11:43:25Z</time>
      </trkpt>
      <trkpt lat="44.11685" lon="7.06625">
        <ele>1555.9300537109</ele>
        <time>2017-06-11T11:43:30Z</time>
      </trkpt>
      <trkpt lat="44.11692" lon="7.066">
        <ele>1556.3299560547</ele>
        <time>2017-06-11T11:43:35Z</time>
      </trkpt>
      <trkpt lat="44.11703" lon="7.06568">
        <ele>1556.4300537109</ele>
        <time>2017-06-11T11:43:41Z</time>
      </trkpt>
      <trkpt lat="44.11714" lon="7.06537">
        <ele>1556.2299804688</ele>
        <time>2017-06-11T11:43:47Z</time>
      </trkpt>
      <trkpt lat="44.11718" lon="7.06502">
        <ele>1556.6300048828</ele>
        <time>2017-06-11T11:43:53Z</time>
      </trkpt>
      <trkpt lat="44.11729" lon="7.06471">
        <ele>1557.2299804688</ele>
        <time>2017-06-11T11:43:59Z</time>
      </trkpt>
      <trkpt lat="44.11742" lon="7.06434">
        <ele>1557.4300537109</ele>
        <time>2017-06-11T11:44:06Z</time>
      </trkpt>
      <trkpt lat="44.11749" lon="7.0641">
        <ele>1556.2299804688</ele>
        <time>2017-06-11T11:44:12Z</time>
      </trkpt>
      <trkpt lat="44.11759" lon="7.06392">
        <ele>1556.2299804688</ele>
        <time>2017-06-11T11:44:19Z</time>
      </trkpt>
      <trkpt lat="44.11769" lon="7.06367">
        <ele>1556.9300537109</ele>
        <time>2017-06-11T11:44:25Z</time>
      </trkpt>
      <trkpt lat="44.11778" lon="7.06346">
        <ele>1558.4300537109</ele>
        <time>2017-06-11T11:44:32Z</time>
      </trkpt>
      <trkpt lat="44.11782" lon="7.06338">
        <ele>1559.3299560547</ele>
        <time>2017-06-11T11:44:41Z</time>
      </trkpt>
      <trkpt lat="44.11777" lon="7.06331">
        <ele>1559.6300048828</ele>
        <time>2017-06-11T11:44:50Z</time>
      </trkpt>
      <trkpt lat="44.11773" lon="7.06322">
        <ele>1560.8299560547</ele>
        <time>2017-06-11T11:45:06Z</time>
      </trkpt>
      <trkpt lat="44.11761" lon="7.06306">
        <ele>1554.7299804688</ele>
        <time>2017-06-11T11:45:19Z</time>
      </trkpt>
      <trkpt lat="44.11771" lon="7.06291">
        <ele>1553.4300537109</ele>
        <time>2017-06-11T11:45:27Z</time>
      </trkpt>
      <trkpt lat="44.11782" lon="7.06328">
        <ele>1552.1300048828</ele>
        <time>2017-06-11T11:45:33Z</time>
      </trkpt>
      <trkpt lat="44.11772" lon="7.06364">
        <ele>1549.5300292969</ele>
        <time>2017-06-11T11:45:38Z</time>
      </trkpt>
      <trkpt lat="44.1178" lon="7.06407">
        <ele>1546.1300048828</ele>
        <time>2017-06-11T11:45:45Z</time>
      </trkpt>
      <trkpt lat="44.11792" lon="7.06408">
        <ele>1542.2299804688</ele>
        <time>2017-06-11T11:45:53Z</time>
      </trkpt>
      <trkpt lat="44.11811" lon="7.064">
        <ele>1542.7299804688</ele>
        <time>2017-06-11T11:45:58Z</time>
      </trkpt>
      <trkpt lat="44.11818" lon="7.06404">
        <ele>1543.1300048828</ele>
        <time>2017-06-11T11:46:05Z</time>
      </trkpt>
      <trkpt lat="44.11807" lon="7.06414">
        <ele>1542.9300537109</ele>
        <time>2017-06-11T11:46:33Z</time>
      </trkpt>
      <trkpt lat="44.11789" lon="7.06469">
        <ele>1538.5300292969</ele>
        <time>2017-06-11T11:46:44Z</time>
      </trkpt>
      <trkpt lat="44.11783" lon="7.06491">
        <ele>1536.9300537109</ele>
        <time>2017-06-11T11:46:50Z</time>
      </trkpt>
      <trkpt lat="44.11786" lon="7.06504">
        <ele>1530.4300537109</ele>
        <time>2017-06-11T11:46:57Z</time>
      </trkpt>
      <trkpt lat="44.11793" lon="7.06505">
        <ele>1531.6300048828</ele>
        <time>2017-06-11T11:47:11Z</time>
      </trkpt>
      <trkpt lat="44.11774" lon="7.06469">
        <ele>1529.2299804688</ele>
        <time>2017-06-11T11:47:20Z</time>
      </trkpt>
      <trkpt lat="44.11783" lon="7.06494">
        <ele>1528.6300048828</ele>
        <time>2017-06-11T11:47:34Z</time>
      </trkpt>
      <trkpt lat="44.11777" lon="7.06518">
        <ele>1528.6300048828</ele>
        <time>2017-06-11T11:47:40Z</time>
      </trkpt>
      <trkpt lat="44.11784" lon="7.06524">
        <ele>1526.9300537109</ele>
        <time>2017-06-11T11:47:48Z</time>
      </trkpt>
      <trkpt lat="44.11797" lon="7.06535">
        <ele>1528.5300292969</ele>
        <time>2017-06-11T11:47:56Z</time>
      </trkpt>
      <trkpt lat="44.118" lon="7.06546">
        <ele>1529.9300537109</ele>
        <time>2017-06-11T11:48:04Z</time>
      </trkpt>
      <trkpt lat="44.11801" lon="7.06558">
        <ele>1530.5300292969</ele>
        <time>2017-06-11T11:48:09Z</time>
      </trkpt>
      <trkpt lat="44.11759" lon="7.06626">
        <ele>1527.2309570312</ele>
        <time>2017-06-11T11:48:33Z</time>
      </trkpt>
      <trkpt lat="44.11769" lon="7.0663">
        <ele>1524.9310302734</ele>
        <time>2017-06-11T11:48:38Z</time>
      </trkpt>
      <trkpt lat="44.11776" lon="7.06631">
        <ele>1520.8310546875</ele>
        <time>2017-06-11T11:49:15Z</time>
      </trkpt>
      <trkpt lat="44.11764" lon="7.06647">
        <ele>1520.3310546875</ele>
        <time>2017-06-11T11:49:22Z</time>
      </trkpt>
      <trkpt lat="44.11757" lon="7.06655">
        <ele>1519.5310058594</ele>
        <time>2017-06-11T11:49:28Z</time>
      </trkpt>
      <trkpt lat="44.11757" lon="7.06638">
        <ele>1519.6309814453</ele>
        <time>2017-06-11T11:49:49Z</time>
      </trkpt>
      <trkpt lat="44.11754" lon="7.06647">
        <ele>1518.3310546875</ele>
        <time>2017-06-11T11:49:55Z</time>
      </trkpt>
      <trkpt lat="44.11749" lon="7.06655">
        <ele>1517.7309570312</ele>
        <time>2017-06-11T11:50:00Z</time>
      </trkpt>
      <trkpt lat="44.11745" lon="7.06642">
        <ele>1521.4310302734</ele>
        <time>2017-06-11T11:50:09Z</time>
      </trkpt>
      <trkpt lat="44.11738" lon="7.0665">
        <ele>1516.1309814453</ele>
        <time>2017-06-11T11:50:16Z</time>
      </trkpt>
      <trkpt lat="44.11726" lon="7.06671">
        <ele>1509.1309814453</ele>
        <time>2017-06-11T11:50:24Z</time>
      </trkpt>
      <trkpt lat="44.11722" lon="7.06681">
        <ele>1506.6309814453</ele>
        <time>2017-06-11T11:50:29Z</time>
      </trkpt>
      <trkpt lat="44.11724" lon="7.06691">
        <ele>1504.4310302734</ele>
        <time>2017-06-11T11:50:37Z</time>
      </trkpt>
      <trkpt lat="44.11725" lon="7.06716">
        <ele>1503.7309570312</ele>
        <time>2017-06-11T11:50:46Z</time>
      </trkpt>
      <trkpt lat="44.11713" lon="7.0673">
        <ele>1502.6309814453</ele>
        <time>2017-06-11T11:51:00Z</time>
      </trkpt>
      <trkpt lat="44.11709" lon="7.06741">
        <ele>1501.9310302734</ele>
        <time>2017-06-11T11:51:05Z</time>
      </trkpt>
      <trkpt lat="44.11707" lon="7.06765">
        <ele>1501.0310058594</ele>
        <time>2017-06-11T11:51:12Z</time>
      </trkpt>
      <trkpt lat="44.11706" lon="7.06791">
        <ele>1497.8310546875</ele>
        <time>2017-06-11T11:51:18Z</time>
      </trkpt>
      <trkpt lat="44.11713" lon="7.06787">
        <ele>1500.1309814453</ele>
        <time>2017-06-11T11:51:25Z</time>
      </trkpt>
      <trkpt lat="44.11702" lon="7.06802">
        <ele>1496.0310058594</ele>
        <time>2017-06-11T11:51:31Z</time>
      </trkpt>
      <trkpt lat="44.11728" lon="7.06778">
        <ele>1495.3310546875</ele>
        <time>2017-06-11T11:51:38Z</time>
      </trkpt>
      <trkpt lat="44.11736" lon="7.06788">
        <ele>1492.5310058594</ele>
        <time>2017-06-11T11:51:43Z</time>
      </trkpt>
      <trkpt lat="44.11721" lon="7.068">
        <ele>1490.5310058594</ele>
        <time>2017-06-11T11:51:49Z</time>
      </trkpt>
      <trkpt lat="44.11711" lon="7.0683">
        <ele>1490.6309814453</ele>
        <time>2017-06-11T11:51:55Z</time>
      </trkpt>
      <trkpt lat="44.11695" lon="7.06845">
        <ele>1491.6309814453</ele>
        <time>2017-06-11T11:52:00Z</time>
      </trkpt>
      <trkpt lat="44.11681" lon="7.0687">
        <ele>1488.5310058594</ele>
        <time>2017-06-11T11:52:05Z</time>
      </trkpt>
      <trkpt lat="44.11688" lon="7.06885">
        <ele>1477.5310058594</ele>
        <time>2017-06-11T11:52:11Z</time>
      </trkpt>
      <trkpt lat="44.11696" lon="7.06893">
        <ele>1491.1309814453</ele>
        <time>2017-06-11T11:52:25Z</time>
      </trkpt>
      <trkpt lat="44.11712" lon="7.06879">
        <ele>1492.5310058594</ele>
        <time>2017-06-11T11:52:33Z</time>
      </trkpt>
      <trkpt lat="44.1171" lon="7.06868">
        <ele>1494.8310546875</ele>
        <time>2017-06-11T11:52:57Z</time>
      </trkpt>
      <trkpt lat="44.11698" lon="7.06885">
        <ele>1477.0310058594</ele>
        <time>2017-06-11T11:53:09Z</time>
      </trkpt>
      <trkpt lat="44.11687" lon="7.06903">
        <ele>1477.0310058594</ele>
        <time>2017-06-11T11:53:17Z</time>
      </trkpt>
      <trkpt lat="44.11698" lon="7.0692">
        <ele>1477.4310302734</ele>
        <time>2017-06-11T11:53:22Z</time>
      </trkpt>
      <trkpt lat="44.11714" lon="7.06952">
        <ele>1479.0310058594</ele>
        <time>2017-06-11T11:53:28Z</time>
      </trkpt>
      <trkpt lat="44.11703" lon="7.06985">
        <ele>1475.4310302734</ele>
        <time>2017-06-11T11:53:33Z</time>
      </trkpt>
      <trkpt lat="44.11691" lon="7.07034">
        <ele>1473.8310546875</ele>
        <time>2017-06-11T11:53:39Z</time>
      </trkpt>
      <trkpt lat="44.11673" lon="7.07075">
        <ele>1473.5310058594</ele>
        <time>2017-06-11T11:53:45Z</time>
      </trkpt>
      <trkpt lat="44.11655" lon="7.07109">
        <ele>1472.4310302734</ele>
        <time>2017-06-11T11:53:51Z</time>
      </trkpt>
      <trkpt lat="44.1165" lon="7.07134">
        <ele>1470.8310546875</ele>
        <time>2017-06-11T11:53:56Z</time>
      </trkpt>
      <trkpt lat="44.11652" lon="7.07172">
        <ele>1468.8310546875</ele>
        <time>2017-06-11T11:54:01Z</time>
      </trkpt>
      <trkpt lat="44.11647" lon="7.07215">
        <ele>1465.3310546875</ele>
        <time>2017-06-11T11:54:07Z</time>
      </trkpt>
      <trkpt lat="44.11649" lon="7.07254">
        <ele>1461.0319824219</ele>
        <time>2017-06-11T11:54:13Z</time>
      </trkpt>
      <trkpt lat="44.11643" lon="7.07293">
        <ele>1458.83203125</ele>
        <time>2017-06-11T11:54:20Z</time>
      </trkpt>
      <trkpt lat="44.1163" lon="7.07309">
        <ele>1456.0319824219</ele>
        <time>2017-06-11T11:54:27Z</time>
      </trkpt>
      <trkpt lat="44.11626" lon="7.0733">
        <ele>1455.2320556641</ele>
        <time>2017-06-11T11:54:32Z</time>
      </trkpt>
      <trkpt lat="44.1162" lon="7.07356">
        <ele>1453.5319824219</ele>
        <time>2017-06-11T11:54:37Z</time>
      </trkpt>
      <trkpt lat="44.11613" lon="7.07397">
        <ele>1449.83203125</ele>
        <time>2017-06-11T11:54:43Z</time>
      </trkpt>
      <trkpt lat="44.11621" lon="7.07413">
        <ele>1448.9320068359</ele>
        <time>2017-06-11T11:54:49Z</time>
      </trkpt>
      <trkpt lat="44.1163" lon="7.07452">
        <ele>1443.5319824219</ele>
        <time>2017-06-11T11:54:55Z</time>
      </trkpt>
      <trkpt lat="44.11625" lon="7.07504">
        <ele>1440.1319580078</ele>
        <time>2017-06-11T11:55:01Z</time>
      </trkpt>
      <trkpt lat="44.11624" lon="7.07528">
        <ele>1437.1319580078</ele>
        <time>2017-06-11T11:55:06Z</time>
      </trkpt>
      <trkpt lat="44.11645" lon="7.07566">
        <ele>1433.33203125</ele>
        <time>2017-06-11T11:55:12Z</time>
      </trkpt>
      <trkpt lat="44.1164" lon="7.07601">
        <ele>1430.5319824219</ele>
        <time>2017-06-11T11:55:18Z</time>
      </trkpt>
      <trkpt lat="44.11639" lon="7.07637">
        <ele>1427.5319824219</ele>
        <time>2017-06-11T11:55:25Z</time>
      </trkpt>
      <trkpt lat="44.11663" lon="7.07657">
        <ele>1424.9320068359</ele>
        <time>2017-06-11T11:55:31Z</time>
      </trkpt>
      <trkpt lat="44.11724" lon="7.07647">
        <ele>1415.2320556641</ele>
        <time>2017-06-11T11:56:30Z</time>
      </trkpt>
      <trkpt lat="44.11729" lon="7.07639">
        <ele>1413.7320556641</ele>
        <time>2017-06-11T11:56:40Z</time>
      </trkpt>
      <trkpt lat="44.11734" lon="7.07628">
        <ele>1412.2320556641</ele>
        <time>2017-06-11T11:56:45Z</time>
      </trkpt>
      <trkpt lat="44.11731" lon="7.07618">
        <ele>1410.9320068359</ele>
        <time>2017-06-11T11:56:50Z</time>
      </trkpt>
      <trkpt lat="44.11737" lon="7.0763">
        <ele>1405.2320556641</ele>
        <time>2017-06-11T11:57:11Z</time>
      </trkpt>
      <trkpt lat="44.1177" lon="7.07827">
        <ele>1355.8330078125</ele>
        <time>2017-06-11T11:59:00Z</time>
      </trkpt>
      <trkpt lat="44.11685" lon="7.07864">
        <ele>1343.0329589844</ele>
        <time>2017-06-11T11:59:20Z</time>
      </trkpt>
      <trkpt lat="44.11739" lon="7.07802">
        <ele>1353.7330322266</ele>
        <time>2017-06-11T11:59:34Z</time>
      </trkpt>
      <trkpt lat="44.11756" lon="7.07808">
        <ele>1354.9329833984</ele>
        <time>2017-06-11T11:59:39Z</time>
      </trkpt>
      <trkpt lat="44.11772" lon="7.07812">
        <ele>1356.7330322266</ele>
        <time>2017-06-11T11:59:47Z</time>
      </trkpt>
      <trkpt lat="44.1178" lon="7.07811">
        <ele>1358.7330322266</ele>
        <time>2017-06-11T11:59:52Z</time>
      </trkpt>
      <trkpt lat="44.11795" lon="7.07807">
        <ele>1360.1330566406</ele>
        <time>2017-06-11T11:59:59Z</time>
      </trkpt>
      <trkpt lat="44.11813" lon="7.0782">
        <ele>1360.9329833984</ele>
        <time>2017-06-11T12:00:04Z</time>
      </trkpt>
      <trkpt lat="44.11817" lon="7.07829">
        <ele>1361.5329589844</ele>
        <time>2017-06-11T12:00:10Z</time>
      </trkpt>
      <trkpt lat="44.11824" lon="7.07826">
        <ele>1361.2330322266</ele>
        <time>2017-06-11T12:00:15Z</time>
      </trkpt>
      <trkpt lat="44.11835" lon="7.07823">
        <ele>1360.8330078125</ele>
        <time>2017-06-11T12:00:23Z</time>
      </trkpt>
      <trkpt lat="44.11846" lon="7.07842">
        <ele>1359.6330566406</ele>
        <time>2017-06-11T12:00:30Z</time>
      </trkpt>
      <trkpt lat="44.11854" lon="7.07839">
        <ele>1357.1330566406</ele>
        <time>2017-06-11T12:00:36Z</time>
      </trkpt>
      <trkpt lat="44.11862" lon="7.07837">
        <ele>1354.5329589844</ele>
        <time>2017-06-11T12:00:42Z</time>
      </trkpt>
      <trkpt lat="44.11862" lon="7.07847">
        <ele>1353.0329589844</ele>
        <time>2017-06-11T12:00:47Z</time>
      </trkpt>
      <trkpt lat="44.11871" lon="7.07844">
        <ele>1350.6330566406</ele>
        <time>2017-06-11T12:00:53Z</time>
      </trkpt>
      <trkpt lat="44.11876" lon="7.07867">
        <ele>1347.4329833984</ele>
        <time>2017-06-11T12:01:02Z</time>
      </trkpt>
      <trkpt lat="44.11891" lon="7.07866">
        <ele>1340.6330566406</ele>
        <time>2017-06-11T12:01:18Z</time>
      </trkpt>
      <trkpt lat="44.11899" lon="7.0787">
        <ele>1338.6330566406</ele>
        <time>2017-06-11T12:01:25Z</time>
      </trkpt>
      <trkpt lat="44.11903" lon="7.0788">
        <ele>1335.3330078125</ele>
        <time>2017-06-11T12:01:38Z</time>
      </trkpt>
      <trkpt lat="44.11908" lon="7.07887">
        <ele>1331.2330322266</ele>
        <time>2017-06-11T12:01:51Z</time>
      </trkpt>
      <trkpt lat="44.11921" lon="7.07895">
        <ele>1327.1330566406</ele>
        <time>2017-06-11T12:01:59Z</time>
      </trkpt>
      <trkpt lat="44.11924" lon="7.07886">
        <ele>1325.8330078125</ele>
        <time>2017-06-11T12:02:04Z</time>
      </trkpt>
      <trkpt lat="44.11912" lon="7.07882">
        <ele>1324.3330078125</ele>
        <time>2017-06-11T12:02:13Z</time>
      </trkpt>
      <trkpt lat="44.11915" lon="7.07859">
        <ele>1312.9329833984</ele>
        <time>2017-06-11T12:02:50Z</time>
      </trkpt>
      <trkpt lat="44.11897" lon="7.07864">
        <ele>1312.6330566406</ele>
        <time>2017-06-11T12:03:01Z</time>
      </trkpt>
      <trkpt lat="44.119" lon="7.0788">
        <ele>1311.6330566406</ele>
        <time>2017-06-11T12:03:24Z</time>
      </trkpt>
      <trkpt lat="44.11903" lon="7.0789">
        <ele>1310.2330322266</ele>
        <time>2017-06-11T12:03:46Z</time>
      </trkpt>
      <trkpt lat="44.11916" lon="7.07906">
        <ele>1308.1330566406</ele>
        <time>2017-06-11T12:03:52Z</time>
      </trkpt>
      <trkpt lat="44.11923" lon="7.07925">
        <ele>1298.3330078125</ele>
        <time>2017-06-11T12:04:01Z</time>
      </trkpt>
      <trkpt lat="44.11917" lon="7.07931">
        <ele>1290.1330566406</ele>
        <time>2017-06-11T12:04:09Z</time>
      </trkpt>
      <trkpt lat="44.11904" lon="7.07941">
        <ele>1286.0329589844</ele>
        <time>2017-06-11T12:04:16Z</time>
      </trkpt>
      <trkpt lat="44.1189" lon="7.07958">
        <ele>1283.7330322266</ele>
        <time>2017-06-11T12:04:22Z</time>
      </trkpt>
      <trkpt lat="44.11883" lon="7.07967">
        <ele>1282.5329589844</ele>
        <time>2017-06-11T12:04:27Z</time>
      </trkpt>
      <trkpt lat="44.1188" lon="7.08003">
        <ele>1283.3330078125</ele>
        <time>2017-06-11T12:04:33Z</time>
      </trkpt>
      <trkpt lat="44.11874" lon="7.08011">
        <ele>1281.9329833984</ele>
        <time>2017-06-11T12:04:38Z</time>
      </trkpt>
      <trkpt lat="44.1187" lon="7.08026">
        <ele>1280.8330078125</ele>
        <time>2017-06-11T12:04:43Z</time>
      </trkpt>
      <trkpt lat="44.11877" lon="7.08042">
        <ele>1279.1330566406</ele>
        <time>2017-06-11T12:04:49Z</time>
      </trkpt>
      <trkpt lat="44.1188" lon="7.08052">
        <ele>1277.3330078125</ele>
        <time>2017-06-11T12:04:55Z</time>
      </trkpt>
      <trkpt lat="44.11874" lon="7.08058">
        <ele>1274.2330322266</ele>
        <time>2017-06-11T12:05:02Z</time>
      </trkpt>
      <trkpt lat="44.11872" lon="7.08069">
        <ele>1266.6330566406</ele>
        <time>2017-06-11T12:05:14Z</time>
      </trkpt>
      <trkpt lat="44.11878" lon="7.08076">
        <ele>1265.2330322266</ele>
        <time>2017-06-11T12:05:19Z</time>
      </trkpt>
      <trkpt lat="44.11885" lon="7.08079">
        <ele>1262.833984375</ele>
        <time>2017-06-11T12:05:24Z</time>
      </trkpt>
      <trkpt lat="44.11886" lon="7.0809">
        <ele>1258.4339599609</ele>
        <time>2017-06-11T12:05:34Z</time>
      </trkpt>
      <trkpt lat="44.11899" lon="7.08103">
        <ele>1255.0340576172</ele>
        <time>2017-06-11T12:05:42Z</time>
      </trkpt>
      <trkpt lat="44.11907" lon="7.08108">
        <ele>1249.833984375</ele>
        <time>2017-06-11T12:05:55Z</time>
      </trkpt>
      <trkpt lat="44.1191" lon="7.08117">
        <ele>1246.2340087891</ele>
        <time>2017-06-11T12:06:05Z</time>
      </trkpt>
      <trkpt lat="44.11916" lon="7.08123">
        <ele>1244.6340332031</ele>
        <time>2017-06-11T12:06:10Z</time>
      </trkpt>
      <trkpt lat="44.11922" lon="7.08138">
        <ele>1238.5340576172</ele>
        <time>2017-06-11T12:06:23Z</time>
      </trkpt>
      <trkpt lat="44.11929" lon="7.08144">
        <ele>1234.6340332031</ele>
        <time>2017-06-11T12:06:29Z</time>
      </trkpt>
      <trkpt lat="44.11946" lon="7.08152">
        <ele>1230.6340332031</ele>
        <time>2017-06-11T12:06:36Z</time>
      </trkpt>
      <trkpt lat="44.11959" lon="7.08163">
        <ele>1226.1340332031</ele>
        <time>2017-06-11T12:06:43Z</time>
      </trkpt>
      <trkpt lat="44.11965" lon="7.08183">
        <ele>1215.333984375</ele>
        <time>2017-06-11T12:07:03Z</time>
      </trkpt>
      <trkpt lat="44.11952" lon="7.08197">
        <ele>1213.9339599609</ele>
        <time>2017-06-11T12:07:11Z</time>
      </trkpt>
      <trkpt lat="44.11785" lon="7.08278">
        <ele>1173.0340576172</ele>
        <time>2017-06-11T12:07:58Z</time>
      </trkpt>
      <trkpt lat="44.11906" lon="7.08237">
        <ele>1178.1340332031</ele>
        <time>2017-06-11T12:09:52Z</time>
      </trkpt>
      <trkpt lat="44.11901" lon="7.08246">
        <ele>1175.5340576172</ele>
        <time>2017-06-11T12:09:57Z</time>
      </trkpt>
      <trkpt lat="44.11904" lon="7.08258">
        <ele>1173.2340087891</ele>
        <time>2017-06-11T12:10:02Z</time>
      </trkpt>
      <trkpt lat="44.119" lon="7.08268">
        <ele>1170.9339599609</ele>
        <time>2017-06-11T12:10:10Z</time>
      </trkpt>
      <trkpt lat="44.11896" lon="7.08278">
        <ele>1174.4339599609</ele>
        <time>2017-06-11T12:10:36Z</time>
      </trkpt>
      <trkpt lat="44.11884" lon="7.08277">
        <ele>1171.0340576172</ele>
        <time>2017-06-11T12:10:42Z</time>
      </trkpt>
      <trkpt lat="44.11877" lon="7.08291">
        <ele>1170.333984375</ele>
        <time>2017-06-11T12:10:51Z</time>
      </trkpt>
      <trkpt lat="44.11875" lon="7.08303">
        <ele>1168.9339599609</ele>
        <time>2017-06-11T12:10:59Z</time>
      </trkpt>
      <trkpt lat="44.11879" lon="7.08327">
        <ele>1165.6340332031</ele>
        <time>2017-06-11T12:11:08Z</time>
      </trkpt>
      <trkpt lat="44.11571" lon="7.08592">
        <ele>1138.0340576172</ele>
        <time>2017-06-11T12:12:35Z</time>
      </trkpt>
      <trkpt lat="44.11559" lon="7.08623">
        <ele>1132.9339599609</ele>
        <time>2017-06-11T12:12:44Z</time>
      </trkpt>
      <trkpt lat="44.11559" lon="7.08634">
        <ele>1132.333984375</ele>
        <time>2017-06-11T12:12:52Z</time>
      </trkpt>
      <trkpt lat="44.11562" lon="7.08657">
        <ele>1130.7340087891</ele>
        <time>2017-06-11T12:13:00Z</time>
      </trkpt>
      <trkpt lat="44.11551" lon="7.08669">
        <ele>1126.333984375</ele>
        <time>2017-06-11T12:13:20Z</time>
      </trkpt>
      <trkpt lat="44.1154" lon="7.08672">
        <ele>1120.5340576172</ele>
        <time>2017-06-11T12:13:36Z</time>
      </trkpt>
      <trkpt lat="44.11525" lon="7.0867">
        <ele>1119.1340332031</ele>
        <time>2017-06-11T12:13:42Z</time>
      </trkpt>
      <trkpt lat="44.11509" lon="7.08666">
        <ele>1116.1340332031</ele>
        <time>2017-06-11T12:13:48Z</time>
      </trkpt>
      <trkpt lat="44.11529" lon="7.08702">
        <ele>1039.2340087891</ele>
        <time>2017-06-11T12:14:54Z</time>
      </trkpt>
      <trkpt lat="44.1154" lon="7.08719">
        <ele>1066.7340087891</ele>
        <time>2017-06-11T12:15:01Z</time>
      </trkpt>
      <trkpt lat="44.11549" lon="7.08704">
        <ele>1063.2340087891</ele>
        <time>2017-06-11T12:15:04Z</time>
      </trkpt>
      <trkpt lat="44.11536" lon="7.08673">
        <ele>1108.7340087891</ele>
        <time>2017-06-11T12:15:10Z</time>
      </trkpt>
      <trkpt lat="44.11523" lon="7.08662">
        <ele>1110.2340087891</ele>
        <time>2017-06-11T12:15:17Z</time>
      </trkpt>
      <trkpt lat="44.11515" lon="7.0865">
        <ele>1105.333984375</ele>
        <time>2017-06-11T12:16:16Z</time>
      </trkpt>
      <trkpt lat="44.11522" lon="7.08646">
        <ele>1101.4339599609</ele>
        <time>2017-06-11T12:16:50Z</time>
      </trkpt>
      <trkpt lat="44.11513" lon="7.08665">
        <ele>1102.2340087891</ele>
        <time>2017-06-11T12:17:42Z</time>
      </trkpt>
      <trkpt lat="44.1151" lon="7.08674">
        <ele>1101.833984375</ele>
        <time>2017-06-11T12:17:55Z</time>
      </trkpt>
      <trkpt lat="44.11504" lon="7.0867">
        <ele>1101.9339599609</ele>
        <time>2017-06-11T12:18:07Z</time>
      </trkpt>
      <trkpt lat="44.11498" lon="7.08662">
        <ele>1102.0340576172</ele>
        <time>2017-06-11T12:18:17Z</time>
      </trkpt>
      <trkpt lat="44.1149" lon="7.0864">
        <ele>1101.6340332031</ele>
        <time>2017-06-11T12:18:23Z</time>
      </trkpt>
      <trkpt lat="44.11476" lon="7.08624">
        <ele>1100.5340576172</ele>
        <time>2017-06-11T12:18:29Z</time>
      </trkpt>
      <trkpt lat="44.1146" lon="7.08616">
        <ele>1099.5340576172</ele>
        <time>2017-06-11T12:18:35Z</time>
      </trkpt>
      <trkpt lat="44.1145" lon="7.08597">
        <ele>1099.9339599609</ele>
        <time>2017-06-11T12:18:42Z</time>
      </trkpt>
      <trkpt lat="44.11442" lon="7.08578">
        <ele>1099.333984375</ele>
        <time>2017-06-11T12:18:48Z</time>
      </trkpt>
      <trkpt lat="44.1144" lon="7.08553">
        <ele>1098.6340332031</ele>
        <time>2017-06-11T12:18:56Z</time>
      </trkpt>
      <trkpt lat="44.11434" lon="7.0853">
        <ele>1099.1340332031</ele>
        <time>2017-06-11T12:19:03Z</time>
      </trkpt>
      <trkpt lat="44.11422" lon="7.08517">
        <ele>1099.6340332031</ele>
        <time>2017-06-11T12:19:08Z</time>
      </trkpt>
      <trkpt lat="44.11395" lon="7.08652">
        <ele>1098.7340087891</ele>
        <time>2017-06-11T12:19:32Z</time>
      </trkpt>
      <trkpt lat="44.11384" lon="7.08668">
        <ele>1100.2340087891</ele>
        <time>2017-06-11T12:19:40Z</time>
      </trkpt>
      <trkpt lat="44.11366" lon="7.08668">
        <ele>1099.4339599609</ele>
        <time>2017-06-11T12:19:46Z</time>
      </trkpt>
      <trkpt lat="44.11365" lon="7.08614">
        <ele>1124.2340087891</ele>
        <time>2017-06-11T12:19:53Z</time>
      </trkpt>
      <trkpt lat="44.11495" lon="7.0859">
        <ele>1097.7340087891</ele>
        <time>2017-06-11T12:20:23Z</time>
      </trkpt>
      <trkpt lat="44.11489" lon="7.0861">
        <ele>1099.9339599609</ele>
        <time>2017-06-11T12:20:29Z</time>
      </trkpt>
      <trkpt lat="44.11478" lon="7.08629">
        <ele>1103.4339599609</ele>
        <time>2017-06-11T12:20:36Z</time>
      </trkpt>
      <trkpt lat="44.11467" lon="7.0865">
        <ele>1104.9339599609</ele>
        <time>2017-06-11T12:20:43Z</time>
      </trkpt>
      <trkpt lat="44.11451" lon="7.08656">
        <ele>1106.4339599609</ele>
        <time>2017-06-11T12:20:50Z</time>
      </trkpt>
      <trkpt lat="44.11201" lon="7.0888">
        <ele>1113.833984375</ele>
        <time>2017-06-11T12:21:48Z</time>
      </trkpt>
      <trkpt lat="44.11189" lon="7.089">
        <ele>1114.9339599609</ele>
        <time>2017-06-11T12:21:59Z</time>
      </trkpt>
      <trkpt lat="44.11207" lon="7.08895">
        <ele>1109.9339599609</ele>
        <time>2017-06-11T12:22:05Z</time>
      </trkpt>
      <trkpt lat="44.11302" lon="7.08839">
        <ele>1115.1340332031</ele>
        <time>2017-06-11T12:22:31Z</time>
      </trkpt>
      <trkpt lat="44.11289" lon="7.08851">
        <ele>1115.7340087891</ele>
        <time>2017-06-11T12:22:37Z</time>
      </trkpt>
      <trkpt lat="44.11283" lon="7.08875">
        <ele>1114.833984375</ele>
        <time>2017-06-11T12:22:42Z</time>
      </trkpt>
      <trkpt lat="44.11278" lon="7.08897">
        <ele>1114.9339599609</ele>
        <time>2017-06-11T12:22:48Z</time>
      </trkpt>
      <trkpt lat="44.11267" lon="7.08916">
        <ele>1115.9339599609</ele>
        <time>2017-06-11T12:22:54Z</time>
      </trkpt>
      <trkpt lat="44.11251" lon="7.08927">
        <ele>1117.2340087891</ele>
        <time>2017-06-11T12:23:02Z</time>
      </trkpt>
      <trkpt lat="44.11243" lon="7.08934">
        <ele>1117.7340087891</ele>
        <time>2017-06-11T12:23:07Z</time>
      </trkpt>
      <trkpt lat="44.11236" lon="7.0894">
        <ele>1118.2340087891</ele>
        <time>2017-06-11T12:23:12Z</time>
      </trkpt>
      <trkpt lat="44.11243" lon="7.08946">
        <ele>1118.0340576172</ele>
        <time>2017-06-11T12:23:23Z</time>
      </trkpt>
      <trkpt lat="44.11243" lon="7.08969">
        <ele>1115.2340087891</ele>
        <time>2017-06-11T12:23:30Z</time>
      </trkpt>
      <trkpt lat="44.11232" lon="7.08986">
        <ele>1116.333984375</ele>
        <time>2017-06-11T12:23:36Z</time>
      </trkpt>
      <trkpt lat="44.11221" lon="7.09006">
        <ele>1118.6340332031</ele>
        <time>2017-06-11T12:23:42Z</time>
      </trkpt>
      <trkpt lat="44.11212" lon="7.09029">
        <ele>1117.9339599609</ele>
        <time>2017-06-11T12:23:49Z</time>
      </trkpt>
      <trkpt lat="44.11199" lon="7.09044">
        <ele>1120.833984375</ele>
        <time>2017-06-11T12:23:58Z</time>
      </trkpt>
      <trkpt lat="44.11191" lon="7.09043">
        <ele>1121.6340332031</ele>
        <time>2017-06-11T12:24:04Z</time>
      </trkpt>
      <trkpt lat="44.1119" lon="7.09054">
        <ele>1122.4339599609</ele>
        <time>2017-06-11T12:24:13Z</time>
      </trkpt>
      <trkpt lat="44.11179" lon="7.09074">
        <ele>1123.4339599609</ele>
        <time>2017-06-11T12:24:21Z</time>
      </trkpt>
      <trkpt lat="44.11167" lon="7.09105">
        <ele>1123.4339599609</ele>
        <time>2017-06-11T12:24:28Z</time>
      </trkpt>
      <trkpt lat="44.11159" lon="7.0911">
        <ele>1124.2340087891</ele>
        <time>2017-06-11T12:24:34Z</time>
      </trkpt>
      <trkpt lat="44.11151" lon="7.09106">
        <ele>1124.7340087891</ele>
        <time>2017-06-11T12:24:39Z</time>
      </trkpt>
      <trkpt lat="44.11142" lon="7.09109">
        <ele>1125.4339599609</ele>
        <time>2017-06-11T12:24:44Z</time>
      </trkpt>
      <trkpt lat="44.11135" lon="7.09108">
        <ele>1126.6340332031</ele>
        <time>2017-06-11T12:24:49Z</time>
      </trkpt>
      <trkpt lat="44.11128" lon="7.0913">
        <ele>1125.833984375</ele>
        <time>2017-06-11T12:25:05Z</time>
      </trkpt>
      <trkpt lat="44.11131" lon="7.09153">
        <ele>1126.4339599609</ele>
        <time>2017-06-11T12:25:14Z</time>
      </trkpt>
      <trkpt lat="44.11127" lon="7.09175">
        <ele>1124.8349609375</ele>
        <time>2017-06-11T12:25:22Z</time>
      </trkpt>
      <trkpt lat="44.1112" lon="7.09181">
        <ele>1125.1350097656</ele>
        <time>2017-06-11T12:25:27Z</time>
      </trkpt>
      <trkpt lat="44.11105" lon="7.09191">
        <ele>1126.8349609375</ele>
        <time>2017-06-11T12:25:33Z</time>
      </trkpt>
      <trkpt lat="44.11092" lon="7.0922">
        <ele>1129.2349853516</ele>
        <time>2017-06-11T12:25:39Z</time>
      </trkpt>
      <trkpt lat="44.11078" lon="7.0924">
        <ele>1130.8349609375</ele>
        <time>2017-06-11T12:25:46Z</time>
      </trkpt>
      <trkpt lat="44.11062" lon="7.09254">
        <ele>1132.9350585938</ele>
        <time>2017-06-11T12:25:52Z</time>
      </trkpt>
      <trkpt lat="44.11047" lon="7.09272">
        <ele>1135.4350585938</ele>
        <time>2017-06-11T12:25:59Z</time>
      </trkpt>
      <trkpt lat="44.1104" lon="7.09296">
        <ele>1135.3349609375</ele>
        <time>2017-06-11T12:26:05Z</time>
      </trkpt>
      <trkpt lat="44.11034" lon="7.09321">
        <ele>1135.2349853516</ele>
        <time>2017-06-11T12:26:11Z</time>
      </trkpt>
      <trkpt lat="44.11025" lon="7.09342">
        <ele>1137.1350097656</ele>
        <time>2017-06-11T12:26:17Z</time>
      </trkpt>
      <trkpt lat="44.11019" lon="7.09361">
        <ele>1138.5350341797</ele>
        <time>2017-06-11T12:26:24Z</time>
      </trkpt>
      <trkpt lat="44.11008" lon="7.09381">
        <ele>1140.0350341797</ele>
        <time>2017-06-11T12:26:32Z</time>
      </trkpt>
      <trkpt lat="44.10994" lon="7.09397">
        <ele>1141.4350585938</ele>
        <time>2017-06-11T12:26:40Z</time>
      </trkpt>
      <trkpt lat="44.10962" lon="7.09433">
        <ele>1144.1350097656</ele>
        <time>2017-06-11T12:26:55Z</time>
      </trkpt>
      <trkpt lat="44.1095" lon="7.09448">
        <ele>1158.9350585938</ele>
        <time>2017-06-11T12:27:01Z</time>
      </trkpt>
      <trkpt lat="44.10758" lon="7.09266">
        <ele>933.833984375</ele>
        <time>2017-06-11T12:27:47Z</time>
      </trkpt>
      <trkpt lat="44.10752" lon="7.09287">
        <ele>934.53399658203</ele>
        <time>2017-06-11T12:27:56Z</time>
      </trkpt>
      <trkpt lat="44.10741" lon="7.09304">
        <ele>933.73400878906</ele>
        <time>2017-06-11T12:28:02Z</time>
      </trkpt>
      <trkpt lat="44.10731" lon="7.09319">
        <ele>931.93402099609</ele>
        <time>2017-06-11T12:28:09Z</time>
      </trkpt>
      <trkpt lat="44.10722" lon="7.0934">
        <ele>930.833984375</ele>
        <time>2017-06-11T12:28:17Z</time>
      </trkpt>
      <trkpt lat="44.10707" lon="7.09352">
        <ele>924.333984375</ele>
        <time>2017-06-11T12:28:23Z</time>
      </trkpt>
      <trkpt lat="44.10693" lon="7.09365">
        <ele>922.333984375</ele>
        <time>2017-06-11T12:28:32Z</time>
      </trkpt>
      <trkpt lat="44.10692" lon="7.09377">
        <ele>930.03399658203</ele>
        <time>2017-06-11T12:28:36Z</time>
      </trkpt>
      <trkpt lat="44.10675" lon="7.09379">
        <ele>932.23400878906</ele>
        <time>2017-06-11T12:28:44Z</time>
      </trkpt>
      <trkpt lat="44.1066" lon="7.09372">
        <ele>934.23400878906</ele>
        <time>2017-06-11T12:28:52Z</time>
      </trkpt>
      <trkpt lat="44.10654" lon="7.09364">
        <ele>934.833984375</ele>
        <time>2017-06-11T12:28:57Z</time>
      </trkpt>
      <trkpt lat="44.10651" lon="7.09344">
        <ele>933.73400878906</ele>
        <time>2017-06-11T12:29:05Z</time>
      </trkpt>
      <trkpt lat="44.10651" lon="7.09331">
        <ele>930.43402099609</ele>
        <time>2017-06-11T12:29:10Z</time>
      </trkpt>
      <trkpt lat="44.10647" lon="7.09307">
        <ele>926.43402099609</ele>
        <time>2017-06-11T12:29:18Z</time>
      </trkpt>
      <trkpt lat="44.10632" lon="7.09294">
        <ele>923.43402099609</ele>
        <time>2017-06-11T12:29:26Z</time>
      </trkpt>
      <trkpt lat="44.10608" lon="7.09299">
        <ele>927.43402099609</ele>
        <time>2017-06-11T12:29:32Z</time>
      </trkpt>
      <trkpt lat="44.10594" lon="7.09313">
        <ele>929.63397216797</ele>
        <time>2017-06-11T12:29:39Z</time>
      </trkpt>
      <trkpt lat="44.10582" lon="7.09329">
        <ele>934.13397216797</ele>
        <time>2017-06-11T12:29:48Z</time>
      </trkpt>
      <trkpt lat="44.1057" lon="7.09348">
        <ele>936.43402099609</ele>
        <time>2017-06-11T12:29:56Z</time>
      </trkpt>
      <trkpt lat="44.10558" lon="7.09367">
        <ele>941.833984375</ele>
        <time>2017-06-11T12:30:04Z</time>
      </trkpt>
      <trkpt lat="44.10545" lon="7.09381">
        <ele>945.73400878906</ele>
        <time>2017-06-11T12:30:13Z</time>
      </trkpt>
      <trkpt lat="44.10539" lon="7.09389">
        <ele>947.63397216797</ele>
        <time>2017-06-11T12:30:18Z</time>
      </trkpt>
      <trkpt lat="44.10533" lon="7.09397">
        <ele>947.833984375</ele>
        <time>2017-06-11T12:30:23Z</time>
      </trkpt>
      <trkpt lat="44.10519" lon="7.09411">
        <ele>946.833984375</ele>
        <time>2017-06-11T12:30:31Z</time>
      </trkpt>
      <trkpt lat="44.10511" lon="7.09417">
        <ele>947.03399658203</ele>
        <time>2017-06-11T12:30:36Z</time>
      </trkpt>
      <trkpt lat="44.10504" lon="7.09423">
        <ele>947.53399658203</ele>
        <time>2017-06-11T12:30:41Z</time>
      </trkpt>
      <trkpt lat="44.10497" lon="7.09425">
        <ele>948.13397216797</ele>
        <time>2017-06-11T12:30:46Z</time>
      </trkpt>
      <trkpt lat="44.1049" lon="7.0943">
        <ele>949.43402099609</ele>
        <time>2017-06-11T12:30:51Z</time>
      </trkpt>
      <trkpt lat="44.10475" lon="7.09434">
        <ele>951.43402099609</ele>
        <time>2017-06-11T12:30:59Z</time>
      </trkpt>
      <trkpt lat="44.10459" lon="7.09443">
        <ele>951.73400878906</ele>
        <time>2017-06-11T12:31:08Z</time>
      </trkpt>
      <trkpt lat="44.10445" lon="7.09452">
        <ele>953.63397216797</ele>
        <time>2017-06-11T12:31:17Z</time>
      </trkpt>
      <trkpt lat="44.10436" lon="7.09452">
        <ele>954.833984375</ele>
        <time>2017-06-11T12:31:23Z</time>
      </trkpt>
      <trkpt lat="44.10428" lon="7.09453">
        <ele>955.333984375</ele>
        <time>2017-06-11T12:31:28Z</time>
      </trkpt>
      <trkpt lat="44.10411" lon="7.09459">
        <ele>956.63397216797</ele>
        <time>2017-06-11T12:31:37Z</time>
      </trkpt>
      <trkpt lat="44.10396" lon="7.09461">
        <ele>956.13397216797</ele>
        <time>2017-06-11T12:31:45Z</time>
      </trkpt>
      <trkpt lat="44.10386" lon="7.0946">
        <ele>954.833984375</ele>
        <time>2017-06-11T12:31:50Z</time>
      </trkpt>
      <trkpt lat="44.1037" lon="7.09458">
        <ele>954.43402099609</ele>
        <time>2017-06-11T12:31:59Z</time>
      </trkpt>
      <trkpt lat="44.10354" lon="7.09453">
        <ele>955.03399658203</ele>
        <time>2017-06-11T12:32:07Z</time>
      </trkpt>
      <trkpt lat="44.10339" lon="7.09452">
        <ele>959.03399658203</ele>
        <time>2017-06-11T12:32:16Z</time>
      </trkpt>
      <trkpt lat="44.10325" lon="7.09448">
        <ele>959.93402099609</ele>
        <time>2017-06-11T12:32:24Z</time>
      </trkpt>
      <trkpt lat="44.10317" lon="7.09445">
        <ele>961.73400878906</ele>
        <time>2017-06-11T12:32:29Z</time>
      </trkpt>
      <trkpt lat="44.10308" lon="7.09443">
        <ele>961.43402099609</ele>
        <time>2017-06-11T12:32:34Z</time>
      </trkpt>
      <trkpt lat="44.10292" lon="7.0944">
        <ele>961.63397216797</ele>
        <time>2017-06-11T12:32:43Z</time>
      </trkpt>
      <trkpt lat="44.10276" lon="7.09438">
        <ele>964.43402099609</ele>
        <time>2017-06-11T12:32:52Z</time>
      </trkpt>
      <trkpt lat="44.10268" lon="7.09436">
        <ele>966.93402099609</ele>
        <time>2017-06-11T12:32:57Z</time>
      </trkpt>
      <trkpt lat="44.1026" lon="7.0944">
        <ele>969.03399658203</ele>
        <time>2017-06-11T12:33:02Z</time>
      </trkpt>
      <trkpt lat="44.10245" lon="7.09451">
        <ele>971.03399658203</ele>
        <time>2017-06-11T12:33:10Z</time>
      </trkpt>
      <trkpt lat="44.1023" lon="7.09462">
        <ele>971.833984375</ele>
        <time>2017-06-11T12:33:18Z</time>
      </trkpt>
      <trkpt lat="44.10215" lon="7.0947">
        <ele>972.63397216797</ele>
        <time>2017-06-11T12:33:26Z</time>
      </trkpt>
      <trkpt lat="44.102" lon="7.09478">
        <ele>972.333984375</ele>
        <time>2017-06-11T12:33:34Z</time>
      </trkpt>
      <trkpt lat="44.10185" lon="7.09489">
        <ele>971.23400878906</ele>
        <time>2017-06-11T12:33:42Z</time>
      </trkpt>
      <trkpt lat="44.10169" lon="7.09492">
        <ele>969.333984375</ele>
        <time>2017-06-11T12:33:50Z</time>
      </trkpt>
      <trkpt lat="44.10153" lon="7.09494">
        <ele>967.63397216797</ele>
        <time>2017-06-11T12:33:58Z</time>
      </trkpt>
      <trkpt lat="44.10136" lon="7.095">
        <ele>971.23400878906</ele>
        <time>2017-06-11T12:34:07Z</time>
      </trkpt>
      <trkpt lat="44.10129" lon="7.09505">
        <ele>974.03399658203</ele>
        <time>2017-06-11T12:34:11Z</time>
      </trkpt>
      <trkpt lat="44.10114" lon="7.09509">
        <ele>975.13397216797</ele>
        <time>2017-06-11T12:34:19Z</time>
      </trkpt>
      <trkpt lat="44.10107" lon="7.09507">
        <ele>975.833984375</ele>
        <time>2017-06-11T12:34:24Z</time>
      </trkpt>
      <trkpt lat="44.1009" lon="7.09509">
        <ele>976.03399658203</ele>
        <time>2017-06-11T12:34:32Z</time>
      </trkpt>
      <trkpt lat="44.10073" lon="7.09502">
        <ele>976.53399658203</ele>
        <time>2017-06-11T12:34:40Z</time>
      </trkpt>
      <trkpt lat="44.10056" lon="7.09501">
        <ele>976.93402099609</ele>
        <time>2017-06-11T12:34:48Z</time>
      </trkpt>
      <trkpt lat="44.10039" lon="7.09501">
        <ele>976.333984375</ele>
        <time>2017-06-11T12:34:56Z</time>
      </trkpt>
      <trkpt lat="44.10024" lon="7.095">
        <ele>978.03399658203</ele>
        <time>2017-06-11T12:35:04Z</time>
      </trkpt>
      <trkpt lat="44.10016" lon="7.09501">
        <ele>979.03399658203</ele>
        <time>2017-06-11T12:35:09Z</time>
      </trkpt>
      <trkpt lat="44.09999" lon="7.09501">
        <ele>980.63397216797</ele>
        <time>2017-06-11T12:35:17Z</time>
      </trkpt>
      <trkpt lat="44.09983" lon="7.09504">
        <ele>981.03399658203</ele>
        <time>2017-06-11T12:35:25Z</time>
      </trkpt>
      <trkpt lat="44.09968" lon="7.095">
        <ele>983.73297119141</ele>
        <time>2017-06-11T12:35:33Z</time>
      </trkpt>
      <trkpt lat="44.0996" lon="7.09497">
        <ele>984.8330078125</ele>
        <time>2017-06-11T12:35:38Z</time>
      </trkpt>
      <trkpt lat="44.09952" lon="7.09494">
        <ele>985.3330078125</ele>
        <time>2017-06-11T12:35:43Z</time>
      </trkpt>
      <trkpt lat="44.09938" lon="7.09484">
        <ele>984.3330078125</ele>
        <time>2017-06-11T12:35:51Z</time>
      </trkpt>
      <trkpt lat="44.09922" lon="7.09478">
        <ele>985.23297119141</ele>
        <time>2017-06-11T12:36:00Z</time>
      </trkpt>
      <trkpt lat="44.09914" lon="7.09473">
        <ele>985.03302001953</ele>
        <time>2017-06-11T12:36:05Z</time>
      </trkpt>
      <trkpt lat="44.09901" lon="7.09464">
        <ele>984.73297119141</ele>
        <time>2017-06-11T12:36:14Z</time>
      </trkpt>
      <trkpt lat="44.09893" lon="7.09459">
        <ele>985.8330078125</ele>
        <time>2017-06-11T12:36:19Z</time>
      </trkpt>
      <trkpt lat="44.09878" lon="7.09453">
        <ele>985.3330078125</ele>
        <time>2017-06-11T12:36:27Z</time>
      </trkpt>
      <trkpt lat="44.09864" lon="7.09459">
        <ele>986.03302001953</ele>
        <time>2017-06-11T12:36:35Z</time>
      </trkpt>
      <trkpt lat="44.09849" lon="7.0947">
        <ele>987.73297119141</ele>
        <time>2017-06-11T12:36:43Z</time>
      </trkpt>
      <trkpt lat="44.09835" lon="7.09482">
        <ele>990.8330078125</ele>
        <time>2017-06-11T12:36:52Z</time>
      </trkpt>
      <trkpt lat="44.09827" lon="7.09485">
        <ele>993.73297119141</ele>
        <time>2017-06-11T12:36:57Z</time>
      </trkpt>
      <trkpt lat="44.0982" lon="7.09482">
        <ele>991.3330078125</ele>
        <time>2017-06-11T12:39:12Z</time>
      </trkpt>
      <trkpt lat="44.09815" lon="7.09475">
        <ele>990.63299560547</ele>
        <time>2017-06-11T12:39:17Z</time>
      </trkpt>
      <trkpt lat="44.09807" lon="7.09476">
        <ele>990.23297119141</ele>
        <time>2017-06-11T12:39:24Z</time>
      </trkpt>
      <trkpt lat="44.09801" lon="7.09483">
        <ele>989.93298339844</ele>
        <time>2017-06-11T12:39:29Z</time>
      </trkpt>
      <trkpt lat="44.09794" lon="7.09489">
        <ele>989.93298339844</ele>
        <time>2017-06-11T12:39:35Z</time>
      </trkpt>
      <trkpt lat="44.09786" lon="7.09492">
        <ele>991.13299560547</ele>
        <time>2017-06-11T12:39:40Z</time>
      </trkpt>
      <trkpt lat="44.0977" lon="7.0949">
        <ele>992.23297119141</ele>
        <time>2017-06-11T12:39:48Z</time>
      </trkpt>
      <trkpt lat="44.09754" lon="7.0948">
        <ele>996.8330078125</ele>
        <time>2017-06-11T12:39:57Z</time>
      </trkpt>
      <trkpt lat="44.09738" lon="7.09476">
        <ele>1000.0330200195</ele>
        <time>2017-06-11T12:40:06Z</time>
      </trkpt>
      <trkpt lat="44.09728" lon="7.09477">
        <ele>1001.1329956055</ele>
        <time>2017-06-11T12:40:11Z</time>
      </trkpt>
      <trkpt lat="44.09711" lon="7.09477">
        <ele>1001.5330200195</ele>
        <time>2017-06-11T12:40:19Z</time>
      </trkpt>
      <trkpt lat="44.09695" lon="7.09474">
        <ele>999.63299560547</ele>
        <time>2017-06-11T12:40:27Z</time>
      </trkpt>
      <trkpt lat="44.09678" lon="7.09477">
        <ele>1002.1329956055</ele>
        <time>2017-06-11T12:40:35Z</time>
      </trkpt>
      <trkpt lat="44.09671" lon="7.09483">
        <ele>1004.0330200195</ele>
        <time>2017-06-11T12:40:40Z</time>
      </trkpt>
      <trkpt lat="44.09658" lon="7.09495">
        <ele>1008.1329956055</ele>
        <time>2017-06-11T12:40:48Z</time>
      </trkpt>
      <trkpt lat="44.09651" lon="7.09501">
        <ele>1009.4329833984</ele>
        <time>2017-06-11T12:40:53Z</time>
      </trkpt>
      <trkpt lat="44.09635" lon="7.0951">
        <ele>1007.1329956055</ele>
        <time>2017-06-11T12:41:01Z</time>
      </trkpt>
      <trkpt lat="44.0962" lon="7.09519">
        <ele>1005.6329956055</ele>
        <time>2017-06-11T12:41:09Z</time>
      </trkpt>
      <trkpt lat="44.09604" lon="7.09522">
        <ele>1007.4329833984</ele>
        <time>2017-06-11T12:41:17Z</time>
      </trkpt>
      <trkpt lat="44.09596" lon="7.09517">
        <ele>1007.8330078125</ele>
        <time>2017-06-11T12:41:22Z</time>
      </trkpt>
      <trkpt lat="44.09588" lon="7.09515">
        <ele>1007.9329833984</ele>
        <time>2017-06-11T12:41:27Z</time>
      </trkpt>
      <trkpt lat="44.09572" lon="7.09511">
        <ele>1009.2329711914</ele>
        <time>2017-06-11T12:41:35Z</time>
      </trkpt>
      <trkpt lat="44.09564" lon="7.09512">
        <ele>1010.1329956055</ele>
        <time>2017-06-11T12:41:40Z</time>
      </trkpt>
      <trkpt lat="44.09547" lon="7.09513">
        <ele>1010.9329833984</ele>
        <time>2017-06-11T12:41:48Z</time>
      </trkpt>
      <trkpt lat="44.09531" lon="7.0952">
        <ele>1011.3330078125</ele>
        <time>2017-06-11T12:41:56Z</time>
      </trkpt>
      <trkpt lat="44.09515" lon="7.0953">
        <ele>1012.4329833984</ele>
        <time>2017-06-11T12:42:04Z</time>
      </trkpt>
      <trkpt lat="44.095" lon="7.09537">
        <ele>1015.4329833984</ele>
        <time>2017-06-11T12:42:12Z</time>
      </trkpt>
      <trkpt lat="44.09485" lon="7.09541">
        <ele>1015.6329956055</ele>
        <time>2017-06-11T12:42:20Z</time>
      </trkpt>
      <trkpt lat="44.09469" lon="7.09544">
        <ele>1015.4329833984</ele>
        <time>2017-06-11T12:42:28Z</time>
      </trkpt>
      <trkpt lat="44.09454" lon="7.09547">
        <ele>1015.3330078125</ele>
        <time>2017-06-11T12:42:36Z</time>
      </trkpt>
      <trkpt lat="44.09439" lon="7.09546">
        <ele>1016.2329711914</ele>
        <time>2017-06-11T12:42:44Z</time>
      </trkpt>
      <trkpt lat="44.09425" lon="7.09535">
        <ele>1017.6329956055</ele>
        <time>2017-06-11T12:42:52Z</time>
      </trkpt>
      <trkpt lat="44.09411" lon="7.09525">
        <ele>1018.8330078125</ele>
        <time>2017-06-11T12:43:00Z</time>
      </trkpt>
      <trkpt lat="44.094" lon="7.09512">
        <ele>1018.4329833984</ele>
        <time>2017-06-11T12:43:09Z</time>
      </trkpt>
      <trkpt lat="44.09396" lon="7.09492">
        <ele>1021.6329956055</ele>
        <time>2017-06-11T12:43:18Z</time>
      </trkpt>
      <trkpt lat="44.09393" lon="7.09481">
        <ele>1023.3330078125</ele>
        <time>2017-06-11T12:43:23Z</time>
      </trkpt>
      <trkpt lat="44.09386" lon="7.09461">
        <ele>1026.4329833984</ele>
        <time>2017-06-11T12:43:31Z</time>
      </trkpt>
      <trkpt lat="44.09383" lon="7.09439">
        <ele>1027.8330078125</ele>
        <time>2017-06-11T12:43:40Z</time>
      </trkpt>
      <trkpt lat="44.09388" lon="7.09419">
        <ele>1029.33203125</ele>
        <time>2017-06-11T12:43:49Z</time>
      </trkpt>
      <trkpt lat="44.09392" lon="7.09394">
        <ele>1026.9320068359</ele>
        <time>2017-06-11T12:43:57Z</time>
      </trkpt>
      <trkpt lat="44.09392" lon="7.09382">
        <ele>1026.9320068359</ele>
        <time>2017-06-11T12:44:02Z</time>
      </trkpt>
      <trkpt lat="44.0939" lon="7.09358">
        <ele>1024.7320556641</ele>
        <time>2017-06-11T12:44:10Z</time>
      </trkpt>
      <trkpt lat="44.0938" lon="7.09341">
        <ele>1023.8319702148</ele>
        <time>2017-06-11T12:44:18Z</time>
      </trkpt>
      <trkpt lat="44.09367" lon="7.09326">
        <ele>1023.7319946289</ele>
        <time>2017-06-11T12:44:27Z</time>
      </trkpt>
      <trkpt lat="44.09359" lon="7.09324">
        <ele>1024.4320068359</ele>
        <time>2017-06-11T12:44:31Z</time>
      </trkpt>
      <trkpt lat="44.09342" lon="7.09324">
        <ele>1026.33203125</ele>
        <time>2017-06-11T12:44:39Z</time>
      </trkpt>
      <trkpt lat="44.09326" lon="7.09321">
        <ele>1026.5319824219</ele>
        <time>2017-06-11T12:44:46Z</time>
      </trkpt>
      <trkpt lat="44.09311" lon="7.09309">
        <ele>1026.83203125</ele>
        <time>2017-06-11T12:44:52Z</time>
      </trkpt>
      <trkpt lat="44.09298" lon="7.09298">
        <ele>1028.33203125</ele>
        <time>2017-06-11T12:44:58Z</time>
      </trkpt>
      <trkpt lat="44.09281" lon="7.09283">
        <ele>1028.9320068359</ele>
        <time>2017-06-11T12:45:04Z</time>
      </trkpt>
      <trkpt lat="44.09267" lon="7.09268">
        <ele>1030.0319824219</ele>
        <time>2017-06-11T12:45:10Z</time>
      </trkpt>
      <trkpt lat="44.09256" lon="7.09248">
        <ele>1029.7320556641</ele>
        <time>2017-06-11T12:45:16Z</time>
      </trkpt>
      <trkpt lat="44.09243" lon="7.0923">
        <ele>1030.2320556641</ele>
        <time>2017-06-11T12:45:21Z</time>
      </trkpt>
      <trkpt lat="44.09226" lon="7.0922">
        <ele>1029.83203125</ele>
        <time>2017-06-11T12:45:27Z</time>
      </trkpt>
      <trkpt lat="44.09207" lon="7.09211">
        <ele>1029.4320068359</ele>
        <time>2017-06-11T12:45:34Z</time>
      </trkpt>
      <trkpt lat="44.09189" lon="7.09203">
        <ele>1029.4320068359</ele>
        <time>2017-06-11T12:45:40Z</time>
      </trkpt>
      <trkpt lat="44.0917" lon="7.09194">
        <ele>1029.1319580078</ele>
        <time>2017-06-11T12:45:46Z</time>
      </trkpt>
      <trkpt lat="44.09153" lon="7.09178">
        <ele>1029.5319824219</ele>
        <time>2017-06-11T12:45:52Z</time>
      </trkpt>
      <trkpt lat="44.0914" lon="7.09158">
        <ele>1029.7320556641</ele>
        <time>2017-06-11T12:45:58Z</time>
      </trkpt>
      <trkpt lat="44.09128" lon="7.0914">
        <ele>1031.33203125</ele>
        <time>2017-06-11T12:46:04Z</time>
      </trkpt>
      <trkpt lat="44.09124" lon="7.09116">
        <ele>1034.2320556641</ele>
        <time>2017-06-11T12:46:11Z</time>
      </trkpt>
      <trkpt lat="44.09121" lon="7.09089">
        <ele>1033.6309814453</ele>
        <time>2017-06-11T12:46:17Z</time>
      </trkpt>
      <trkpt lat="44.09116" lon="7.09064">
        <ele>1034.5310058594</ele>
        <time>2017-06-11T12:46:23Z</time>
      </trkpt>
      <trkpt lat="44.09114" lon="7.09036">
        <ele>1036.8310546875</ele>
        <time>2017-06-11T12:46:29Z</time>
      </trkpt>
      <trkpt lat="44.09113" lon="7.09008">
        <ele>1038.7309570312</ele>
        <time>2017-06-11T12:46:35Z</time>
      </trkpt>
      <trkpt lat="44.09112" lon="7.08983">
        <ele>1038.9310302734</ele>
        <time>2017-06-11T12:46:41Z</time>
      </trkpt>
      <trkpt lat="44.09101" lon="7.08967">
        <ele>1039.0310058594</ele>
        <time>2017-06-11T12:46:46Z</time>
      </trkpt>
      <trkpt lat="44.09087" lon="7.08946">
        <ele>1037.8310546875</ele>
        <time>2017-06-11T12:46:52Z</time>
      </trkpt>
      <trkpt lat="44.09081" lon="7.08923">
        <ele>1036.1309814453</ele>
        <time>2017-06-11T12:46:57Z</time>
      </trkpt>
      <trkpt lat="44.09074" lon="7.08898">
        <ele>1029.9310302734</ele>
        <time>2017-06-11T12:47:03Z</time>
      </trkpt>
      <trkpt lat="44.09069" lon="7.08872">
        <ele>1028.4310302734</ele>
        <time>2017-06-11T12:47:09Z</time>
      </trkpt>
      <trkpt lat="44.09067" lon="7.08849">
        <ele>1029.9310302734</ele>
        <time>2017-06-11T12:47:15Z</time>
      </trkpt>
      <trkpt lat="44.09061" lon="7.08827">
        <ele>1034.0310058594</ele>
        <time>2017-06-11T12:47:22Z</time>
      </trkpt>
      <trkpt lat="44.0905" lon="7.08809">
        <ele>1036.3310546875</ele>
        <time>2017-06-11T12:47:28Z</time>
      </trkpt>
      <trkpt lat="44.09042" lon="7.08789">
        <ele>1037.6309814453</ele>
        <time>2017-06-11T12:47:34Z</time>
      </trkpt>
      <trkpt lat="44.09035" lon="7.08768">
        <ele>1037.6309814453</ele>
        <time>2017-06-11T12:47:40Z</time>
      </trkpt>
      <trkpt lat="44.09032" lon="7.08748">
        <ele>1037.5310058594</ele>
        <time>2017-06-11T12:47:46Z</time>
      </trkpt>
      <trkpt lat="44.09025" lon="7.08744">
        <ele>1036.2309570312</ele>
        <time>2017-06-11T12:48:11Z</time>
      </trkpt>
      <trkpt lat="44.09017" lon="7.08736">
        <ele>1035.8310546875</ele>
        <time>2017-06-11T12:48:16Z</time>
      </trkpt>
      <trkpt lat="44.08996" lon="7.08737">
        <ele>1035.2309570312</ele>
        <time>2017-06-11T12:48:23Z</time>
      </trkpt>
      <trkpt lat="44.08969" lon="7.08744">
        <ele>1034.1309814453</ele>
        <time>2017-06-11T12:48:29Z</time>
      </trkpt>
      <trkpt lat="44.08953" lon="7.0877">
        <ele>1031.0310058594</ele>
        <time>2017-06-11T12:48:36Z</time>
      </trkpt>
      <trkpt lat="44.08952" lon="7.08781">
        <ele>1031.3310546875</ele>
        <time>2017-06-11T12:48:41Z</time>
      </trkpt>
      <trkpt lat="44.08951" lon="7.08797">
        <ele>1030.4310302734</ele>
        <time>2017-06-11T12:49:10Z</time>
      </trkpt>
      <trkpt lat="44.08943" lon="7.08799">
        <ele>1031.0310058594</ele>
        <time>2017-06-11T12:49:58Z</time>
      </trkpt>
      <trkpt lat="44.0895" lon="7.08795">
        <ele>1032.5310058594</ele>
        <time>2017-06-11T12:50:50Z</time>
      </trkpt>
      <trkpt lat="44.08958" lon="7.08789">
        <ele>1034.5310058594</ele>
        <time>2017-06-11T12:51:08Z</time>
      </trkpt>
      <trkpt lat="44.08974" lon="7.08785">
        <ele>1037.2309570312</ele>
        <time>2017-06-11T12:51:14Z</time>
      </trkpt>
      <trkpt lat="44.08986" lon="7.08776">
        <ele>1035.1309814453</ele>
        <time>2017-06-11T12:51:26Z</time>
      </trkpt>
      <trkpt lat="44.08991" lon="7.08768">
        <ele>1033.4310302734</ele>
        <time>2017-06-11T12:51:38Z</time>
      </trkpt>
      <trkpt lat="44.08986" lon="7.08776">
        <ele>1031.2309570312</ele>
        <time>2017-06-11T12:51:49Z</time>
      </trkpt>
      <trkpt lat="44.08997" lon="7.08792">
        <ele>1028.0310058594</ele>
        <time>2017-06-11T12:51:55Z</time>
      </trkpt>
      <trkpt lat="44.09005" lon="7.08823">
        <ele>1024.5310058594</ele>
        <time>2017-06-11T12:52:02Z</time>
      </trkpt>
      <trkpt lat="44.09013" lon="7.08848">
        <ele>1021.5310058594</ele>
        <time>2017-06-11T12:52:07Z</time>
      </trkpt>
      <trkpt lat="44.0901" lon="7.08932">
        <ele>1008.5310058594</ele>
        <time>2017-06-11T12:52:19Z</time>
      </trkpt>
      <trkpt lat="44.09013" lon="7.08955">
        <ele>1001.8309936523</ele>
        <time>2017-06-11T12:52:24Z</time>
      </trkpt>
      <trkpt lat="44.09013" lon="7.08966">
        <ele>995.63098144531</ele>
        <time>2017-06-11T12:52:31Z</time>
      </trkpt>
      <trkpt lat="44.0901" lon="7.08977">
        <ele>994.03100585938</ele>
        <time>2017-06-11T12:52:38Z</time>
      </trkpt>
      <trkpt lat="44.09009" lon="7.09003">
        <ele>992.23101806641</ele>
        <time>2017-06-11T12:52:44Z</time>
      </trkpt>
      <trkpt lat="44.09012" lon="7.09022">
        <ele>990.33099365234</ele>
        <time>2017-06-11T12:52:51Z</time>
      </trkpt>
      <trkpt lat="44.09014" lon="7.09043">
        <ele>986.73101806641</ele>
        <time>2017-06-11T12:52:58Z</time>
      </trkpt>
      <trkpt lat="44.0902" lon="7.0906">
        <ele>984.63098144531</ele>
        <time>2017-06-11T12:53:03Z</time>
      </trkpt>
      <trkpt lat="44.09026" lon="7.09094">
        <ele>982.93103027344</ele>
        <time>2017-06-11T12:53:09Z</time>
      </trkpt>
      <trkpt lat="44.09032" lon="7.0913">
        <ele>981.43103027344</ele>
        <time>2017-06-11T12:53:15Z</time>
      </trkpt>
      <trkpt lat="44.09033" lon="7.09167">
        <ele>978.53100585938</ele>
        <time>2017-06-11T12:53:21Z</time>
      </trkpt>
      <trkpt lat="44.09047" lon="7.09198">
        <ele>977.13201904297</ele>
        <time>2017-06-11T12:53:27Z</time>
      </trkpt>
      <trkpt lat="44.0906" lon="7.09239">
        <ele>975.33197021484</ele>
        <time>2017-06-11T12:53:33Z</time>
      </trkpt>
      <trkpt lat="44.09063" lon="7.09282">
        <ele>971.03198242188</ele>
        <time>2017-06-11T12:53:39Z</time>
      </trkpt>
      <trkpt lat="44.09057" lon="7.09314">
        <ele>966.13201904297</ele>
        <time>2017-06-11T12:53:45Z</time>
      </trkpt>
      <trkpt lat="44.09046" lon="7.09348">
        <ele>960.63201904297</ele>
        <time>2017-06-11T12:53:51Z</time>
      </trkpt>
      <trkpt lat="44.09041" lon="7.09384">
        <ele>953.63201904297</ele>
        <time>2017-06-11T12:53:57Z</time>
      </trkpt>
      <trkpt lat="44.09045" lon="7.09409">
        <ele>949.43200683594</ele>
        <time>2017-06-11T12:54:01Z</time>
      </trkpt>
      <trkpt lat="44.09056" lon="7.09448">
        <ele>943.93200683594</ele>
        <time>2017-06-11T12:54:07Z</time>
      </trkpt>
      <trkpt lat="44.09059" lon="7.0949">
        <ele>938.23199462891</ele>
        <time>2017-06-11T12:54:13Z</time>
      </trkpt>
      <trkpt lat="44.09077" lon="7.09529">
        <ele>932.83197021484</ele>
        <time>2017-06-11T12:54:19Z</time>
      </trkpt>
      <trkpt lat="44.09098" lon="7.09554">
        <ele>926.53198242188</ele>
        <time>2017-06-11T12:54:26Z</time>
      </trkpt>
      <trkpt lat="44.09062" lon="7.09547">
        <ele>920.63201904297</ele>
        <time>2017-06-11T12:54:40Z</time>
      </trkpt>
      <trkpt lat="44.08985" lon="7.09445">
        <ele>917.83197021484</ele>
        <time>2017-06-11T12:55:12Z</time>
      </trkpt>
      <trkpt lat="44.08978" lon="7.0944">
        <ele>919.73199462891</ele>
        <time>2017-06-11T12:56:26Z</time>
      </trkpt>
      <trkpt lat="44.08976" lon="7.09451">
        <ele>921.23199462891</ele>
        <time>2017-06-11T12:56:32Z</time>
      </trkpt>
      <trkpt lat="44.08979" lon="7.09462">
        <ele>920.23199462891</ele>
        <time>2017-06-11T12:56:48Z</time>
      </trkpt>
      <trkpt lat="44.08976" lon="7.09487">
        <ele>916.23199462891</ele>
        <time>2017-06-11T12:56:56Z</time>
      </trkpt>
      <trkpt lat="44.08977" lon="7.09513">
        <ele>911.63201904297</ele>
        <time>2017-06-11T12:57:02Z</time>
      </trkpt>
      <trkpt lat="44.08981" lon="7.09541">
        <ele>906.33197021484</ele>
        <time>2017-06-11T12:57:07Z</time>
      </trkpt>
      <trkpt lat="44.08993" lon="7.09573">
        <ele>899.93200683594</ele>
        <time>2017-06-11T12:57:14Z</time>
      </trkpt>
      <trkpt lat="44.09008" lon="7.09589">
        <ele>894.93200683594</ele>
        <time>2017-06-11T12:57:19Z</time>
      </trkpt>
      <trkpt lat="44.09028" lon="7.0961">
        <ele>888.03198242188</ele>
        <time>2017-06-11T12:57:26Z</time>
      </trkpt>
      <trkpt lat="44.09041" lon="7.09621">
        <ele>884.53198242188</ele>
        <time>2017-06-11T12:57:37Z</time>
      </trkpt>
      <trkpt lat="44.09032" lon="7.0962">
        <ele>885.83197021484</ele>
        <time>2017-06-11T12:57:46Z</time>
      </trkpt>
      <trkpt lat="44.09004" lon="7.09615">
        <ele>885.33197021484</ele>
        <time>2017-06-11T12:57:52Z</time>
      </trkpt>
      <trkpt lat="44.08975" lon="7.09611">
        <ele>883.03198242188</ele>
        <time>2017-06-11T12:57:58Z</time>
      </trkpt>
      <trkpt lat="44.08949" lon="7.09607">
        <ele>877.63201904297</ele>
        <time>2017-06-11T12:58:05Z</time>
      </trkpt>
      <trkpt lat="44.08931" lon="7.09593">
        <ele>872.93200683594</ele>
        <time>2017-06-11T12:58:10Z</time>
      </trkpt>
      <trkpt lat="44.08924" lon="7.09571">
        <ele>867.43200683594</ele>
        <time>2017-06-11T12:58:15Z</time>
      </trkpt>
      <trkpt lat="44.08919" lon="7.09536">
        <ele>863.03198242188</ele>
        <time>2017-06-11T12:58:21Z</time>
      </trkpt>
      <trkpt lat="44.0891" lon="7.09514">
        <ele>860.93200683594</ele>
        <time>2017-06-11T12:58:26Z</time>
      </trkpt>
      <trkpt lat="44.08906" lon="7.09486">
        <ele>858.53198242188</ele>
        <time>2017-06-11T12:58:32Z</time>
      </trkpt>
      <trkpt lat="44.08906" lon="7.09463">
        <ele>857.13201904297</ele>
        <time>2017-06-11T12:58:37Z</time>
      </trkpt>
      <trkpt lat="44.08918" lon="7.09442">
        <ele>854.73199462891</ele>
        <time>2017-06-11T12:58:43Z</time>
      </trkpt>
      <trkpt lat="44.08913" lon="7.09405">
        <ele>853.23199462891</ele>
        <time>2017-06-11T12:58:51Z</time>
      </trkpt>
      <trkpt lat="44.08909" lon="7.09416">
        <ele>850.13201904297</ele>
        <time>2017-06-11T12:58:57Z</time>
      </trkpt>
      <trkpt lat="44.08899" lon="7.09436">
        <ele>846.13201904297</ele>
        <time>2017-06-11T12:59:02Z</time>
      </trkpt>
      <trkpt lat="44.08884" lon="7.09459">
        <ele>841.93200683594</ele>
        <time>2017-06-11T12:59:08Z</time>
      </trkpt>
      <trkpt lat="44.08872" lon="7.09482">
        <ele>837.63201904297</ele>
        <time>2017-06-11T12:59:14Z</time>
      </trkpt>
      <trkpt lat="44.08862" lon="7.095">
        <ele>833.23199462891</ele>
        <time>2017-06-11T12:59:19Z</time>
      </trkpt>
      <trkpt lat="44.08854" lon="7.09521">
        <ele>829.13201904297</ele>
        <time>2017-06-11T12:59:24Z</time>
      </trkpt>
      <trkpt lat="44.08842" lon="7.09537">
        <ele>822.73199462891</ele>
        <time>2017-06-11T12:59:30Z</time>
      </trkpt>
      <trkpt lat="44.08832" lon="7.09558">
        <ele>813.73199462891</ele>
        <time>2017-06-11T12:59:36Z</time>
      </trkpt>
      <trkpt lat="44.08838" lon="7.09581">
        <ele>809.73199462891</ele>
        <time>2017-06-11T12:59:42Z</time>
      </trkpt>
      <trkpt lat="44.08842" lon="7.09592">
        <ele>809.53198242188</ele>
        <time>2017-06-11T12:59:47Z</time>
      </trkpt>
      <trkpt lat="44.08847" lon="7.09602">
        <ele>811.23199462891</ele>
        <time>2017-06-11T13:00:13Z</time>
      </trkpt>
      <trkpt lat="44.08852" lon="7.09614">
        <ele>812.23199462891</ele>
        <time>2017-06-11T13:00:18Z</time>
      </trkpt>
      <trkpt lat="44.08864" lon="7.09633">
        <ele>813.03198242188</ele>
        <time>2017-06-11T13:00:23Z</time>
      </trkpt>
      <trkpt lat="44.08874" lon="7.09656">
        <ele>811.63201904297</ele>
        <time>2017-06-11T13:00:30Z</time>
      </trkpt>
      <trkpt lat="44.08866" lon="7.09647">
        <ele>808.73199462891</ele>
        <time>2017-06-11T13:00:39Z</time>
      </trkpt>
      <trkpt lat="44.08849" lon="7.09638">
        <ele>806.33197021484</ele>
        <time>2017-06-11T13:00:44Z</time>
      </trkpt>
      <trkpt lat="44.08812" lon="7.09629">
        <ele>803.73199462891</ele>
        <time>2017-06-11T13:00:50Z</time>
      </trkpt>
      <trkpt lat="44.0879" lon="7.09609">
        <ele>799.23199462891</ele>
        <time>2017-06-11T13:00:56Z</time>
      </trkpt>
      <trkpt lat="44.08781" lon="7.09576">
        <ele>801.23199462891</ele>
        <time>2017-06-11T13:01:02Z</time>
      </trkpt>
      <trkpt lat="44.08792" lon="7.09528">
        <ele>800.23199462891</ele>
        <time>2017-06-11T13:01:08Z</time>
      </trkpt>
      <trkpt lat="44.08796" lon="7.09515">
        <ele>800.23199462891</ele>
        <time>2017-06-11T13:01:10Z</time>
      </trkpt>
      <trkpt lat="44.08818" lon="7.09473">
        <ele>798.13201904297</ele>
        <time>2017-06-11T13:01:16Z</time>
      </trkpt>
      <trkpt lat="44.08827" lon="7.09427">
        <ele>795.03198242188</ele>
        <time>2017-06-11T13:01:22Z</time>
      </trkpt>
      <trkpt lat="44.08826" lon="7.09376">
        <ele>791.43200683594</ele>
        <time>2017-06-11T13:01:28Z</time>
      </trkpt>
      <trkpt lat="44.08776" lon="7.09474">
        <ele>773.23199462891</ele>
        <time>2017-06-11T13:01:49Z</time>
      </trkpt>
      <trkpt lat="44.08748" lon="7.09509">
        <ele>770.73199462891</ele>
        <time>2017-06-11T13:01:55Z</time>
      </trkpt>
      <trkpt lat="44.08723" lon="7.09538">
        <ele>767.63201904297</ele>
        <time>2017-06-11T13:02:01Z</time>
      </trkpt>
      <trkpt lat="44.08701" lon="7.09585">
        <ele>765.13201904297</ele>
        <time>2017-06-11T13:02:07Z</time>
      </trkpt>
      <trkpt lat="44.08672" lon="7.09612">
        <ele>760.93200683594</ele>
        <time>2017-06-11T13:02:13Z</time>
      </trkpt>
      <trkpt lat="44.08651" lon="7.09648">
        <ele>756.23199462891</ele>
        <time>2017-06-11T13:02:19Z</time>
      </trkpt>
      <trkpt lat="44.08626" lon="7.09673">
        <ele>749.73199462891</ele>
        <time>2017-06-11T13:02:26Z</time>
      </trkpt>
      <trkpt lat="44.08624" lon="7.09709">
        <ele>724.93200683594</ele>
        <time>2017-06-11T13:02:32Z</time>
      </trkpt>
      <trkpt lat="44.08617" lon="7.09715">
        <ele>710.33197021484</ele>
        <time>2017-06-11T13:02:42Z</time>
      </trkpt>
      <trkpt lat="44.08621" lon="7.09724">
        <ele>712.63201904297</ele>
        <time>2017-06-11T13:03:03Z</time>
      </trkpt>
      <trkpt lat="44.08624" lon="7.09738">
        <ele>715.43200683594</ele>
        <time>2017-06-11T13:03:35Z</time>
      </trkpt>
      <trkpt lat="44.08625" lon="7.09749">
        <ele>715.63201904297</ele>
        <time>2017-06-11T13:03:41Z</time>
      </trkpt>
      <trkpt lat="44.08638" lon="7.09765">
        <ele>714.13201904297</ele>
        <time>2017-06-11T13:03:47Z</time>
      </trkpt>
      <trkpt lat="44.08652" lon="7.09783">
        <ele>712.33197021484</ele>
        <time>2017-06-11T13:03:53Z</time>
      </trkpt>
      <trkpt lat="44.08652" lon="7.09798">
        <ele>699.83197021484</ele>
        <time>2017-06-11T13:04:20Z</time>
      </trkpt>
      <trkpt lat="44.08656" lon="7.09823">
        <ele>695.23199462891</ele>
        <time>2017-06-11T13:04:26Z</time>
      </trkpt>
      <trkpt lat="44.08655" lon="7.09848">
        <ele>690.33197021484</ele>
        <time>2017-06-11T13:04:32Z</time>
      </trkpt>
      <trkpt lat="44.08662" lon="7.09869">
        <ele>685.63201904297</ele>
        <time>2017-06-11T13:04:39Z</time>
      </trkpt>
      <trkpt lat="44.08664" lon="7.09885">
        <ele>678.03198242188</ele>
        <time>2017-06-11T13:04:50Z</time>
      </trkpt>
      <trkpt lat="44.08669" lon="7.09899">
        <ele>682.43200683594</ele>
        <time>2017-06-11T13:04:57Z</time>
      </trkpt>
      <trkpt lat="44.08663" lon="7.09905">
        <ele>679.83197021484</ele>
        <time>2017-06-11T13:05:02Z</time>
      </trkpt>
      <trkpt lat="44.0867" lon="7.09911">
        <ele>676.93200683594</ele>
        <time>2017-06-11T13:05:10Z</time>
      </trkpt>
      <trkpt lat="44.08677" lon="7.09915">
        <ele>671.93200683594</ele>
        <time>2017-06-11T13:05:19Z</time>
      </trkpt>
      <trkpt lat="44.08684" lon="7.09935">
        <ele>667.43200683594</ele>
        <time>2017-06-11T13:05:26Z</time>
      </trkpt>
      <trkpt lat="44.08691" lon="7.09957">
        <ele>661.63299560547</ele>
        <time>2017-06-11T13:05:32Z</time>
      </trkpt>
      <trkpt lat="44.08694" lon="7.09982">
        <ele>652.03302001953</ele>
        <time>2017-06-11T13:05:39Z</time>
      </trkpt>
      <trkpt lat="44.08691" lon="7.10003">
        <ele>647.13299560547</ele>
        <time>2017-06-11T13:05:46Z</time>
      </trkpt>
      <trkpt lat="44.08687" lon="7.10015">
        <ele>643.8330078125</ele>
        <time>2017-06-11T13:05:55Z</time>
      </trkpt>
      <trkpt lat="44.08685" lon="7.10039">
        <ele>638.23297119141</ele>
        <time>2017-06-11T13:06:02Z</time>
      </trkpt>
      <trkpt lat="44.08691" lon="7.1006">
        <ele>634.43298339844</ele>
        <time>2017-06-11T13:06:08Z</time>
      </trkpt>
      <trkpt lat="44.0869" lon="7.10071">
        <ele>633.43298339844</ele>
        <time>2017-06-11T13:06:13Z</time>
      </trkpt>
      <trkpt lat="44.08686" lon="7.10082">
        <ele>627.53302001953</ele>
        <time>2017-06-11T13:06:21Z</time>
      </trkpt>
      <trkpt lat="44.08691" lon="7.10101">
        <ele>627.3330078125</ele>
        <time>2017-06-11T13:06:26Z</time>
      </trkpt>
      <trkpt lat="44.08698" lon="7.10111">
        <ele>626.3330078125</ele>
        <time>2017-06-11T13:06:29Z</time>
      </trkpt>
      <trkpt lat="44.08705" lon="7.10114">
        <ele>626.3330078125</ele>
        <time>2017-06-11T13:06:44Z</time>
      </trkpt>
      <trkpt lat="44.08722" lon="7.10113">
        <ele>626.73297119141</ele>
        <time>2017-06-11T13:06:52Z</time>
      </trkpt>
      <trkpt lat="44.08738" lon="7.10108">
        <ele>627.8330078125</ele>
        <time>2017-06-11T13:07:12Z</time>
      </trkpt>
      <trkpt lat="44.0874" lon="7.10097">
        <ele>631.8330078125</ele>
        <time>2017-06-11T13:11:04Z</time>
      </trkpt>
      <trkpt lat="44.08747" lon="7.10094">
        <ele>631.93298339844</ele>
        <time>2017-06-11T13:11:10Z</time>
      </trkpt>
      <trkpt lat="44.08765" lon="7.10092">
        <ele>631.3330078125</ele>
        <time>2017-06-11T13:11:18Z</time>
      </trkpt>
      <trkpt lat="44.08781" lon="7.10095">
        <ele>630.8330078125</ele>
        <time>2017-06-11T13:11:24Z</time>
      </trkpt>
      <trkpt lat="44.08793" lon="7.1011">
        <ele>629.43298339844</ele>
        <time>2017-06-11T13:11:30Z</time>
      </trkpt>
      <trkpt lat="44.08807" lon="7.10123">
        <ele>627.03302001953</ele>
        <time>2017-06-11T13:11:36Z</time>
      </trkpt>
      <trkpt lat="44.08825" lon="7.10131">
        <ele>624.93298339844</ele>
        <time>2017-06-11T13:11:42Z</time>
      </trkpt>
      <trkpt lat="44.08839" lon="7.10144">
        <ele>623.13299560547</ele>
        <time>2017-06-11T13:11:47Z</time>
      </trkpt>
      <trkpt lat="44.08855" lon="7.10167">
        <ele>621.03302001953</ele>
        <time>2017-06-11T13:11:54Z</time>
      </trkpt>
      <trkpt lat="44.0887" lon="7.10178">
        <ele>617.8330078125</ele>
        <time>2017-06-11T13:12:01Z</time>
      </trkpt>
      <trkpt lat="44.08885" lon="7.10189">
        <ele>617.13299560547</ele>
        <time>2017-06-11T13:12:08Z</time>
      </trkpt>
      <trkpt lat="44.08898" lon="7.10208">
        <ele>618.03302001953</ele>
        <time>2017-06-11T13:12:13Z</time>
      </trkpt>
      <trkpt lat="44.08914" lon="7.10235">
        <ele>617.23297119141</ele>
        <time>2017-06-11T13:12:19Z</time>
      </trkpt>
      <trkpt lat="44.08923" lon="7.10268">
        <ele>614.03302001953</ele>
        <time>2017-06-11T13:12:25Z</time>
      </trkpt>
      <trkpt lat="44.08928" lon="7.10299">
        <ele>613.63397216797</ele>
        <time>2017-06-11T13:12:31Z</time>
      </trkpt>
      <trkpt lat="44.0893" lon="7.10332">
        <ele>616.833984375</ele>
        <time>2017-06-11T13:12:37Z</time>
      </trkpt>
      <trkpt lat="44.08936" lon="7.10352">
        <ele>619.43402099609</ele>
        <time>2017-06-11T13:12:41Z</time>
      </trkpt>
      <trkpt lat="44.08944" lon="7.10371">
        <ele>619.833984375</ele>
        <time>2017-06-11T13:12:46Z</time>
      </trkpt>
      <trkpt lat="44.08948" lon="7.1038">
        <ele>622.13397216797</ele>
        <time>2017-06-11T13:12:52Z</time>
      </trkpt>
      <trkpt lat="44.08954" lon="7.10387">
        <ele>624.833984375</ele>
        <time>2017-06-11T13:12:59Z</time>
      </trkpt>
      <trkpt lat="44.08959" lon="7.10395">
        <ele>625.73400878906</ele>
        <time>2017-06-11T13:13:05Z</time>
      </trkpt>
      <trkpt lat="44.08967" lon="7.10395">
        <ele>629.53399658203</ele>
        <time>2017-06-11T13:13:31Z</time>
      </trkpt>
      <trkpt lat="44.08974" lon="7.10399">
        <ele>630.833984375</ele>
        <time>2017-06-11T13:13:39Z</time>
      </trkpt>
      <trkpt lat="44.08967" lon="7.10401">
        <ele>631.03399658203</ele>
        <time>2017-06-11T13:13:43Z</time>
      </trkpt>
      <trkpt lat="44.08952" lon="7.10411">
        <ele>631.833984375</ele>
        <time>2017-06-11T13:13:53Z</time>
      </trkpt>
      <trkpt lat="44.08949" lon="7.1042">
        <ele>631.833984375</ele>
        <time>2017-06-11T13:13:58Z</time>
      </trkpt>
      <trkpt lat="44.08947" lon="7.1043">
        <ele>631.43402099609</ele>
        <time>2017-06-11T13:14:05Z</time>
      </trkpt>
      <trkpt lat="44.08948" lon="7.10441">
        <ele>630.13397216797</ele>
        <time>2017-06-11T13:14:12Z</time>
      </trkpt>
      <trkpt lat="44.08955" lon="7.10444">
        <ele>626.63397216797</ele>
        <time>2017-06-11T13:14:26Z</time>
      </trkpt>
      <trkpt lat="44.08953" lon="7.10454">
        <ele>625.13397216797</ele>
        <time>2017-06-11T13:14:33Z</time>
      </trkpt>
      <trkpt lat="44.08951" lon="7.10464">
        <ele>622.73400878906</ele>
        <time>2017-06-11T13:14:41Z</time>
      </trkpt>
      <trkpt lat="44.08952" lon="7.10474">
        <ele>620.03399658203</ele>
        <time>2017-06-11T13:14:49Z</time>
      </trkpt>
      <trkpt lat="44.08961" lon="7.10478">
        <ele>618.73400878906</ele>
        <time>2017-06-11T13:14:54Z</time>
      </trkpt>
      <trkpt lat="44.08966" lon="7.10485">
        <ele>613.43402099609</ele>
        <time>2017-06-11T13:15:07Z</time>
      </trkpt>
      <trkpt lat="44.08982" lon="7.10488">
        <ele>610.93402099609</ele>
        <time>2017-06-11T13:15:12Z</time>
      </trkpt>
      <trkpt lat="44.09" lon="7.10489">
        <ele>607.833984375</ele>
        <time>2017-06-11T13:15:16Z</time>
      </trkpt>
      <trkpt lat="44.09014" lon="7.10483">
        <ele>604.03399658203</ele>
        <time>2017-06-11T13:15:22Z</time>
      </trkpt>
      <trkpt lat="44.09027" lon="7.10492">
        <ele>593.833984375</ele>
        <time>2017-06-11T13:15:42Z</time>
      </trkpt>
      <trkpt lat="44.09018" lon="7.10497">
        <ele>589.53399658203</ele>
        <time>2017-06-11T13:15:53Z</time>
      </trkpt>
      <trkpt lat="44.09006" lon="7.10513">
        <ele>586.13397216797</ele>
        <time>2017-06-11T13:16:02Z</time>
      </trkpt>
      <trkpt lat="44.09012" lon="7.10522">
        <ele>584.03399658203</ele>
        <time>2017-06-11T13:16:10Z</time>
      </trkpt>
      <trkpt lat="44.09031" lon="7.10525">
        <ele>582.333984375</ele>
        <time>2017-06-11T13:16:18Z</time>
      </trkpt>
      <trkpt lat="44.09023" lon="7.10531">
        <ele>578.833984375</ele>
        <time>2017-06-11T13:16:31Z</time>
      </trkpt>
      <trkpt lat="44.09021" lon="7.10541">
        <ele>574.53399658203</ele>
        <time>2017-06-11T13:16:39Z</time>
      </trkpt>
      <trkpt lat="44.09022" lon="7.10552">
        <ele>569.333984375</ele>
        <time>2017-06-11T13:16:48Z</time>
      </trkpt>
      <trkpt lat="44.09034" lon="7.10564">
        <ele>562.23400878906</ele>
        <time>2017-06-11T13:17:00Z</time>
      </trkpt>
      <trkpt lat="44.0903" lon="7.10574">
        <ele>558.13397216797</ele>
        <time>2017-06-11T13:17:12Z</time>
      </trkpt>
      <trkpt lat="44.09033" lon="7.10583">
        <ele>554.93402099609</ele>
        <time>2017-06-11T13:17:21Z</time>
      </trkpt>
      <trkpt lat="44.09047" lon="7.10592">
        <ele>552.333984375</ele>
        <time>2017-06-11T13:17:30Z</time>
      </trkpt>
      <trkpt lat="44.09054" lon="7.10589">
        <ele>549.333984375</ele>
        <time>2017-06-11T13:17:35Z</time>
      </trkpt>
      <trkpt lat="44.09071" lon="7.10591">
        <ele>546.833984375</ele>
        <time>2017-06-11T13:17:41Z</time>
      </trkpt>
      <trkpt lat="44.09085" lon="7.10599">
        <ele>540.333984375</ele>
        <time>2017-06-11T13:17:55Z</time>
      </trkpt>
      <trkpt lat="44.09078" lon="7.10605">
        <ele>536.03399658203</ele>
        <time>2017-06-11T13:18:03Z</time>
      </trkpt>
      <trkpt lat="44.09073" lon="7.10613">
        <ele>534.23400878906</ele>
        <time>2017-06-11T13:18:08Z</time>
      </trkpt>
      <trkpt lat="44.09056" lon="7.10623">
        <ele>530.333984375</ele>
        <time>2017-06-11T13:18:15Z</time>
      </trkpt>
      <trkpt lat="44.09042" lon="7.10626">
        <ele>527.43402099609</ele>
        <time>2017-06-11T13:18:19Z</time>
      </trkpt>
      <trkpt lat="44.09025" lon="7.10633">
        <ele>523.73400878906</ele>
        <time>2017-06-11T13:18:24Z</time>
      </trkpt>
      <trkpt lat="44.09007" lon="7.1064">
        <ele>519.13397216797</ele>
        <time>2017-06-11T13:18:29Z</time>
      </trkpt>
      <trkpt lat="44.08992" lon="7.10648">
        <ele>512.63397216797</ele>
        <time>2017-06-11T13:18:35Z</time>
      </trkpt>
      <trkpt lat="44.08977" lon="7.10659">
        <ele>507.13400268555</ele>
        <time>2017-06-11T13:18:40Z</time>
      </trkpt>
      <trkpt lat="44.08964" lon="7.10657">
        <ele>501.83401489258</ele>
        <time>2017-06-11T13:18:45Z</time>
      </trkpt>
      <trkpt lat="44.08947" lon="7.1066">
        <ele>495.23400878906</ele>
        <time>2017-06-11T13:18:51Z</time>
      </trkpt>
      <trkpt lat="44.08929" lon="7.10656">
        <ele>489.63400268555</ele>
        <time>2017-06-11T13:18:57Z</time>
      </trkpt>
      <trkpt lat="44.08902" lon="7.10651">
        <ele>484.23400878906</ele>
        <time>2017-06-11T13:19:03Z</time>
      </trkpt>
      <trkpt lat="44.08894" lon="7.10645">
        <ele>480.53399658203</ele>
        <time>2017-06-11T13:19:06Z</time>
      </trkpt>
      <trkpt lat="44.08889" lon="7.10637">
        <ele>473.73400878906</ele>
        <time>2017-06-11T13:19:13Z</time>
      </trkpt>
      <trkpt lat="44.08877" lon="7.10638">
        <ele>467.63400268555</ele>
        <time>2017-06-11T13:20:42Z</time>
      </trkpt>
      <trkpt lat="44.08879" lon="7.10649">
        <ele>467.03399658203</ele>
        <time>2017-06-11T13:21:54Z</time>
      </trkpt>
      <trkpt lat="44.08877" lon="7.1066">
        <ele>466.73400878906</ele>
        <time>2017-06-11T13:22:00Z</time>
      </trkpt>
      <trkpt lat="44.08872" lon="7.10683">
        <ele>466.93399047852</ele>
        <time>2017-06-11T13:22:05Z</time>
      </trkpt>
      <trkpt lat="44.08871" lon="7.10694">
        <ele>466.43399047852</ele>
        <time>2017-06-11T13:22:08Z</time>
      </trkpt>
      <trkpt lat="44.08859" lon="7.10707">
        <ele>463.23400878906</ele>
        <time>2017-06-11T13:22:18Z</time>
      </trkpt>
      <trkpt lat="44.08842" lon="7.10691">
        <ele>461.03399658203</ele>
        <time>2017-06-11T13:22:24Z</time>
      </trkpt>
      <trkpt lat="44.08816" lon="7.10669">
        <ele>458.43399047852</ele>
        <time>2017-06-11T13:22:30Z</time>
      </trkpt>
    </trkseg>
  </trk>
</gpx>